GFSCGP_850_rhum_000.txt.gz
RH
88 92 91 78 46 44 42 39 40 36 30 32 36 33 31 26 24 26 28 30 31 29 26 23 22 22 23 22 24 29 32 38 46 49 48 48 47 46 46 46 50 60 67 74
98 91 75 59 51 41 41 42 43 36 29 26 28 30 30 21 27 29 30 32 30 29 25 24 23 23 22 23 24 24 26 29 32 38 49 52 51 51 53 60 66 70 70 75
81 70 65 50 45 46 45 46 41 41 36 32 32 40 23 26 30 33 32 31 32 33 32 29 26 24 23 21 22 23 25 29 34 38 43 52 58 59 63 73 76 74 78 81
70 51 58 56 45 40 48 37 36 35 39 45 35 52 30 33 35 36 35 31 33 34 36 35 32 28 28 29 29 28 29 34 38 42 46 52 62 65 64 62 62 66 69 71
67 51 54 46 42 38 39 34 33 33 40 40 39 44 40 36 39 41 41 33 32 36 36 36 35 35 33 31 30 31 31 31 33 34 39 43 44 44 44 44 48 55 63 74
46 35 41 40 34 34 36 33 44 47 48 57 46 44 41 43 36 40 41 34 32 37 36 35 38 37 36 37 36 35 34 35 37 37 38 40 42 43 42 43 44 45 44 43
58 29 23 29 32 26 35 46 60 59 63 62 39 43 38 32 37 33 43 36 33 34 31 34 35 36 39 38 38 40 43 43 44 44 44 44 45 46 48 52 53 53 52 51
68 47 30 23 32 36 39 44 64 64 70 55 34 42 32 30 31 31 34 33 34 34 33 32 35 39 43 44 45 46 46 47 46 44 43 42 42 44 49 53 54 54 51 48
49 48 32 29 24 31 35 47 40 50 50 55 49 40 26 44 49 44 42 37 36 35 35 37 38 44 48 49 50 50 50 50 49 40 33 34 37 37 40 43 47 47 49 47
47 53 39 32 28 26 34 34 46 55 54 53 49 40 41 41 50 50 51 40 36 36 39 41 44 50 52 52 53 52 52 52 46 29 30 37 37 36 38 40 42 45 46 46
50 52 54 38 42 46 39 38 34 46 52 55 54 46 36 36 43 47 47 39 36 38 42 45 49 53 54 56 55 56 55 50 38 27 32 36 37 42 46 47 47 49 50 47
55 64 71 54 40 37 38 40 38 47 45 53 52 45 30 34 33 34 38 36 39 40 44 50 53 55 57 57 56 52 49 44 33 36 40 37 34 34 41 45 48 50 45 39
54 68 79 60 52 48 50 42 39 47 52 56 54 48 34 38 36 37 39 40 39 43 51 54 53 53 52 52 50 49 48 39 38 40 40 40 44 48 47 42 37 32 25 20
46 54 58 62 54 55 58 55 46 44 58 48 56 39 34 34 36 37 35 30 43 52 53 51 50 51 53 52 50 48 40 40 42 42 43 44 40 35 31 21 10 4 3 3
44 48 45 42 39 38 45 50 56 56 49 45 39 43 34 36 34 33 34 38 50 54 50 48 50 54 53 51 48 40 46 48 48 47 42 32 23 10 3 3 4 4 4 4
47 51 36 34 34 36 35 34 36 42 48 52 47 42 32 31 33 45 44 49 52 52 49 50 53 52 50 44 46 54 55 52 48 38 23 8 2 4 5 4 4 4 5 6
46 41 38 34 47 45 46 45 43 36 35 32 34 30 35 37 46 50 49 49 50 48 48 51 53 52 44 54 60 60 58 52 35 15 3 4 6 5 6 7 9 10 11 12
50 53 55 53 52 61 41 42 40 39 40 37 39 42 46 51 49 44 46 48 49 48 54 60 55 51 59 70 69 63 52 32 9 4 6 7 7 8 10 12 13 14 15 16
51 56 67 69 72 58 48 44 44 43 55 50 51 49 49 47 48 44 43 46 48 53 61 60 60 67 78 76 70 51 29 8 5 7 7 8 10 12 13 14 14 16 19 20
58 60 60 91 81 70 48 43 40 39 57 54 52 53 55 52 72 65 51 52 55 64 68 67 67 79 80 70 54 29 8 8 8 8 9 11 15 17 17 18 19 21 22 24
69 70 72 82 82 73 54 48 42 57 52 61 54 52 54 65 61 57 57 64 73 74 70 66 76 84 84 69 34 10 10 9 10 12 13 16 18 20 21 22 22 22 25 29
75 88 84 84 82 81 50 48 54 57 58 52 50 50 50 49 51 55 57 64 63 62 69 75 83 86 88 39 12 10 10 12 14 15 16 17 19 21 22 24 25 27 30 34
69 72 80 74 73 55 48 50 51 51 53 55 55 54 52 53 53 55 64 71 73 75 82 87 88 88 72 18 14 11 14 16 16 16 17 18 20 22 24 31 30 32 39 51
59 59 70 62 58 67 54 53 54 57 58 58 59 59 59 59 57 60 66 70 78 88 91 86 90 53 13 15 13 14 16 16 18 18 18 20 23 28 32 33 35 42 51 72
67 66 74 79 67 57 60 60 60 62 63 62 62 64 67 66 61 62 71 81 87 89 89 74 39 13 16 14 13 16 18 19 20 21 21 23 29 35 37 35 41 54 65 95
78 76 81 83 64 61 60 57 55 61 67 70 70 70 71 71 70 72 79 89 90 86 66 42 14 18 16 15 15 17 20 22 23 22 24 31 39 41 47 48 44 45 66 94

GFSCGP_850_rhum_003.txt.gz
RH
88 94 88 79 69 56 49 44 42 40 33 34 41 39 33 29 24 28 31 31 32 30 32 31 29 26 25 23 24 26 28 29 32 37 44 47 49 50 53 56 60 65 71 80
96 92 67 67 53 46 43 44 49 40 35 35 34 38 34 26 27 30 32 34 36 34 31 29 30 27 24 25 28 29 29 31 36 38 45 54 56 59 63 68 74 77 84 86
79 71 69 66 71 58 49 48 50 43 41 35 38 44 37 26 30 33 34 36 38 37 33 31 29 29 30 28 29 30 32 36 38 43 52 59 64 71 76 73 67 65 68 72
80 61 79 72 67 62 75 43 42 44 45 52 38 58 39 31 37 39 39 38 39 38 36 34 33 32 32 34 34 32 31 31 34 39 44 50 55 53 50 47 48 54 59 62
78 71 76 85 65 45 61 36 41 43 43 44 42 51 45 34 42 43 43 38 38 36 34 34 35 35 36 37 36 36 34 34 36 36 38 38 40 44 46 45 45 45 47 47
53 55 60 59 50 40 37 37 44 51 52 62 50 47 46 43 34 41 41 38 37 34 35 35 38 39 38 40 38 38 37 38 41 40 41 41 42 44 43 43 42 42 43 42
50 49 38 32 34 37 38 47 66 64 67 68 46 52 37 30 33 35 43 37 36 35 32 36 40 40 41 41 42 42 44 44 46 44 42 42 42 41 38 37 35 32 31 31
67 67 33 27 36 43 46 48 65 66 73 60 48 51 36 37 36 29 32 32 35 34 34 38 41 42 43 45 46 47 48 49 49 39 33 34 34 34 35 36 35 37 39 40
61 52 34 29 27 34 38 50 44 54 56 64 54 44 32 46 49 45 39 36 36 35 40 41 44 45 47 49 49 50 50 50 48 37 30 33 34 32 33 35 40 40 42 42
44 52 42 33 28 28 36 38 50 61 63 60 53 47 45 42 49 52 52 40 36 41 44 44 47 48 50 51 52 54 54 51 43 30 31 35 37 36 36 36 36 37 37 37
48 47 54 38 42 44 37 38 44 51 57 58 59 49 36 34 50 50 49 35 37 41 44 46 48 51 52 54 56 56 53 44 36 32 37 39 37 37 37 36 34 30 26 22
54 60 66 50 44 40 38 39 40 53 48 56 56 48 36 36 46 44 41 42 41 39 43 47 52 54 55 56 57 52 47 42 34 40 42 42 41 39 34 25 17 9 3 3
58 70 81 63 56 52 50 44 40 49 53 59 55 45 34 39 35 35 36 37 38 40 46 52 54 55 57 57 53 50 44 37 44 48 47 44 38 28 16 4 0 2 3 3
46 62 60 59 60 61 59 53 47 45 59 52 54 39 32 38 37 36 36 37 40 46 49 52 56 59 57 54 51 46 41 50 54 55 49 38 23 7 0 2 4 4 4 5
42 50 47 46 44 50 54 58 54 49 44 45 39 47 32 32 35 32 34 37 42 49 55 55 55 55 58 57 45 45 54 57 58 53 36 18 2 1 4 5 5 5 6 7
46 54 37 35 39 35 34 36 58 52 49 48 48 44 35 34 37 44 46 45 49 54 54 53 57 63 60 44 50 62 64 62 55 37 15 2 3 5 6 6 6 7 7 8
40 43 37 36 45 42 42 45 41 36 35 34 33 29 38 47 53 48 46 45 46 50 52 52 62 62 48 57 70 71 70 61 42 12 4 5 6 6 7 8 9 10 10 11
45 46 48 44 50 57 38 46 40 42 50 38 51 49 48 51 46 43 41 43 44 48 51 60 65 54 60 72 74 73 66 42 13 7 7 7 8 9 10 11 12 12 13 13
48 53 66 64 62 51 51 46 50 51 62 54 53 51 53 48 46 45 43 44 49 50 55 65 60 60 66 76 78 76 46 14 10 8 8 8 9 10 11 13 14 15 15 15
54 56 57 88 78 65 47 44 41 40 75 62 58 62 60 57 72 70 56 51 51 56 61 64 60 64 75 78 74 46 21 13 7 7 9 11 13 14 15 16 16 18 19 18
61 65 68 77 76 68 51 46 44 58 52 62 54 53 53 62 59 50 49 53 62 66 66 66 69 76 82 80 64 30 27 8 8 10 12 13 15 16 16 18 21 20 20 23
66 78 77 84 79 71 53 52 60 62 60 54 54 52 49 48 48 49 56 68 73 74 75 75 78 87 83 78 55 25 9 10 11 12 14 15 16 17 19 21 21 21 21 25
73 68 72 70 70 60 54 53 51 50 52 54 52 53 54 53 55 59 61 69 77 77 75 78 86 82 77 50 19 10 11 13 14 15 15 16 17 19 20 23 24 25 30 43
61 64 70 68 69 63 54 53 52 54 56 57 58 59 59 61 62 58 59 71 77 79 82 89 82 78 45 15 12 14 15 16 16 16 17 18 20 21 24 27 29 38 42 55
69 71 77 76 70 67 60 57 57 59 61 63 64 63 64 66 67 65 66 75 83 90 92 83 65 36 14 15 14 15 16 18 18 19 20 21 22 25 27 27 32 41 50 89
80 78 80 77 63 60 63 59 60 64 65 68 67 65 68 70 71 72 74 75 76 83 83 63 39 14 18 16 15 17 20 21 21 22 23 25 29 31 33 31 30 38 70 94

GFSCGP_850_rhum_006.txt.gz
RH
88 92 95 82 69 60 59 50 59 43 35 36 41 44 36 31 28 27 29 37 38 34 38 35 30 29 27 26 26 22 22 22 26 31 39 51 60 64 69 73 75 77 76 80
96 92 69 72 69 62 47 49 51 49 38 37 42 42 37 36 28 26 32 40 40 37 34 33 30 27 26 25 24 22 22 25 29 35 45 53 62 70 77 76 74 70 68 68
81 78 62 68 66 63 53 57 57 58 46 41 45 47 41 30 31 34 36 40 42 36 35 36 32 32 31 27 27 27 27 26 27 32 42 57 70 72 63 54 50 52 58 60
86 76 73 69 81 69 87 52 46 46 50 59 42 63 48 34 37 43 42 43 43 39 41 39 38 34 33 34 34 32 31 32 34 37 36 38 41 41 47 50 51 50 49 49
85 91 89 79 70 69 72 47 49 45 51 48 46 55 49 36 42 45 49 44 45 42 40 42 40 38 40 39 37 36 35 36 39 38 40 41 43 48 50 46 43 39 37 36
65 61 74 78 66 58 51 49 45 52 53 67 52 50 53 42 40 42 44 42 45 43 45 45 43 43 42 43 42 42 40 41 43 43 42 40 39 38 34 31 30 30 30 31
58 81 54 58 55 44 51 50 77 65 71 72 50 57 49 35 34 38 45 39 44 45 46 45 45 44 45 44 45 45 45 45 45 37 33 33 34 33 32 33 33 33 33 33
82 93 53 38 60 68 61 57 70 71 75 64 54 59 41 35 44 35 34 33 43 46 46 46 46 46 45 46 46 48 48 47 46 40 31 32 34 35 35 35 35 36 36 35
85 73 36 32 34 54 51 56 46 61 60 70 62 47 39 43 50 48 42 38 45 45 44 46 48 48 46 48 50 52 52 50 43 34 30 33 36 37 39 40 39 37 30 22
53 54 42 33 28 30 44 43 54 62 65 68 61 50 49 34 41 51 54 46 45 46 46 49 49 48 49 52 53 55 54 48 40 33 35 39 42 44 44 40 32 22 10 3
45 50 53 39 44 42 40 45 51 55 62 62 63 50 40 36 39 53 52 42 44 45 45 47 50 52 53 55 57 57 52 45 38 38 45 48 49 46 37 26 12 3 2 3
49 60 60 49 46 40 36 41 45 61 56 62 60 53 36 44 43 49 48 43 41 42 44 48 51 53 56 59 60 56 50 42 40 49 54 55 49 39 22 7 2 2 4 4
58 66 83 66 55 54 47 44 42 52 55 63 59 51 36 43 47 45 44 40 38 40 48 54 56 58 60 62 60 55 46 42 51 57 57 52 40 20 6 3 3 4 5 5
46 63 60 70 53 60 63 54 48 46 61 59 58 41 34 40 41 40 39 38 39 42 48 53 60 63 65 64 59 50 46 57 64 65 55 37 19 9 5 5 5 5 6 6
49 56 50 47 55 56 56 56 55 51 47 51 45 49 34 36 35 34 34 41 44 48 54 57 62 66 66 63 54 49 62 73 74 58 39 22 13 6 6 6 6 6 7 8
49 55 41 39 40 36 44 50 58 51 51 42 50 47 37 41 41 46 46 44 46 51 57 59 64 66 67 60 50 66 74 73 65 49 34 16 9 7 6 7 7 8 8 9
44 46 47 49 44 40 38 42 66 55 49 52 58 44 40 52 52 45 42 40 42 45 52 57 63 69 65 53 68 76 77 68 58 53 30 13 7 7 7 8 9 10 10 12
42 44 46 49 49 46 34 47 40 46 48 42 52 52 51 53 49 44 43 42 42 48 54 58 65 68 57 65 75 78 71 64 53 34 17 7 7 8 10 10 11 12 14 15
46 52 66 59 58 46 52 53 58 51 62 55 60 59 54 49 47 48 48 46 45 48 55 60 68 62 62 71 76 76 71 50 32 16 8 8 10 11 12 11 13 16 18 18
55 58 52 88 75 61 46 47 43 46 68 62 58 64 62 56 67 66 50 52 53 54 60 67 66 62 68 76 83 74 61 47 17 9 9 10 12 12 13 16 18 20 21 20
63 69 63 74 73 66 48 48 42 58 58 66 56 53 56 64 55 53 54 60 63 68 69 68 67 72 78 84 74 72 39 16 13 10 11 12 12 15 18 20 22 23 23 22
58 73 78 84 76 69 52 53 56 60 61 52 51 52 52 51 52 56 61 67 70 72 73 75 76 77 83 77 68 30 16 12 11 11 12 14 17 20 22 24 24 24 25 24
64 61 66 69 69 62 58 54 50 49 52 55 53 53 54 55 57 58 57 64 73 79 80 79 79 84 81 63 35 15 13 13 12 13 15 18 22 25 26 26 26 27 27 31
64 65 70 68 68 62 57 55 52 52 54 56 58 59 60 60 64 63 61 63 73 82 84 83 87 84 61 36 16 16 14 13 14 17 20 24 27 28 28 28 29 31 37 59
68 69 76 77 76 67 62 57 56 58 60 62 63 63 64 64 67 69 68 68 76 83 87 91 84 66 46 19 16 16 16 17 19 22 25 29 30 30 30 31 35 44 62 91
80 75 78 75 66 65 63 58 57 60 62 64 65 62 61 65 70 73 75 78 82 84 82 80 70 67 22 18 18 18 20 22 24 26 30 32 32 32 33 35 37 55 80 95

GFSCGP_850_rhum_009.txt.gz
RH
84 94 96 79 70 61 54 52 51 53 37 38 41 41 34 31 31 32 31 39 39 39 42 39 33 30 29 26 26 24 24 27 32 35 43 50 55 62 66 72 74 74 72 70
81 93 70 68 70 59 56 55 55 50 40 39 44 42 34 36 34 28 32 43 40 42 40 37 33 30 27 26 25 22 22 24 25 30 43 56 67 71 71 68 63 58 56 56
78 77 61 69 78 74 63 64 60 59 50 44 46 44 40 32 32 36 37 40 40 38 40 41 36 32 32 29 26 25 25 25 27 31 41 54 58 55 48 45 46 48 50 50
84 72 71 76 76 70 82 52 52 52 60 68 42 56 46 36 34 44 49 48 43 43 44 40 36 36 34 34 33 31 30 30 34 37 38 39 41 43 51 53 51 44 36 33
90 96 76 83 74 67 75 61 60 53 55 50 49 50 42 38 38 45 51 52 48 45 42 42 40 40 40 40 37 36 36 37 41 42 42 42 42 42 39 35 32 32 33 35
89 78 71 66 66 64 49 58 62 53 50 63 52 46 47 39 34 45 49 52 51 48 46 46 46 46 44 44 43 43 41 42 40 37 35 33 32 32 31 32 34 37 39 39
90 87 84 84 64 54 52 72 98 96 74 67 54 55 42 38 34 38 42 48 50 47 47 48 48 48 48 47 47 46 45 43 42 38 32 31 32 34 36 39 40 42 43 40
97 99 69 80 73 71 75 72 80 76 71 60 57 58 37 35 41 37 38 42 49 49 50 50 49 49 50 50 50 49 48 46 40 34 32 34 37 40 44 47 46 40 33 23
82 82 54 50 50 60 78 85 49 62 62 67 60 48 38 39 45 48 48 45 50 51 52 50 51 51 52 53 52 53 51 46 40 35 35 39 45 49 49 46 40 32 19 10
68 61 46 34 40 35 56 48 77 61 67 70 62 53 48 36 39 53 53 54 53 52 53 53 53 54 56 55 55 56 52 46 40 37 42 50 52 49 46 41 32 20 8 4
49 53 56 39 44 48 53 74 57 54 61 62 58 46 40 37 37 48 51 49 50 50 52 54 55 58 57 58 58 57 51 44 40 45 53 55 54 48 40 30 18 8 4 5
46 57 62 48 48 40 42 50 49 59 60 61 56 50 36 44 47 48 50 45 45 46 51 54 56 58 60 61 61 57 50 43 47 56 63 60 52 45 33 18 8 6 6 6
53 65 76 61 55 58 47 42 44 51 53 61 56 49 38 47 53 51 47 41 44 48 53 57 60 62 62 63 62 57 48 50 62 70 62 55 49 37 21 12 7 6 7 7
46 63 67 70 59 61 64 52 48 44 56 56 53 41 34 40 47 50 46 41 40 43 50 58 62 64 66 66 63 55 52 64 72 67 62 55 47 28 15 8 7 7 8 8
48 57 52 48 52 52 56 56 51 49 43 46 44 48 38 41 44 44 36 38 42 48 53 59 62 66 68 68 62 53 64 73 71 70 58 51 33 16 7 7 8 8 9 11
53 58 44 43 48 50 58 58 49 46 50 48 45 48 39 40 39 45 47 46 46 48 53 58 64 67 70 69 58 62 73 74 72 60 48 33 18 8 8 8 9 9 12 17
59 50 51 55 44 40 48 49 61 51 54 42 50 38 45 54 55 50 50 49 50 51 52 56 62 71 73 66 59 70 74 74 65 50 38 24 10 9 9 9 10 14 20 22
57 55 54 53 46 56 42 47 52 51 46 46 44 45 47 55 50 46 44 43 44 46 50 57 66 76 73 61 67 72 76 72 58 47 26 11 10 10 10 11 16 22 24 25
48 49 62 61 56 46 54 54 55 52 55 53 61 63 59 50 49 54 52 49 48 48 50 59 68 74 66 64 70 77 74 64 51 28 14 10 10 11 13 19 24 27 27 26
53 50 53 86 64 49 40 48 44 47 56 63 60 66 62 55 60 60 50 50 50 50 53 63 73 70 64 71 77 79 67 54 31 15 10 11 12 15 20 26 28 28 28 28
61 64 58 71 64 59 48 49 43 57 48 64 57 59 60 60 55 53 49 50 53 57 64 72 71 68 73 78 80 70 53 35 17 12 12 14 17 21 27 30 30 30 29 28
57 68 68 79 71 55 51 50 54 58 64 56 52 51 50 51 52 52 53 56 61 66 69 71 72 75 79 82 74 53 32 20 13 13 15 18 21 26 31 32 31 30 29 29
60 54 63 63 63 66 60 56 55 56 52 53 50 51 50 54 58 59 58 59 68 76 78 80 80 80 83 80 54 33 24 15 15 16 18 20 24 32 34 33 32 30 30 34
67 68 74 66 68 64 63 57 51 50 51 53 53 55 57 57 60 62 64 64 73 82 85 84 83 85 84 56 49 26 17 16 17 19 21 24 33 36 34 32 30 31 34 46
67 67 78 83 76 66 62 56 54 55 56 57 60 61 62 63 65 68 70 69 72 81 87 86 88 83 64 64 25 19 18 19 20 21 25 36 38 35 33 31 33 37 45 76
80 74 75 73 67 65 61 59 60 59 61 63 62 61 59 57 59 66 73 77 80 84 85 86 78 70 67 25 21 20 21 22 22 28 38 39 36 34 32 31 29 38 54 92

GFSCGP_850_rhum_012.txt.gz
RH
72 91 93 82 70 44 36 41 47 39 33 36 37 35 28 27 27 25 25 30 36 41 43 38 37 36 35 32 31 32 36 38 43 52 59 69 70 74 74 72 70 67 62 54
67 95 72 74 58 45 45 48 48 34 35 36 38 40 32 26 24 25 25 30 36 44 46 42 37 34 30 28 26 26 27 31 39 50 58 65 67 67 64 56 48 45 45 44
77 70 55 88 71 54 51 49 40 42 43 42 39 37 30 25 26 29 27 32 38 41 44 48 38 34 31 28 28 27 26 28 32 41 50 52 49 47 46 47 46 41 34 32
60 52 70 90 69 53 66 43 46 52 61 57 41 49 32 24 26 29 32 38 40 44 46 50 51 42 35 34 33 32 32 33 35 37 39 41 42 43 42 36 34 34 36 38
76 54 82 80 78 48 50 47 49 54 60 59 49 48 30 28 26 30 32 38 42 47 49 55 57 40 39 39 37 36 36 37 39 39 37 35 34 32 33 34 38 40 42 39
48 71 64 67 60 52 50 51 53 49 54 63 41 42 31 26 22 26 33 40 45 50 53 58 46 43 42 42 40 40 39 38 37 35 32 31 31 34 38 42 45 41 37 34
71 93 78 59 81 63 51 65 98 91 89 60 39 42 29 24 24 25 32 40 45 52 56 60 56 48 46 45 44 43 42 40 38 34 31 32 35 41 45 42 40 39 37 33
99 99 96 63 66 81 69 53 53 62 58 47 44 44 28 26 29 28 28 38 46 52 54 58 61 51 49 48 47 46 45 41 37 34 34 37 43 46 44 45 43 39 34 27
99 99 81 63 59 56 84 87 40 45 46 45 36 33 27 29 31 32 32 41 49 52 56 59 63 55 52 51 51 50 47 42 38 37 39 44 48 49 51 46 40 37 28 15
67 97 68 63 69 58 67 50 68 51 58 54 39 39 29 27 26 34 33 41 48 54 57 61 64 63 57 54 54 52 48 43 40 41 46 51 55 54 48 43 39 28 13 8
52 54 72 53 81 77 66 78 69 46 44 43 39 32 24 26 26 29 31 37 47 55 57 62 66 64 57 57 56 54 49 44 43 49 56 59 55 50 45 39 30 18 10 6
48 38 77 62 45 43 47 53 53 59 55 43 39 32 25 28 31 32 33 39 47 53 58 61 69 63 59 59 59 56 50 45 49 59 61 57 54 49 42 32 22 9 6 7
40 43 59 80 58 43 58 48 48 39 38 43 44 35 27 32 35 38 36 42 49 54 61 64 72 66 63 62 61 57 51 50 60 65 63 58 52 47 37 20 8 7 8 9
40 44 39 49 45 41 52 48 47 48 52 42 38 31 28 32 35 38 38 39 45 54 61 65 73 71 67 65 63 58 52 59 66 67 62 53 48 41 24 10 8 9 10 12
46 46 43 43 42 39 41 46 42 46 44 44 36 36 28 24 32 33 38 39 41 49 62 67 73 72 69 66 65 58 58 68 69 66 56 50 43 28 14 8 9 10 14 21
46 52 40 42 48 42 42 39 41 43 41 37 33 34 24 26 32 35 35 39 44 47 57 67 74 75 70 68 66 58 65 72 70 62 55 48 33 16 9 10 11 17 24 27
47 46 45 48 41 43 52 42 40 36 33 32 38 30 28 35 33 34 39 45 46 50 57 66 74 77 72 72 66 62 71 72 69 60 50 37 20 10 10 12 18 25 28 29
51 50 49 47 46 67 36 39 32 35 31 30 30 32 31 31 40 48 49 48 52 51 52 61 73 75 76 73 63 67 72 74 64 54 40 24 11 11 13 18 25 29 31 32
58 72 75 58 49 37 35 44 40 44 40 35 35 33 41 47 48 56 59 53 51 49 51 58 65 75 78 71 66 71 76 68 55 43 29 12 12 13 17 23 28 32 33 34
51 71 81 64 58 52 35 42 37 35 36 37 35 40 46 46 44 44 60 53 50 50 53 58 68 78 75 67 70 75 73 59 47 34 15 12 14 18 22 26 32 34 34 40
67 56 68 62 90 41 37 41 44 39 40 48 44 47 49 43 48 60 52 50 51 52 57 66 74 74 68 70 75 76 63 50 39 19 13 15 18 20 24 34 35 35 40 46
51 58 55 60 85 63 46 47 43 49 58 55 54 54 55 58 54 51 51 52 56 58 64 70 71 70 71 76 78 71 52 40 22 15 15 18 20 24 35 36 33 32 48 49
48 45 41 42 42 59 61 55 53 55 55 56 54 52 48 51 52 54 55 54 56 62 67 71 72 74 78 80 80 56 38 29 16 16 18 19 23 37 38 35 33 45 49 51
57 57 50 54 59 58 61 62 61 56 52 50 48 48 49 51 55 54 55 54 55 61 71 78 80 80 82 84 58 50 33 18 17 18 19 26 38 38 35 40 47 44 52 61
51 55 57 66 65 61 62 60 54 53 51 50 53 54 56 56 60 61 63 64 64 68 77 82 84 84 85 60 51 40 19 18 19 20 28 39 40 41 41 41 44 50 59 70
56 51 50 47 50 49 52 61 57 55 56 56 55 59 57 52 52 53 61 68 74 78 84 87 86 82 64 55 38 20 19 20 21 29 39 41 39 43 39 44 52 65 79 92

GFSCGP_850_rhum_015.txt.gz
RH
53 84 87 70 74 55 42 47 44 35 28 32 36 34 28 23 23 22 21 19 25 31 41 46 47 48 51 60 68 71 73 77 79 83 86 82 74 72 71 68 63 50 44 42
63 93 59 47 61 76 73 49 38 31 30 34 33 33 26 24 25 24 20 20 25 34 39 45 46 46 47 53 60 72 77 85 84 75 74 70 69 65 52 44 45 42 32 31
70 66 57 46 71 82 65 53 35 37 34 34 36 41 36 28 26 23 23 21 26 34 37 42 45 48 50 46 35 32 35 39 45 49 48 48 46 53 51 43 33 32 34 37
68 51 79 54 74 80 89 42 35 38 46 53 37 42 25 23 24 24 22 23 29 33 36 41 45 52 51 34 33 32 33 34 39 50 52 56 50 40 33 32 36 39 40 36
87 72 85 69 81 71 80 39 38 45 49 61 53 52 31 23 24 24 22 26 31 36 39 44 51 58 50 39 37 37 36 37 39 38 37 34 32 31 34 39 42 38 37 36
64 48 60 62 70 70 70 43 49 48 50 64 43 42 30 26 23 20 23 29 34 38 42 49 58 61 47 43 42 40 38 37 35 34 32 31 32 36 41 41 40 41 38 36
80 81 70 65 94 90 91 71 92 84 89 51 32 37 29 21 21 19 25 30 36 40 46 53 58 62 60 51 44 42 39 37 35 33 32 34 38 42 42 45 46 42 39 36
92 96 95 66 90 86 89 65 52 58 55 42 35 43 28 22 22 21 26 32 37 42 46 52 55 61 68 60 52 45 41 38 36 35 36 39 44 46 48 50 47 42 38 35
92 88 65 74 84 69 83 68 39 42 35 36 38 31 25 22 26 24 25 32 38 42 46 50 57 63 67 64 59 49 43 40 38 38 41 46 49 52 51 48 45 42 37 32
90 99 90 92 77 85 68 46 56 42 51 46 34 31 29 27 25 26 25 32 39 42 47 51 57 61 62 63 56 51 46 42 40 42 48 52 54 52 50 48 44 40 31 22
89 99 94 88 87 85 86 79 54 38 37 40 36 31 21 22 23 26 25 32 39 43 47 52 56 61 63 62 54 52 49 44 43 48 55 56 55 54 50 46 39 30 17 10
82 93 100 79 51 49 55 72 47 49 49 38 37 32 21 22 26 25 25 31 38 44 47 51 56 63 64 63 58 55 52 47 47 55 58 58 57 52 48 40 30 18 9 8
61 59 100 95 65 62 72 52 46 42 37 40 38 33 21 25 28 27 27 31 40 46 48 51 58 63 62 62 59 57 54 49 53 60 61 60 55 51 44 34 20 10 8 8
53 48 47 52 44 62 79 65 46 45 49 40 36 30 26 27 30 30 30 34 40 45 50 51 59 61 59 59 58 54 53 52 59 63 63 58 55 48 36 23 12 9 9 13
51 49 37 32 32 41 48 51 52 51 44 42 33 32 25 22 25 28 31 35 39 44 50 52 59 60 59 59 56 52 53 56 64 65 62 59 51 40 24 12 9 10 14 23
48 53 40 44 39 35 38 38 40 43 42 40 34 33 22 21 22 26 30 33 36 42 48 52 60 61 61 59 56 54 56 62 67 66 63 55 45 27 12 10 10 15 22 29
57 55 46 46 39 43 50 38 36 37 34 34 38 31 25 26 26 28 29 32 34 37 44 54 60 64 64 60 58 58 58 66 68 66 58 47 34 17 11 11 15 22 30 38
54 53 46 52 43 68 33 31 30 32 31 30 30 28 26 26 28 30 33 36 37 43 48 54 62 69 67 62 61 56 59 69 69 62 49 38 22 12 12 16 22 28 36 40
45 57 61 59 58 46 33 34 34 35 36 28 28 26 27 35 44 49 51 45 50 53 56 64 69 73 68 65 62 62 68 71 66 51 39 26 14 12 15 19 23 34 40 40
64 52 69 67 60 57 36 35 30 29 42 24 27 28 33 42 44 44 60 62 56 54 62 68 73 70 70 66 65 67 69 69 56 44 33 19 13 15 18 21 34 39 39 36
82 93 96 92 70 54 33 34 33 40 44 36 32 31 39 41 43 57 58 57 52 51 52 60 68 72 65 67 67 67 72 62 47 39 28 14 15 18 20 34 38 34 32 38
71 83 90 78 84 84 38 42 40 47 45 39 39 41 45 58 60 61 59 51 52 50 59 68 69 66 66 68 71 74 69 50 47 41 17 16 17 20 33 38 35 31 43 47
60 46 45 43 53 49 46 48 50 48 47 47 48 53 55 58 63 59 55 54 55 59 63 68 67 67 69 73 77 75 63 55 51 18 17 18 18 32 39 38 36 44 48 47
42 44 40 40 47 48 48 56 54 49 51 53 55 55 54 60 64 64 60 57 58 61 66 70 71 72 76 79 80 66 63 60 19 18 18 20 31 38 40 44 49 48 49 56
43 46 45 47 56 56 56 55 57 57 58 57 56 56 57 54 63 59 63 65 66 65 69 74 76 71 77 82 74 62 59 21 18 19 19 29 40 42 44 49 47 50 56 67
47 41 46 40 43 41 46 55 60 60 60 52 49 54 57 55 49 53 58 62 67 70 73 79 80 81 82 75 65 54 21 19 18 19 29 41 43 48 51 49 47 53 62 69

GFSCGP_850_rhum_018.txt.gz
RH
54 74 87 79 71 67 58 58 66 49 39 45 43 38 36 30 28 28 25 22 24 30 38 43 48 52 63 68 71 67 68 74 79 86 91 92 89 77 72 68 58 45 40 32
64 83 58 51 56 66 69 73 69 53 39 39 41 41 35 31 29 26 24 23 23 34 41 46 46 51 63 76 78 78 79 82 87 89 84 71 66 66 53 45 40 32 31 35
72 61 53 49 55 64 60 83 74 79 49 36 41 46 39 31 26 24 24 25 24 34 42 45 46 49 58 68 72 78 78 73 73 68 63 62 50 47 43 34 32 35 37 36
58 47 48 59 60 56 72 55 68 67 85 78 42 66 42 35 34 31 28 22 31 36 40 44 49 53 53 51 47 48 50 50 52 50 48 46 44 39 35 36 38 38 37 38
76 62 62 72 74 68 72 61 75 77 87 75 62 62 47 32 38 34 29 24 33 34 39 44 51 54 51 49 45 44 44 47 53 54 50 40 33 33 36 40 39 41 41 41
59 55 60 58 64 68 63 70 91 89 78 92 62 62 49 37 32 30 27 26 33 36 40 47 56 60 54 51 46 43 42 40 39 36 34 33 33 37 41 41 44 43 43 42
73 93 68 69 83 67 72 84 100 100 99 79 44 53 45 24 24 25 28 31 35 38 44 53 60 62 55 50 47 43 38 36 34 33 33 35 39 42 44 47 47 46 45 44
84 80 87 72 85 85 80 97 100 96 92 61 39 54 42 27 23 24 27 33 37 41 48 55 62 62 56 50 48 42 39 36 35 35 36 40 42 45 48 49 48 48 46 43
98 95 70 55 68 81 87 99 83 70 38 52 50 35 28 29 29 31 33 37 40 43 50 55 60 64 59 54 50 45 41 38 37 38 40 43 46 49 50 51 50 48 44 39
87 99 80 77 75 82 97 75 94 69 59 65 54 47 43 37 37 30 38 40 41 43 50 54 60 65 63 59 55 49 44 40 39 40 43 47 50 52 52 51 49 45 38 28
91 99 96 96 91 92 95 96 86 57 49 60 59 46 33 32 32 34 35 38 42 44 50 53 60 64 63 61 57 53 47 44 42 44 48 51 54 55 53 52 48 41 29 18
88 100 100 96 79 67 80 75 65 58 58 56 50 45 28 31 29 32 29 37 41 43 49 54 59 62 62 60 59 54 50 46 45 48 52 55 57 56 54 51 43 31 20 12
91 99 100 100 95 89 90 75 68 66 53 58 49 47 31 36 33 27 30 37 42 44 48 54 58 62 62 62 59 56 53 50 48 53 56 59 59 58 54 45 33 20 11 9
80 78 98 100 72 81 85 81 72 66 66 52 45 40 37 39 38 34 30 35 42 46 49 53 59 62 62 62 59 57 54 52 51 56 60 61 60 56 51 38 22 11 10 12
82 94 92 89 62 61 65 68 64 58 54 54 39 37 33 37 40 36 32 38 44 47 49 52 59 62 61 61 58 54 53 54 55 60 62 62 60 54 44 29 14 10 13 16
68 82 62 48 48 55 65 60 60 55 49 48 49 47 26 27 29 33 33 37 43 46 50 52 59 61 59 59 57 53 52 54 58 63 64 63 58 49 34 17 12 14 16 21
64 66 61 55 41 46 54 53 52 50 48 47 56 42 31 30 32 34 32 36 41 44 50 52 58 60 59 59 57 54 54 56 62 65 65 60 52 42 24 13 14 16 21 30
67 69 66 58 47 70 39 34 34 38 38 40 38 35 31 34 38 36 31 33 36 41 46 52 58 62 62 60 58 57 57 58 64 66 62 53 46 30 14 14 14 19 30 32
53 63 83 69 67 50 40 35 37 42 43 34 36 36 44 44 42 52 45 39 43 45 48 54 60 65 65 62 60 59 55 61 67 65 53 46 29 16 14 14 17 30 34 30
59 66 82 90 77 69 44 36 32 33 53 42 38 36 50 44 63 67 53 51 53 56 59 63 67 70 67 63 61 61 63 67 67 56 47 39 20 15 14 15 28 35 34 29
84 84 91 86 90 72 39 34 32 50 52 44 36 38 48 64 57 58 60 60 59 63 66 67 68 66 66 66 65 64 64 68 59 49 46 24 16 14 15 26 36 37 34 31
86 95 96 96 99 92 38 41 45 53 43 40 42 46 64 63 63 64 63 61 56 55 63 65 64 66 67 65 63 64 70 65 52 53 28 16 14 15 28 39 41 35 32 33
75 66 73 79 80 51 46 52 48 47 45 50 54 55 55 61 62 59 60 56 57 59 62 64 62 64 64 65 68 74 72 59 58 31 16 14 17 30 41 42 37 34 34 38
46 44 52 47 53 54 52 52 50 48 50 53 53 55 54 58 57 57 56 56 56 59 60 61 63 66 68 73 77 76 62 61 34 17 14 18 31 42 42 38 34 37 40 49
50 52 54 56 58 56 53 52 52 52 54 55 55 54 54 52 57 52 54 53 53 56 64 67 69 70 74 79 79 64 61 41 18 15 19 31 42 43 41 36 36 40 43 59
52 49 56 56 47 46 54 55 55 55 56 56 54 59 58 50 58 60 66 67 65 67 70 74 70 71 75 80 70 64 43 18 16 20 29 41 44 44 40 38 36 34 43 64

GFSCGP_850_rhum_021.txt.gz
RH
61 84 88 82 77 67 72 79 82 66 53 58 57 56 49 41 34 37 30 24 28 33 36 38 39 48 58 58 56 63 58 64 71 83 85 85 88 91 92 92 73 49 38 31
76 87 65 62 68 78 77 87 86 67 58 61 56 58 45 40 38 34 31 29 32 42 40 41 47 60 70 74 74 73 73 78 80 83 86 86 88 86 72 54 39 32 35 36
83 65 54 59 66 75 79 87 80 73 62 60 68 67 52 41 35 32 30 27 31 36 40 46 50 62 77 78 81 82 82 82 81 82 85 79 70 56 42 34 33 36 37 38
76 59 59 69 72 64 80 58 60 61 75 86 69 87 64 46 40 37 31 30 34 42 42 46 48 59 74 83 85 84 86 89 86 75 62 54 43 39 34 34 37 38 40 41
81 66 68 67 64 60 68 56 64 62 77 84 85 96 69 45 42 36 34 36 37 40 40 45 46 50 65 70 82 84 76 69 61 49 42 41 38 34 36 39 39 42 43 44
73 54 58 58 50 57 61 68 69 78 81 96 84 95 68 53 40 36 34 40 44 45 45 49 50 50 56 59 58 55 49 50 51 50 50 37 33 35 40 41 44 45 46 46
93 81 72 73 85 72 81 85 92 93 95 89 65 85 75 37 34 36 36 44 45 44 49 53 52 54 56 57 54 52 52 52 53 46 36 34 36 40 42 46 47 47 48 47
96 93 81 73 76 79 89 78 80 90 78 68 77 97 63 38 32 29 36 43 46 52 52 52 53 55 56 53 48 44 43 39 38 36 35 38 41 44 47 48 49 49 48 45
97 93 68 60 59 60 86 95 59 95 96 83 90 52 32 34 41 43 45 47 53 56 54 54 56 55 55 51 45 40 38 36 36 36 38 41 44 48 50 50 50 50 47 41
83 94 60 68 78 69 72 59 90 100 98 98 75 53 50 41 45 46 48 49 55 58 56 57 58 57 57 50 46 43 40 37 37 39 42 45 48 50 52 52 52 51 45 34
76 99 83 76 97 82 94 99 75 83 86 85 78 59 38 38 38 46 48 48 54 56 55 58 61 62 58 54 50 46 42 40 40 42 45 48 51 53 54 54 54 49 38 26
85 100 98 86 85 62 63 84 72 86 94 74 60 51 35 38 37 41 45 49 52 52 55 58 62 66 63 58 54 49 46 43 43 45 48 51 54 56 57 57 54 42 26 14
91 99 96 100 95 81 87 83 87 95 90 67 61 52 40 40 39 36 47 50 53 53 54 58 64 66 64 61 58 54 50 46 45 47 51 55 58 59 59 56 45 30 17 11
79 98 99 98 92 86 89 85 90 98 89 66 62 52 45 40 39 45 47 48 50 51 54 60 64 64 62 61 58 56 52 49 48 50 54 58 60 61 59 50 36 20 13 12
88 100 99 94 90 85 76 79 82 84 72 69 48 45 47 44 42 44 48 51 52 55 58 59 61 62 62 62 60 58 55 53 50 53 58 61 62 61 54 45 29 14 13 15
86 99 91 77 71 79 83 77 65 68 55 53 51 51 31 40 37 42 50 51 53 57 59 60 59 61 62 61 61 58 55 52 52 56 60 63 62 56 51 39 18 13 14 24
76 87 91 70 73 73 88 70 68 62 53 50 57 47 38 43 42 43 49 50 52 53 54 56 58 60 60 61 60 57 54 53 53 59 63 63 57 52 40 21 14 13 22 31
70 78 76 68 57 71 43 44 54 58 52 53 45 40 37 48 56 41 41 43 47 48 51 52 56 59 60 60 59 56 53 53 56 63 64 58 52 47 29 15 13 22 33 33
63 75 80 80 78 56 45 39 40 49 49 43 50 44 53 52 46 57 42 39 42 46 49 51 55 60 60 60 58 56 55 56 61 64 61 54 51 35 15 13 21 34 36 30
64 66 80 94 81 71 45 39 35 36 56 50 42 51 53 48 57 70 59 47 45 47 52 55 60 62 61 60 59 59 57 58 65 63 54 53 38 16 13 22 36 38 34 28
84 83 91 89 96 80 48 38 37 45 48 51 48 48 52 58 55 64 62 55 53 55 58 61 64 65 64 63 62 60 61 65 64 55 54 40 17 14 23 37 40 36 31 30
86 93 95 93 98 90 41 38 38 51 48 58 62 58 69 71 68 67 64 66 66 66 69 69 69 68 65 63 64 64 64 67 60 57 44 17 15 24 39 41 40 34 33 35
84 76 88 78 72 54 51 50 49 47 50 61 57 61 54 66 67 63 64 60 58 57 59 63 62 65 65 63 62 66 71 66 61 44 17 15 24 39 42 42 39 35 36 35
64 57 68 62 56 54 53 50 50 48 48 54 54 56 56 61 60 56 55 55 55 55 57 60 61 62 62 62 68 74 67 62 48 18 16 23 36 41 44 43 38 37 34 32
59 56 59 61 62 56 54 50 53 54 54 56 56 53 52 48 53 50 53 55 57 58 60 61 62 65 68 73 76 70 62 49 19 17 22 31 38 44 46 41 38 36 31 57
57 55 61 63 52 47 53 54 55 54 56 55 51 54 51 42 45 48 52 54 56 60 64 66 68 69 74 78 74 64 49 20 18 21 27 33 41 48 45 40 35 23 28 37

GFSCGP_850_rhum_024.txt.gz
RH
66 85 85 74 84 78 73 77 87 77 62 72 68 61 51 47 49 47 41 36 35 31 34 34 34 32 34 40 42 44 42 44 58 72 84 83 82 83 84 90 93 85 60 36
80 88 69 66 71 84 85 88 84 70 56 62 68 72 60 50 45 43 43 40 35 30 37 39 36 34 41 43 49 48 45 42 63 74 85 85 86 84 90 94 71 38 34 35
88 64 58 68 75 84 87 91 79 77 67 56 57 61 60 52 48 43 40 38 36 32 36 39 40 42 52 56 64 66 64 72 79 84 87 87 91 92 85 54 35 35 36 38
74 65 64 72 77 74 90 69 73 74 75 90 70 80 62 55 52 48 42 39 36 37 36 41 48 54 61 65 74 79 81 85 87 88 88 86 84 75 47 35 35 37 40 42
92 80 77 76 72 60 74 56 63 71 82 80 72 86 68 57 57 50 43 38 35 37 36 42 49 57 73 71 78 83 82 83 85 84 78 71 59 42 35 35 38 41 43 45
74 62 62 63 54 59 65 69 70 73 84 92 65 78 68 66 59 46 42 38 37 45 45 50 60 72 82 83 85 87 90 90 85 67 54 42 37 34 34 38 41 44 46 47
99 96 73 67 68 63 63 79 92 100 96 80 51 72 60 58 54 42 38 42 39 51 49 56 65 70 77 85 87 85 84 76 56 47 44 40 34 36 39 41 45 47 48 48
98 97 96 75 67 76 79 77 91 91 97 62 67 81 63 50 40 36 37 34 47 57 51 55 57 63 68 69 73 65 57 50 53 52 44 36 37 40 43 46 48 49 49 47
96 94 66 64 62 60 88 94 61 79 76 96 86 77 57 54 44 45 44 53 60 67 61 57 57 58 62 61 58 55 54 54 55 46 38 39 41 43 47 49 50 51 50 45
76 97 75 69 70 69 70 64 93 94 98 83 78 91 62 50 48 56 56 58 66 75 72 61 60 57 59 57 56 55 51 46 43 40 39 41 44 48 50 51 52 53 49 40
77 88 89 85 97 75 94 98 85 66 77 95 78 76 43 38 42 57 60 60 71 77 68 62 61 59 55 52 49 46 42 39 39 40 41 44 48 50 53 54 55 53 44 31
67 96 95 76 58 71 94 83 79 78 71 96 98 71 39 42 45 48 55 60 70 72 66 62 62 59 56 52 47 44 41 40 40 42 44 48 51 54 56 57 56 48 35 22
92 100 97 86 86 83 100 78 92 64 74 71 99 72 45 50 51 50 55 63 69 72 68 64 64 62 57 52 50 47 44 42 42 44 47 51 54 57 59 58 52 43 28 16
87 99 92 94 99 87 88 81 70 84 96 73 89 74 46 48 48 60 58 63 66 64 63 65 67 64 58 56 54 52 48 45 44 46 50 54 57 60 60 56 49 34 18 14
92 100 99 95 90 97 83 76 80 98 84 98 74 63 58 45 46 56 57 63 67 70 70 66 66 67 63 60 59 56 52 48 46 47 52 56 60 61 58 52 39 21 14 14
89 100 100 98 90 95 98 90 81 93 92 97 93 59 37 45 47 60 60 62 65 68 68 65 64 65 65 63 62 58 54 50 50 50 54 59 62 59 53 45 29 16 14 24
93 100 100 100 85 90 100 90 96 92 88 91 76 44 44 45 46 62 60 58 60 62 62 62 61 62 64 64 62 60 56 53 52 52 57 62 60 54 48 35 18 13 23 34
78 82 90 91 89 79 45 52 62 70 59 52 47 43 42 46 57 49 54 53 55 57 59 60 60 62 63 64 63 60 56 54 53 54 60 62 55 50 44 20 14 24 35 34
65 77 90 97 92 61 44 44 50 63 60 46 55 50 57 56 48 56 48 51 50 52 54 55 56 59 62 63 62 59 55 53 53 58 62 58 54 48 23 14 25 38 38 33
72 70 83 96 90 74 47 41 37 38 62 48 44 59 60 54 58 63 52 49 51 53 53 54 58 60 62 63 60 57 55 54 56 63 61 55 51 26 14 24 39 40 38 33
88 88 90 89 96 80 58 42 40 49 49 51 53 53 54 54 57 63 63 56 52 53 54 58 60 61 62 61 57 56 57 56 63 63 54 53 28 14 24 39 42 41 37 33
85 90 94 93 96 87 47 38 37 46 60 64 66 62 62 73 70 66 63 60 59 58 61 62 62 62 60 58 58 59 58 64 63 57 56 29 15 23 38 42 44 41 36 33
90 79 91 80 79 59 52 50 52 48 54 62 65 63 54 72 70 66 66 65 64 64 65 64 64 63 61 61 61 64 65 67 62 58 27 16 22 37 42 46 45 39 34 26
75 67 78 70 59 56 52 52 50 48 48 54 58 61 60 65 69 70 70 70 70 70 69 68 66 64 63 61 61 68 72 65 60 30 16 20 33 40 46 48 43 37 28 22
76 65 64 67 59 56 54 52 51 53 53 56 61 59 60 60 64 59 60 60 60 60 60 60 60 61 61 62 70 73 66 60 31 17 20 29 37 43 48 47 40 33 24 32
61 64 68 73 52 49 52 54 54 53 57 57 55 60 56 48 48 50 51 51 52 55 58 60 62 65 68 73 75 67 58 29 18 20 28 32 38 47 49 42 35 23 26 29

GFSCGP_850_rhum_027.txt.gz
RH
69 84 88 80 85 82 88 86 84 79 64 72 75 72 65 56 52 50 52 46 44 40 35 33 32 34 35 33 34 45 55 65 65 74 80 84 73 88 91 92 90 88 91 80
82 89 75 66 70 79 89 96 86 75 64 64 69 69 56 50 49 54 49 47 43 41 38 35 33 35 36 34 36 42 47 56 64 69 77 79 78 80 81 89 91 88 52 35
88 65 61 69 76 84 86 87 69 71 60 63 72 64 45 38 41 48 52 47 42 40 36 36 33 35 37 37 39 41 46 48 51 72 80 84 76 82 79 83 89 53 35 36
86 69 70 72 78 79 88 72 76 80 86 88 70 81 51 46 46 45 46 48 46 43 40 37 34 37 39 44 47 52 54 50 61 85 82 80 76 77 80 83 54 35 37 40
88 94 82 78 72 67 73 61 77 78 85 87 75 95 67 51 48 47 59 49 43 39 40 37 35 38 44 52 56 69 67 69 81 87 85 86 86 87 84 53 35 37 40 43
76 70 73 75 60 62 62 69 74 76 88 97 67 80 56 40 42 55 54 45 44 40 38 39 38 50 54 62 69 82 86 91 92 92 91 90 89 81 56 36 37 41 43 46
98 95 80 69 75 62 68 91 97 97 96 83 56 71 55 41 49 53 51 44 40 39 45 43 45 65 65 66 75 86 88 90 91 90 82 77 67 47 35 36 40 44 47 48
98 99 95 86 71 78 86 87 95 90 92 84 49 71 49 39 32 29 28 35 39 42 49 45 46 61 67 70 79 88 91 89 88 77 62 50 40 36 38 40 44 48 49 49
98 95 84 83 66 73 99 98 72 87 68 89 80 67 56 36 55 56 49 43 40 51 58 54 58 67 74 77 83 88 91 89 78 54 47 42 38 40 41 45 48 50 51 50
80 95 76 79 68 76 83 65 95 98 96 91 60 68 73 52 40 30 42 55 54 62 68 69 69 70 77 81 86 85 83 73 54 54 48 39 40 42 46 49 51 52 53 47
71 87 84 88 92 87 93 96 90 75 84 90 75 48 29 42 37 39 58 61 68 75 76 77 76 72 68 74 76 71 64 59 60 54 43 41 42 47 50 52 54 55 50 40
72 92 97 74 70 59 63 71 77 81 88 76 71 65 45 52 49 49 67 72 80 85 85 77 69 66 66 66 64 62 60 56 52 46 42 43 46 50 52 55 57 53 44 33
80 99 97 95 84 82 100 95 86 71 70 80 83 54 52 40 60 55 73 80 87 88 82 71 64 65 64 63 61 58 54 49 44 42 44 47 50 53 56 58 55 48 38 25
75 100 96 89 84 99 99 94 93 96 95 76 69 51 37 32 49 68 73 84 89 86 76 67 64 63 60 58 54 49 45 43 42 43 46 49 53 56 58 57 52 44 30 19
91 100 99 93 81 80 100 98 91 97 78 86 56 54 45 46 64 65 72 82 86 84 77 69 65 62 59 55 51 47 44 43 43 44 48 52 56 58 58 54 48 37 24 16
94 100 100 96 85 94 96 96 87 80 76 78 76 75 45 61 56 67 72 76 81 84 79 70 66 63 60 56 53 50 47 45 44 46 49 53 58 60 56 52 43 30 17 18
98 100 100 93 96 95 100 94 95 83 73 80 97 78 63 54 54 64 70 69 73 75 70 67 64 63 60 58 56 54 51 48 47 47 50 55 59 58 53 46 36 18 18 34
96 100 100 100 100 98 86 86 82 92 86 84 84 77 70 53 57 60 61 63 66 68 68 67 66 67 64 62 60 58 54 51 50 50 52 57 59 54 50 43 20 17 34 38
78 82 98 100 98 68 48 68 94 97 93 82 87 74 60 62 52 62 58 57 57 57 58 58 60 62 66 65 63 59 55 54 51 52 55 59 56 53 45 21 17 34 39 39
80 81 92 92 100 81 50 44 40 63 65 56 70 63 65 56 49 54 57 56 56 57 57 56 60 64 66 66 64 60 56 53 52 52 58 59 54 46 26 16 34 40 41 41
95 94 95 90 94 83 58 56 42 52 50 54 54 55 60 53 67 64 60 60 58 57 57 60 62 63 66 66 63 59 55 52 53 58 60 53 49 30 16 32 40 42 43 40
88 89 86 93 94 77 55 44 42 47 59 65 67 61 71 73 77 71 65 63 63 60 63 64 63 66 66 64 60 56 54 55 58 60 54 52 29 17 29 38 41 45 43 38
88 77 86 83 79 61 54 54 55 53 58 64 69 69 54 69 71 70 70 68 67 64 65 66 64 66 63 58 56 57 57 60 62 56 53 28 17 27 36 40 45 46 41 29
79 74 82 74 61 62 53 53 52 53 55 63 66 67 59 64 69 69 68 68 67 67 66 65 64 60 56 57 59 61 64 63 58 54 27 17 25 34 38 45 48 44 34 24
80 74 74 74 63 56 53 52 53 55 57 61 70 68 65 63 67 65 66 66 65 64 64 63 63 62 61 60 61 65 67 62 56 28 18 24 30 33 41 48 46 38 26 26
66 73 74 75 55 49 51 52 54 54 60 60 61 70 69 63 66 67 68 67 65 64 64 63 62 63 60 62 69 69 62 53 25 18 23 28 30 39 49 47 40 28 25 22

GFSCGP_850_rhum_030.txt.gz
RH
71 85 94 86 79 67 77 93 90 75 66 76 75 69 58 50 55 60 56 54 51 44 43 41 38 36 32 33 32 30 33 36 51 69 78 88 90 88 90 95 95 95 89 85
84 94 76 68 73 83 85 87 77 70 65 71 71 68 56 52 52 51 56 54 55 46 39 39 39 39 33 36 33 31 32 45 59 73 78 84 92 90 89 94 96 96 91 79
90 67 65 73 80 85 88 91 84 78 62 63 70 66 44 35 37 41 40 43 45 50 47 39 37 38 36 35 33 32 35 52 68 79 83 91 91 88 87 92 96 88 69 38
93 72 72 78 83 82 89 74 76 80 88 92 72 82 51 41 41 41 37 41 48 42 42 42 40 38 37 36 37 38 40 50 63 80 86 85 83 76 85 79 74 76 43 36
83 90 92 90 76 74 76 69 79 83 95 98 85 92 66 48 48 44 50 45 41 36 30 33 38 36 36 38 38 42 45 54 57 72 90 88 84 77 70 76 77 49 37 40
74 74 75 77 65 62 64 74 76 92 97 95 69 82 58 44 36 33 48 37 36 38 40 40 38 38 38 43 46 51 51 58 59 73 91 82 79 74 73 74 57 37 40 43
92 92 77 73 82 69 82 100 97 98 97 86 64 79 55 38 34 41 43 40 38 39 38 42 42 39 42 47 50 61 65 66 73 90 82 82 82 83 83 72 40 39 42 46
97 90 87 79 73 79 82 88 95 92 86 85 59 76 49 39 35 31 31 30 31 42 42 43 42 41 42 49 54 69 80 84 90 88 87 91 93 87 62 39 39 43 47 48
99 93 82 83 73 64 98 98 72 97 96 96 80 67 52 46 44 48 49 35 32 30 29 42 46 46 49 54 59 70 88 94 95 94 94 86 70 49 38 39 43 47 49 50
80 95 78 80 83 75 81 79 97 98 96 94 76 68 56 45 30 30 38 32 28 36 43 46 53 56 60 68 72 85 92 94 94 89 74 58 44 40 40 43 47 50 52 52
76 92 84 86 97 84 97 96 100 89 95 92 72 51 32 29 26 43 50 37 31 34 38 50 64 67 70 80 86 92 95 94 87 69 53 45 40 41 44 48 51 53 53 50
70 95 96 76 63 62 68 77 78 84 88 86 82 55 32 43 55 58 61 58 50 51 65 73 77 83 86 85 91 94 92 88 72 56 50 42 41 44 48 52 54 55 52 48
77 98 98 88 84 68 99 86 72 69 63 82 88 54 31 31 35 58 72 82 90 88 90 86 81 88 89 87 87 86 81 71 61 55 46 43 45 48 52 54 56 54 51 48
69 95 88 84 70 99 100 88 96 98 96 80 87 59 44 40 39 50 70 88 96 92 88 86 83 85 84 82 80 75 68 63 58 48 44 45 48 51 55 57 56 54 50 41
83 100 97 92 80 91 100 99 96 98 89 97 64 61 49 40 49 64 66 92 99 96 88 84 78 74 71 69 66 62 59 54 48 44 45 48 51 54 57 57 56 52 44 32
90 99 100 97 86 99 97 94 98 96 92 96 78 77 59 60 66 66 76 94 97 96 88 81 74 69 66 64 61 57 52 47 44 44 47 50 54 57 58 56 53 46 35 20
98 100 100 89 90 100 100 98 96 95 94 88 97 68 55 76 78 66 80 87 91 92 84 77 69 65 63 60 55 50 45 43 43 45 48 52 55 58 56 53 47 38 22 22
98 100 100 98 99 98 89 91 88 92 81 70 68 64 69 73 70 68 66 76 81 85 83 74 66 63 60 56 52 48 46 44 45 46 49 52 56 57 54 49 41 25 22 34
84 96 100 100 96 89 66 90 91 97 87 77 71 69 66 72 67 64 67 68 67 77 74 67 66 63 61 57 54 51 49 47 46 48 50 54 56 55 50 42 28 21 34 38
78 81 98 99 98 97 58 56 68 74 69 78 76 73 77 76 84 66 67 66 67 67 67 66 67 65 62 60 58 55 52 48 48 49 52 55 54 49 44 30 21 33 38 41
98 98 99 91 93 82 60 61 55 60 58 56 76 78 78 79 72 72 68 63 63 64 64 66 66 65 66 64 61 57 53 51 50 51 54 54 49 46 33 21 34 38 40 43
87 95 90 86 96 76 57 51 48 52 57 62 63 62 66 61 68 85 77 72 69 67 69 68 68 70 69 66 61 57 53 51 50 53 53 50 50 34 20 32 36 39 44 44
90 80 79 84 84 60 59 57 58 60 63 68 72 69 58 69 81 79 77 74 71 68 69 71 69 70 68 64 59 56 53 52 53 55 53 52 30 20 30 34 37 44 46 40
78 78 84 78 62 64 58 56 57 60 68 74 70 67 67 71 74 75 75 74 72 72 71 72 70 68 63 57 55 55 54 55 57 56 52 27 20 28 32 35 42 46 42 26
80 77 77 79 70 62 55 57 57 61 70 72 72 68 68 65 70 71 72 72 71 71 70 69 66 61 54 53 55 57 59 59 61 50 26 21 28 30 32 41 47 44 27 24
75 76 78 76 60 54 55 60 59 58 64 69 65 69 68 66 66 68 68 68 67 65 63 60 57 57 56 58 61 62 62 59 43 22 21 26 28 30 39 48 44 27 21 21

GFSCGP_850_rhum_033.txt.gz
RH
70 83 92 80 79 70 78 86 79 67 59 70 65 64 56 50 51 51 50 49 47 42 39 42 44 42 40 38 35 32 31 31 31 34 55 79 84 91 89 92 91 96 96 91
86 90 72 71 80 83 79 84 69 56 53 65 66 66 51 48 46 44 44 45 46 33 38 36 39 42 42 40 35 33 34 37 35 41 51 74 83 90 92 94 98 98 93 96
88 69 67 71 79 83 85 88 82 79 63 59 63 59 37 32 35 38 42 44 44 43 36 32 35 35 38 39 37 35 36 39 39 43 60 83 94 99 100 100 99 98 96 87
91 74 73 83 85 78 90 73 73 77 82 86 69 67 38 34 33 32 35 38 41 38 39 24 29 36 37 37 38 36 38 38 44 57 73 81 86 92 97 96 98 97 86 54
78 88 93 84 74 75 75 67 74 77 89 87 76 84 49 47 47 40 34 32 30 30 32 28 24 34 36 36 38 37 39 45 50 68 85 91 96 92 93 95 93 79 64 45
76 72 75 78 71 67 64 76 78 83 88 96 65 81 55 42 36 34 32 29 26 25 29 34 34 31 38 39 40 42 43 50 56 76 93 94 94 90 91 86 81 71 58 40
84 84 74 70 80 73 72 100 95 96 98 83 58 80 57 39 34 36 33 30 23 23 32 35 43 44 39 42 39 44 46 53 61 77 94 96 95 89 81 73 73 64 44 41
96 87 87 76 75 82 86 87 91 92 82 70 62 78 50 40 34 31 29 30 29 31 29 37 41 40 44 41 41 44 47 58 64 79 93 96 94 87 78 73 61 47 41 45
96 85 78 81 76 66 97 97 72 89 79 95 69 55 43 40 43 39 38 31 33 28 28 33 28 45 46 44 42 44 52 63 66 80 92 94 92 90 80 59 42 41 44 47
81 97 74 79 79 77 87 72 96 98 96 86 72 72 53 43 31 24 31 51 47 39 36 32 32 40 46 50 53 60 67 71 80 88 88 93 94 71 59 44 41 45 48 50
72 87 79 90 93 79 91 95 99 89 88 81 66 48 36 31 28 32 55 55 50 39 42 38 35 44 49 57 71 79 85 89 89 84 92 89 69 51 40 41 45 48 50 52
75 85 97 85 66 66 63 72 76 96 80 92 87 63 29 35 42 54 44 54 54 58 56 58 57 60 66 79 91 93 96 94 91 90 82 64 49 41 42 46 49 51 53 52
76 96 97 79 79 71 87 72 70 89 85 94 91 53 31 35 39 38 52 56 64 74 81 83 84 87 87 94 99 100 97 92 88 74 58 46 41 42 46 50 52 54 53 52
65 88 86 80 61 83 99 89 83 98 96 78 88 61 42 39 42 40 47 58 80 88 91 92 92 92 97 98 100 98 93 85 74 54 46 43 43 46 50 53 55 53 52 49
81 100 88 84 76 75 96 96 97 98 88 96 67 88 64 51 47 53 65 72 96 98 92 90 91 94 98 99 97 92 84 72 56 49 44 44 46 50 53 55 54 52 50 44
81 100 100 96 85 82 99 95 96 97 94 97 90 88 54 49 59 66 72 77 98 100 92 87 88 92 91 91 88 79 69 59 52 47 44 46 49 53 55 54 53 51 45 35
98 100 100 90 73 89 100 99 97 98 96 84 96 68 56 56 57 71 69 82 95 100 91 85 85 88 85 83 80 70 62 54 47 45 46 49 52 54 55 53 51 45 37 28
92 100 100 97 97 98 91 87 86 91 96 88 80 74 60 57 64 74 73 73 93 96 89 82 80 76 72 69 64 59 53 47 45 46 48 51 54 55 54 50 45 40 30 30
78 90 100 100 96 74 59 65 82 97 86 76 86 70 58 78 78 69 77 77 82 88 84 78 74 69 65 61 57 53 46 44 45 47 50 52 54 54 51 47 42 30 29 36
84 80 98 94 99 97 64 63 69 73 71 78 75 72 78 76 85 76 82 78 82 83 76 71 70 66 62 56 50 45 44 44 46 48 50 52 53 50 49 46 32 28 35 37
98 95 97 97 100 81 59 65 65 60 64 72 83 76 77 86 82 84 84 83 82 78 74 71 68 63 58 53 48 46 45 46 47 49 52 52 51 50 46 32 27 34 36 40
86 92 98 93 91 89 62 56 57 58 60 63 64 66 80 88 80 73 78 82 81 78 76 73 69 64 58 54 50 49 47 47 49 51 52 53 52 49 32 26 33 34 39 44
92 83 76 75 78 63 63 60 60 66 72 72 75 68 64 71 74 80 83 83 84 79 78 75 69 65 59 54 52 52 50 50 51 52 55 54 51 28 26 31 33 38 44 42
78 78 86 77 61 68 56 58 60 67 75 79 74 68 64 65 78 80 82 83 82 80 78 75 70 65 59 54 53 54 51 51 54 58 57 48 25 25 29 31 37 46 41 24
80 81 80 81 72 64 60 60 60 67 74 70 72 68 68 68 75 78 79 79 78 78 76 72 68 63 56 52 52 52 54 57 58 57 42 23 24 28 30 37 46 40 23 20
82 78 79 74 60 57 58 64 65 66 68 67 62 69 72 71 74 74 75 75 74 73 71 67 62 57 51 52 55 56 58 58 57 36 22 24 27 30 40 48 37 21 18 19

GFSCGP_850_rhum_036.txt.gz
RH
65 69 70 54 51 45 53 54 55 46 42 45 46 44 38 35 36 35 34 34 34 35 37 40 43 43 44 42 33 36 34 33 33 39 78 96 99 85 82 88 96 94 88 94
69 76 49 48 52 59 59 61 58 46 40 44 43 41 32 29 29 29 28 27 25 25 27 29 37 41 45 45 43 39 36 34 32 47 62 86 91 82 78 82 98 99 94 96
63 54 52 60 62 68 64 64 55 54 45 42 43 41 27 20 20 23 27 27 27 25 24 24 25 36 41 45 46 40 36 33 35 43 75 67 73 88 96 100 99 99 99 97
63 49 57 63 63 58 62 45 54 54 59 62 50 52 33 26 24 21 21 22 25 27 29 29 27 28 34 42 41 40 38 35 40 42 45 53 64 91 99 100 100 100 100 97
65 69 74 67 60 54 60 51 54 56 61 63 58 85 37 30 31 26 22 21 21 24 27 28 31 32 35 42 34 38 39 40 40 43 47 72 93 100 99 100 100 99 98 78
52 60 58 54 52 52 54 62 62 60 73 90 52 66 41 26 24 23 20 20 20 22 26 29 31 36 38 47 37 38 40 42 43 47 57 85 93 94 98 99 98 98 89 62
65 63 57 60 66 60 64 89 75 84 93 67 34 42 43 24 24 24 20 19 22 22 24 28 38 42 49 52 39 42 44 46 46 52 73 92 94 98 96 91 96 94 76 53
79 75 65 67 68 62 78 74 69 68 44 40 43 54 31 22 22 23 22 24 26 25 28 29 37 47 54 47 34 45 48 52 52 62 83 93 99 100 97 92 92 83 59 51
84 78 59 61 58 56 82 96 58 80 66 76 47 31 24 21 23 23 23 23 28 32 30 34 33 46 56 62 43 44 51 56 60 71 86 92 90 99 97 90 83 62 49 44
67 88 57 65 66 64 66 53 87 92 78 61 39 36 33 25 25 23 22 24 32 35 35 40 40 45 55 69 59 67 69 69 70 77 86 93 88 95 89 82 64 50 44 45
63 70 68 74 83 68 82 92 94 63 61 70 51 34 20 22 20 21 19 30 33 42 46 52 49 53 70 83 88 74 77 76 77 82 85 94 91 84 87 67 49 43 45 48
55 70 83 63 43 44 43 55 61 89 70 79 73 58 27 23 21 28 29 27 37 51 65 71 67 74 87 94 93 85 84 80 79 83 90 93 89 90 77 47 43 46 48 50
58 85 83 51 69 56 74 58 52 67 76 93 93 58 35 28 28 27 28 29 34 56 74 82 85 85 88 92 90 90 88 85 87 91 88 92 89 61 42 42 46 49 50 50
56 67 68 58 53 63 99 78 76 96 96 74 77 59 40 42 38 31 32 34 46 66 80 83 85 87 88 89 87 91 92 91 90 88 92 82 57 42 42 46 49 51 50 50
64 97 72 67 60 63 80 87 93 99 93 94 62 63 62 49 55 42 41 51 61 76 84 84 84 85 88 82 92 96 95 90 90 87 70 48 42 42 46 50 51 50 50 48
71 95 100 96 71 76 99 92 96 97 96 97 91 86 49 43 45 44 43 48 67 85 85 83 82 82 77 90 96 95 90 86 75 58 51 42 43 47 50 51 50 49 48 44
79 98 98 94 76 78 94 97 96 95 93 86 97 64 45 48 50 52 67 70 73 84 87 80 79 77 77 95 96 89 85 68 56 53 44 44 48 50 51 51 50 47 44 38
84 100 100 99 91 93 70 63 73 86 79 83 64 55 54 63 66 70 79 80 77 90 84 78 77 79 87 89 84 84 67 58 54 44 46 48 50 52 51 50 47 44 39 32
62 80 100 100 93 69 54 53 62 93 94 81 80 69 66 66 68 73 90 91 92 87 80 75 87 88 80 75 72 61 50 45 45 46 48 50 52 52 51 48 45 40 32 31
73 81 99 100 96 81 51 49 59 72 96 93 91 82 78 78 66 69 93 100 95 82 76 77 80 75 74 64 59 53 47 45 46 48 50 51 51 51 50 46 40 32 31 34
98 98 97 97 98 68 45 51 61 55 62 64 88 85 81 81 77 90 97 96 97 83 78 74 69 66 63 58 52 47 44 45 47 49 51 51 50 49 46 40 30 31 33 34
73 82 97 98 90 82 54 49 56 53 60 61 64 81 95 82 89 95 95 93 86 81 75 70 66 60 55 52 46 44 44 46 48 50 51 52 51 46 38 28 30 31 34 41
72 59 64 61 54 49 59 57 62 70 69 71 74 77 95 88 93 88 89 90 90 83 81 76 66 56 48 45 44 45 46 47 49 51 52 50 47 37 27 29 31 35 42 41
63 62 65 65 50 53 54 63 66 69 79 84 78 74 74 73 80 84 86 86 82 78 72 66 59 53 48 46 46 48 48 50 51 52 51 49 34 26 28 30 35 43 39 21
56 66 65 64 52 50 61 67 70 69 70 74 70 69 70 76 81 81 82 82 80 76 71 65 59 54 50 47 48 50 50 51 53 55 50 31 26 28 29 36 45 35 18 18
61 56 60 54 51 53 54 68 69 70 68 71 69 74 77 76 77 78 79 78 77 74 69 63 58 53 49 50 51 51 52 54 58 47 27 25 27 30 39 46 28 17 18 18

GFSCGP_850_rhum_039.txt.gz
RH
54 57 58 44 40 38 36 43 40 32 30 37 37 34 29 26 27 28 29 30 29 29 30 30 33 35 33 32 35 37 37 40 45 52 64 75 80 81 92 98 99 84 83 79
67 74 43 37 39 43 47 49 45 36 32 36 36 35 27 24 24 23 24 25 26 25 24 26 28 32 35 35 37 38 37 41 47 56 64 75 81 86 92 100 98 90 85 88
62 46 42 44 50 55 51 51 45 44 37 34 36 36 25 20 19 20 22 23 23 22 22 20 21 24 30 35 35 39 39 41 50 56 72 86 87 94 100 100 100 100 83 96
51 40 47 48 54 48 55 37 40 44 51 52 40 51 30 21 20 18 18 19 20 21 22 22 21 20 21 27 35 39 41 46 55 55 71 72 53 74 91 100 100 98 95 99
59 55 53 56 49 42 49 45 48 49 54 59 51 60 36 19 22 22 19 19 19 19 19 20 22 25 23 22 33 42 46 55 64 58 76 66 70 76 82 99 100 100 100 100
47 47 48 47 44 43 47 51 57 56 65 86 46 44 34 21 15 14 15 17 18 18 19 20 23 24 26 28 31 43 54 65 77 75 55 56 82 77 80 100 98 100 99 99
61 53 47 46 56 51 53 73 72 83 88 65 27 32 32 20 18 18 18 17 18 18 20 20 20 24 29 30 33 50 65 73 75 54 67 76 94 79 86 99 98 98 98 97
74 76 53 55 61 58 60 65 66 61 37 34 29 42 28 17 16 18 19 18 18 20 20 26 27 26 36 38 39 52 71 75 67 64 82 91 96 86 96 100 99 99 96 88
69 71 47 52 49 49 64 86 54 70 55 63 39 26 21 18 17 16 16 18 20 20 23 28 29 33 30 43 48 62 74 75 71 82 88 96 91 94 100 100 98 96 89 65
63 79 49 52 51 51 55 47 80 90 82 59 33 29 26 21 19 17 18 17 20 26 28 32 37 42 31 43 54 65 73 77 78 87 92 91 92 99 100 94 92 90 63 50
57 62 64 60 72 62 68 76 67 54 60 62 52 35 23 28 27 23 18 16 23 26 34 39 47 52 39 46 62 70 75 80 84 84 79 84 95 100 99 91 88 76 60 44
52 67 80 56 39 38 42 58 58 86 59 62 78 61 29 29 27 26 27 26 25 27 30 52 61 58 52 61 75 78 80 81 82 74 74 89 91 98 95 84 81 68 50 47
52 77 78 63 57 42 56 50 47 56 80 95 93 58 30 28 30 36 36 34 25 29 33 59 65 68 69 80 84 82 80 76 74 72 80 92 90 91 81 82 69 52 45 46
49 61 67 59 62 52 89 60 57 96 97 71 70 58 44 39 42 54 42 41 39 35 47 66 72 70 73 82 82 78 74 72 72 78 87 84 79 82 86 63 49 45 47 47
56 80 60 56 51 54 65 71 73 97 96 98 80 80 63 53 46 51 57 52 45 41 54 72 76 74 76 79 77 70 68 68 76 82 82 79 77 72 62 51 45 47 48 50
68 87 96 89 63 61 83 66 73 96 96 97 95 94 60 45 44 45 47 44 40 53 73 75 77 77 80 73 67 65 67 73 80 83 81 72 67 58 50 46 49 48 50 51
73 96 94 84 62 62 86 89 91 90 81 89 93 62 45 48 52 65 75 79 72 71 83 78 77 79 68 69 72 64 70 80 83 80 64 58 54 47 47 48 50 52 52 50
72 88 96 100 72 89 56 46 53 70 82 83 69 61 58 63 69 84 89 88 78 78 83 76 76 70 68 71 68 67 78 78 71 55 57 56 54 48 49 57 53 52 51 47
55 71 99 92 76 56 46 48 56 71 91 85 92 81 71 69 77 93 100 94 89 82 75 72 67 65 68 75 73 68 60 56 55 56 61 61 56 60 52 52 52 50 45 38
54 58 99 75 93 72 42 41 50 70 74 79 89 82 79 75 81 96 100 86 76 75 75 74 68 69 82 66 62 65 66 75 77 72 56 52 50 51 52 51 49 47 47 30
91 100 99 97 96 63 38 42 50 60 58 55 89 90 81 74 76 90 100 95 89 85 93 90 88 85 87 92 89 80 70 52 48 48 50 50 51 52 50 58 72 34 30 30
71 84 98 99 100 87 45 44 57 52 54 54 67 87 84 83 92 95 93 95 77 62 59 55 52 50 49 48 48 47 46 48 49 50 51 51 52 66 74 44 30 28 29 34
65 50 84 76 62 38 43 49 53 62 61 64 68 88 94 93 89 92 95 87 78 69 68 61 58 53 51 52 58 59 54 49 49 51 57 69 66 50 39 28 27 29 35 41
50 47 58 58 46 42 44 49 63 69 71 75 78 75 85 78 83 79 79 82 79 77 74 70 64 61 56 49 45 46 49 50 65 63 55 52 50 34 26 26 28 38 41 24
49 54 51 53 44 43 53 63 67 72 71 71 71 73 75 76 78 78 74 72 69 66 60 54 52 47 45 46 47 49 52 52 52 54 54 46 30 25 25 30 42 35 20 18
47 49 47 47 49 49 53 66 70 72 71 72 73 75 76 76 76 75 72 72 67 62 58 54 49 47 46 47 49 49 50 53 57 57 40 27 24 27 37 44 26 18 19 18

GFSCGP_850_rhum_042.txt.gz
RH
64 75 84 71 62 56 45 45 46 39 30 37 42 39 34 29 28 28 28 28 28 30 30 30 28 30 26 26 28 35 36 37 37 47 64 74 80 78 77 80 78 85 90 78
64 74 48 41 39 44 46 51 53 43 34 36 40 41 34 29 28 26 26 26 27 28 28 28 29 30 31 31 29 28 36 38 39 38 49 64 76 78 76 79 87 84 98 80
66 49 42 49 47 52 54 58 54 50 41 39 42 45 36 25 26 25 24 23 23 23 24 26 26 26 28 31 33 34 33 36 38 41 46 60 75 78 81 83 87 92 97 88
61 46 42 50 53 50 62 43 44 45 54 67 46 76 41 30 27 23 21 21 22 22 22 23 23 23 22 25 30 31 35 37 38 41 51 60 73 79 81 82 88 96 100 100
60 50 54 56 48 43 51 48 51 52 62 69 60 74 49 24 27 23 22 19 19 19 19 20 21 22 21 21 23 28 30 36 39 44 52 67 71 70 59 69 90 94 98 98
50 44 46 49 42 42 47 50 56 59 68 93 66 64 59 29 23 19 20 19 19 19 18 20 20 20 22 24 22 22 33 33 41 48 58 75 67 62 65 81 98 96 100 99
62 58 46 46 53 47 49 62 94 98 93 91 34 56 44 24 20 21 19 17 18 18 18 19 20 20 22 24 25 26 26 42 43 59 70 84 74 70 57 64 79 98 99 100
76 76 56 51 58 59 60 68 94 86 77 70 43 55 38 23 20 18 17 17 17 18 18 20 22 27 28 28 28 28 29 52 53 67 75 84 91 73 60 62 76 94 99 98
67 73 45 53 49 54 64 86 58 78 64 86 56 30 24 20 20 20 19 17 18 18 19 22 28 32 35 37 33 34 33 57 68 73 80 90 90 76 78 72 98 100 99 99
66 78 51 52 46 48 54 49 85 94 96 85 50 44 37 30 36 33 28 23 21 19 25 28 34 39 39 45 36 41 42 57 75 81 88 92 93 92 88 88 99 100 100 93
53 66 66 63 75 73 68 72 64 64 73 91 80 51 32 37 36 38 35 27 26 26 27 31 36 40 39 45 37 46 51 72 78 88 91 92 94 95 88 96 99 99 92 73
49 70 87 71 48 51 53 62 64 82 74 77 92 68 33 32 33 35 35 29 28 25 28 31 51 48 45 52 48 56 63 68 82 87 92 95 94 90 95 98 96 87 72 71
55 80 92 66 60 46 61 55 56 63 77 90 92 65 33 34 36 36 41 38 38 38 37 41 50 55 63 63 65 65 74 84 87 90 93 91 83 94 96 89 82 67 67 61
48 66 80 90 73 70 84 65 56 74 98 78 76 65 51 51 58 58 58 53 54 46 43 48 53 65 69 75 77 83 87 85 84 84 78 80 89 92 84 76 72 70 59 54
56 85 70 67 58 59 67 69 67 99 96 98 85 88 78 78 71 62 50 53 57 56 53 56 70 71 71 84 86 81 80 77 76 72 78 84 83 80 78 71 62 69 62 47
59 97 96 90 65 69 80 70 70 71 76 91 96 95 64 56 47 65 85 76 72 68 54 72 71 74 75 82 77 75 74 73 71 73 73 71 70 69 69 68 52 45 52 49
74 93 95 85 71 77 89 75 75 86 84 84 98 78 60 62 66 84 94 94 90 82 75 76 76 76 77 70 70 70 67 62 61 59 61 63 68 63 55 59 70 72 59 56
75 93 97 95 89 95 63 61 58 65 63 83 84 77 79 76 95 98 100 100 98 83 82 77 78 78 74 70 68 66 60 56 55 56 55 58 58 63 65 53 48 46 47 51
63 86 97 96 85 62 52 54 56 62 78 77 86 80 81 76 97 95 94 78 85 81 76 76 76 74 69 64 59 57 56 59 55 55 60 66 71 67 68 77 62 48 51 52
62 66 98 97 97 84 49 49 54 72 91 68 88 86 89 74 92 97 96 76 74 71 70 69 65 61 58 62 67 68 63 62 68 67 68 66 75 96 88 56 51 51 65 57
98 99 99 97 96 75 47 51 57 76 79 64 81 92 79 90 96 100 96 95 77 69 65 66 65 78 71 69 71 71 81 88 90 96 100 94 72 50 50 54 84 78 34 26
87 97 98 86 95 93 46 50 66 66 60 60 69 93 89 90 94 99 92 96 96 97 96 95 90 85 93 96 94 97 100 99 92 73 51 48 51 63 89 75 37 28 27 30
70 62 82 79 77 52 44 50 59 61 66 69 68 93 99 97 100 94 80 60 57 60 62 75 84 86 85 93 79 60 52 48 48 50 51 54 68 59 41 30 25 25 32 39
56 52 67 68 55 50 52 55 63 63 70 72 75 83 91 89 91 95 92 90 77 63 56 53 50 49 50 49 52 55 52 51 50 60 67 55 50 37 26 24 28 38 38 21
62 59 64 63 55 51 57 59 65 66 66 69 71 80 75 75 81 75 70 65 63 58 64 76 73 68 61 53 49 48 51 60 66 56 54 47 33 24 24 30 40 31 19 19
56 63 65 62 52 52 60 62 66 65 67 69 72 74 75 74 76 74 69 64 57 55 55 53 47 46 47 48 50 52 52 53 58 59 44 28 23 24 35 40 22 19 19 17

GFSCGP_850_rhum_045.txt.gz
RH
88 90 97 88 80 68 64 61 57 48 39 40 48 51 46 37 35 34 33 31 29 28 30 30 29 28 27 26 25 27 32 39 53 62 66 72 84 86 76 76 77 82 83 82
68 78 65 64 66 71 67 58 61 51 39 42 46 44 37 35 34 32 31 32 28 27 27 28 29 30 30 29 26 25 27 35 44 60 62 56 69 80 79 71 78 78 78 85
78 53 50 57 58 53 56 62 62 62 51 45 52 51 44 37 33 31 29 28 28 27 26 27 27 28 29 29 30 30 30 31 39 42 49 58 62 73 74 74 74 80 80 81
63 52 47 58 60 54 67 51 52 54 62 74 57 87 64 40 33 28 29 28 27 26 24 24 23 23 24 26 27 28 30 32 34 40 39 39 57 70 76 72 75 81 84 80
72 59 58 55 55 49 59 52 57 60 71 76 72 79 68 50 32 29 26 22 21 20 21 21 20 21 21 22 23 24 26 28 30 36 42 40 43 54 62 69 68 71 68 81
55 46 49 54 45 46 50 56 58 63 78 96 76 72 60 40 27 23 20 19 20 19 21 20 21 22 22 22 22 22 22 26 30 27 39 43 42 45 59 66 61 63 68 80
65 61 48 48 59 50 60 70 94 89 95 93 58 74 63 36 28 24 24 20 18 18 19 19 18 20 20 22 24 23 24 24 25 33 31 46 46 50 52 56 58 57 71 96
87 88 65 54 61 67 64 70 92 93 92 83 57 77 50 32 26 23 20 19 19 18 18 19 20 24 26 26 27 28 28 26 26 32 38 40 49 58 65 60 60 68 82 98
84 77 53 52 50 57 68 85 65 79 77 94 72 47 33 28 38 34 27 26 25 18 18 21 27 28 31 32 28 31 32 32 30 31 52 49 57 67 65 64 74 95 100 100
67 80 60 57 49 54 59 59 86 92 94 94 74 58 43 35 38 39 40 35 32 26 22 27 32 34 34 33 27 30 36 38 35 55 60 59 71 71 65 74 86 84 100 100
55 69 77 63 72 75 72 80 64 73 87 96 96 70 37 39 36 37 39 39 40 39 27 31 32 31 31 29 26 38 34 41 42 60 69 70 87 71 70 87 82 86 99 100
53 76 90 81 59 59 63 68 65 92 75 89 92 74 36 38 40 38 42 49 46 46 36 40 42 44 42 39 36 46 43 46 56 64 71 86 88 83 86 93 91 99 100 98
57 82 95 74 69 61 76 67 64 68 82 91 93 68 38 41 40 45 61 67 62 56 51 46 54 49 38 46 55 62 62 59 65 70 82 76 85 90 95 94 96 100 99 95
47 74 80 87 77 77 86 68 66 77 98 80 80 63 50 47 55 63 68 70 66 62 56 56 58 56 41 50 80 71 66 70 73 79 79 84 84 92 94 94 96 93 87 75
64 85 74 76 73 69 75 77 76 84 78 97 67 71 65 63 72 70 72 71 74 83 71 60 56 59 54 68 86 81 81 85 89 93 87 88 94 89 88 89 79 66 73 59
66 85 97 92 71 74 84 76 76 77 76 89 88 93 63 63 70 67 92 94 86 82 84 64 66 72 78 76 85 86 86 86 89 91 88 85 81 80 84 65 62 62 59 67
76 85 98 93 70 83 92 80 75 73 79 84 97 75 72 76 78 96 99 97 99 98 90 78 75 76 81 83 85 80 73 77 78 77 73 73 74 67 60 70 69 78 70 60
83 81 96 98 86 95 65 54 60 70 74 76 76 75 75 81 100 100 82 83 81 97 86 79 76 72 70 76 80 73 69 68 68 66 60 59 62 76 70 72 70 78 88 88
73 85 95 100 96 70 57 57 57 65 70 73 82 79 81 81 99 99 83 78 79 78 78 76 71 67 70 71 66 65 60 60 58 59 70 74 61 67 88 91 80 90 97 89
77 78 94 99 100 91 64 50 53 65 85 63 80 86 86 80 93 98 96 71 68 71 73 76 79 72 66 62 59 59 57 57 66 88 92 92 100 98 94 99 96 59 42 48
95 99 98 96 97 82 58 50 65 75 71 65 78 93 86 93 98 100 99 80 71 67 68 69 66 65 65 60 60 59 71 88 97 98 100 100 100 100 100 88 59 74 92 38
95 97 100 99 98 92 46 53 67 65 63 65 76 91 92 99 100 95 98 100 94 84 77 79 76 94 97 98 99 99 99 100 100 100 99 100 95 60 60 96 80 36 31 33
84 78 88 77 74 51 52 55 60 62 63 69 73 96 90 94 89 77 80 91 98 100 98 100 100 99 99 100 100 100 100 100 100 98 68 55 71 92 54 34 30 28 34 37
61 58 74 81 63 67 58 62 60 59 62 69 76 91 91 96 90 72 66 73 78 89 98 99 98 98 98 100 100 100 95 80 69 55 73 87 56 36 30 27 30 39 27 19
68 61 66 71 60 61 62 60 61 61 61 65 76 88 89 90 93 88 75 60 60 60 62 68 65 74 74 76 69 50 49 50 80 81 52 40 31 26 28 38 34 21 20 18
64 68 75 76 53 57 59 61 63 61 62 65 70 79 80 80 79 76 80 74 69 66 57 52 54 56 52 51 49 49 53 56 56 51 36 28 27 36 40 24 20 20 17 12

GFSCGP_850_rhum_048.txt.gz
RH
90 93 94 90 74 64 59 66 63 52 42 44 49 52 47 40 40 40 38 37 32 30 29 30 31 29 28 28 27 27 26 29 52 63 65 64 65 67 77 84 82 83 86 85
90 89 74 77 76 79 74 71 69 55 45 44 50 50 40 36 35 34 33 31 31 30 26 27 28 29 31 30 30 28 27 26 26 48 58 60 57 62 63 66 76 74 77 80
80 57 56 61 68 73 63 64 62 63 54 46 57 42 38 38 34 30 30 32 32 30 26 24 24 26 27 28 29 30 30 28 26 30 48 58 63 61 65 69 71 75 74 76
64 52 55 64 63 56 66 52 55 59 62 76 58 74 66 47 43 35 29 26 27 27 25 24 24 23 25 26 26 28 30 30 32 33 48 53 59 62 60 59 61 69 74 76
69 64 56 60 59 52 61 53 57 61 74 74 72 78 62 48 41 30 28 20 19 19 21 21 21 21 22 23 22 23 24 27 28 33 34 53 61 58 53 53 58 61 71 73
57 49 52 53 50 49 53 57 68 73 80 93 73 76 63 43 32 24 22 20 19 18 18 20 21 21 20 21 22 22 23 24 25 25 31 34 41 60 61 56 56 56 64 68
64 62 49 49 62 53 58 73 93 91 95 85 65 83 68 47 38 30 32 26 22 22 22 20 19 20 21 21 21 21 22 23 23 23 23 29 36 36 51 52 51 54 58 62
86 86 62 52 60 69 67 71 88 79 96 88 64 76 50 38 33 25 28 32 30 28 26 21 23 22 22 22 22 22 21 20 20 23 25 25 30 36 39 51 50 50 52 55
85 75 56 56 52 57 69 83 65 84 82 96 75 57 33 37 39 39 38 37 37 38 37 35 26 29 29 30 29 27 24 23 21 25 25 27 27 39 38 45 52 54 58 59
68 86 60 57 53 53 57 62 89 93 82 88 70 68 47 33 39 40 45 42 46 52 51 44 42 38 38 33 31 31 29 22 20 30 31 32 30 42 47 48 58 60 61 70
56 74 83 62 70 78 75 82 70 77 81 93 95 64 46 36 40 48 50 47 57 58 53 52 40 36 38 36 33 27 24 24 26 35 37 38 46 66 66 57 59 63 72 94
56 77 95 84 60 59 64 71 69 90 72 92 93 78 42 42 38 42 37 53 61 60 60 61 57 44 45 43 39 34 26 27 36 36 42 50 86 75 71 73 70 78 97 100
59 79 90 76 70 67 78 70 67 70 84 96 91 74 41 45 40 38 51 63 68 65 66 64 57 55 53 46 45 38 35 54 49 46 55 73 89 75 83 95 94 94 94 100
52 76 74 87 72 79 84 76 74 79 99 89 86 64 49 47 46 54 63 66 72 80 76 77 72 65 57 59 53 42 44 69 77 76 90 92 82 94 90 93 97 98 99 96
62 83 80 80 76 73 74 75 76 88 74 92 65 69 60 58 57 64 78 90 95 90 87 81 76 66 71 73 76 66 73 86 100 100 97 90 97 98 93 91 94 93 87 86
68 91 97 95 73 79 86 78 78 77 73 75 69 76 55 54 70 89 92 91 85 87 95 89 79 78 80 82 82 80 79 87 97 97 97 97 97 94 92 90 86 77 74 77
71 84 98 88 74 84 93 82 76 76 77 70 86 67 63 71 85 95 91 80 82 81 96 90 79 77 80 81 80 83 88 94 96 93 92 92 92 90 84 78 71 79 86 88
81 88 95 96 82 93 62 54 59 69 66 73 77 70 70 81 98 97 82 74 75 72 75 78 73 73 76 81 86 90 93 94 95 93 88 83 76 73 68 68 81 94 96 96
71 78 98 93 97 73 59 59 57 70 75 71 74 75 80 80 97 100 96 68 70 75 72 68 67 70 76 83 84 80 81 82 85 79 73 70 74 80 91 99 100 100 100 100
74 73 88 98 98 86 56 49 54 60 86 68 70 78 90 82 96 97 99 72 69 70 71 73 75 75 75 71 70 70 64 62 63 64 76 98 100 100 99 100 100 100 99 95
97 98 96 92 96 80 58 52 65 76 70 64 73 84 81 91 97 98 91 81 75 71 73 72 71 71 69 67 62 60 60 76 99 100 99 100 100 100 100 100 100 98 98 67
82 92 96 93 97 94 46 59 71 64 64 64 72 85 90 92 94 95 99 98 85 81 77 74 84 75 69 67 60 77 92 100 100 100 100 100 100 99 99 100 86 52 39 36
91 81 90 83 76 52 47 56 58 61 64 65 73 86 85 88 90 90 96 96 90 95 96 99 97 96 99 98 100 99 100 100 100 100 99 99 99 96 68 42 35 34 37 38
68 62 76 73 61 60 54 58 56 58 60 64 70 88 88 86 79 79 89 95 91 94 99 97 96 100 99 100 100 98 99 99 99 92 83 93 53 38 36 35 36 39 31 20
70 67 70 75 67 61 61 58 58 59 59 63 74 88 91 89 80 72 77 84 92 94 97 98 98 98 99 99 99 95 77 66 68 74 70 45 34 30 29 34 36 23 20 18
69 71 80 78 55 58 56 54 59 61 60 63 74 92 95 88 84 78 69 68 74 84 84 87 85 91 95 81 57 54 56 68 75 52 41 31 26 28 37 27 20 19 16 14

GFSCGP_850_rhum_051.txt.gz
RH
98 94 95 80 75 63 68 69 68 58 45 47 52 54 47 40 39 40 35 37 37 35 31 31 31 30 31 30 26 30 31 30 29 30 61 72 71 70 76 74 71 67 75 76
92 92 80 86 84 77 76 75 74 60 49 47 55 56 44 39 37 34 33 31 31 30 29 28 28 29 29 31 31 28 27 28 28 29 28 57 64 66 64 63 60 55 64 77
80 66 82 82 91 91 82 72 65 63 55 50 62 52 44 35 35 32 31 30 30 29 27 24 23 23 24 25 30 30 31 30 30 29 29 44 68 66 65 64 64 63 60 64
61 52 72 70 76 66 71 54 57 61 62 75 59 74 58 44 46 41 32 28 25 25 25 24 23 24 24 22 22 26 27 28 30 31 34 31 31 48 60 61 62 59 62 64
69 60 67 70 65 54 63 54 59 65 76 70 70 80 56 44 36 29 27 27 24 23 23 22 21 20 20 22 24 24 25 26 28 29 29 36 45 49 62 60 63 59 58 60
59 52 51 52 58 52 57 58 69 80 77 89 68 72 55 40 33 30 34 35 35 31 26 23 23 21 20 20 20 21 22 22 22 24 25 28 31 43 56 72 64 66 60 58
66 66 51 52 64 56 60 71 89 83 91 79 71 79 62 46 42 38 36 39 39 36 34 33 26 22 22 22 21 21 21 21 21 22 24 24 25 31 38 43 56 62 63 59
90 92 61 52 60 69 64 68 85 68 88 87 67 79 48 42 34 33 40 41 39 34 38 38 38 34 27 28 27 23 22 21 21 22 23 24 25 24 26 36 36 45 58 60
84 78 58 54 55 57 73 84 64 85 83 93 74 58 32 42 42 42 43 39 42 48 52 46 46 45 39 35 32 32 27 24 22 21 21 20 22 26 27 25 36 40 46 54
64 87 62 58 52 59 59 64 83 92 66 75 62 70 48 35 39 46 51 43 47 58 56 52 48 52 44 42 38 33 32 31 28 27 23 20 20 30 30 30 31 45 50 53
62 77 83 60 68 78 75 85 80 80 77 87 88 55 48 37 41 48 50 42 54 58 62 58 52 54 53 52 50 44 40 36 30 25 23 22 29 34 35 39 49 60 65 66
59 81 89 76 62 61 65 71 72 86 76 94 94 78 44 48 44 44 41 43 59 65 68 62 70 70 58 52 54 48 46 39 34 31 31 39 40 42 47 64 81 89 90 99
59 79 92 81 69 68 76 72 69 74 84 98 90 71 44 50 42 44 52 60 72 76 78 81 79 74 68 58 56 54 49 43 40 38 55 62 66 63 88 100 100 100 100 100
51 74 74 86 68 82 90 81 76 79 96 88 86 72 49 47 51 51 64 85 85 84 85 87 86 72 65 61 60 63 67 63 52 49 57 90 98 98 99 100 99 100 100 100
61 82 82 79 74 75 77 75 84 85 76 89 70 74 55 48 49 56 88 87 81 80 83 86 91 80 75 73 77 78 76 81 86 91 86 98 100 99 100 100 100 99 100 99
67 96 96 93 72 84 92 80 80 81 76 78 71 72 49 48 60 82 89 80 79 80 80 95 88 84 83 82 84 83 82 87 97 100 100 100 100 100 99 97 93 92 87 77
72 88 97 88 76 84 89 84 78 74 76 66 80 62 61 69 79 92 88 77 74 70 67 77 77 76 79 81 80 83 89 94 96 97 94 86 85 84 87 79 78 78 80 82
79 88 92 98 81 95 60 61 64 67 61 66 63 58 63 78 89 94 96 74 69 74 69 68 68 72 78 82 88 92 99 96 97 95 94 97 96 87 85 88 86 89 94 96
65 82 98 94 92 76 62 65 70 74 73 69 77 74 68 83 96 100 96 78 70 77 79 77 70 75 80 85 90 92 92 91 99 100 99 92 91 87 94 91 96 99 100 100
69 74 91 98 96 90 55 53 59 61 82 67 68 73 84 81 96 95 94 78 73 72 76 79 76 74 75 72 72 69 69 72 74 77 76 76 76 86 99 100 100 98 99 99
100 99 94 90 97 83 58 52 63 73 71 64 67 71 85 86 88 90 91 85 78 76 75 74 74 74 70 67 66 64 67 75 83 96 100 100 100 100 100 100 100 100 99 76
88 91 93 87 97 93 49 68 71 64 62 65 67 72 83 87 87 88 92 93 89 86 79 80 74 74 66 63 65 74 98 100 99 100 100 100 100 100 100 99 74 38 38 41
89 75 84 82 77 51 46 54 56 58 60 59 66 73 84 87 87 87 89 88 93 94 97 97 94 89 71 80 100 99 100 100 99 99 99 99 99 79 43 37 35 35 38 39
74 64 82 77 62 64 54 54 57 57 56 57 62 70 84 83 82 83 91 89 92 95 96 96 98 99 99 100 100 98 99 100 100 98 94 60 38 33 31 31 34 38 29 22
74 68 72 80 68 57 55 56 56 55 58 57 62 75 88 87 80 78 85 89 92 92 92 98 98 99 99 100 100 99 94 83 82 71 48 37 31 31 33 37 31 23 22 19
72 77 85 79 60 61 56 54 55 59 60 59 63 79 93 92 82 78 80 86 89 93 96 100 99 99 97 91 74 66 71 76 62 49 38 32 31 36 36 24 22 20 17 14

GFSCGP_850_rhum_054.txt.gz
RH
91 92 95 84 75 65 71 74 72 62 48 48 58 57 50 42 41 41 36 33 34 33 32 32 30 30 31 31 30 26 26 30 33 34 32 36 53 65 71 69 66 73 74 77
99 96 81 69 68 72 72 78 76 63 51 49 57 60 46 38 42 37 36 33 32 32 30 28 27 27 28 29 30 30 30 28 30 32 31 30 30 37 54 63 65 62 66 73
92 92 89 85 88 85 82 78 70 67 56 53 62 54 45 34 36 32 32 32 30 28 26 24 27 27 26 24 24 28 30 32 32 31 30 31 34 38 46 63 63 61 62 63
71 77 90 88 88 88 98 61 57 59 63 79 61 76 56 44 40 38 34 34 34 37 32 25 24 23 23 23 25 24 24 28 29 31 32 32 32 33 31 35 52 58 60 60
86 82 80 89 83 86 66 56 61 64 74 68 67 72 48 40 33 34 41 44 46 44 38 32 26 23 23 22 23 25 24 24 27 28 29 31 32 36 37 41 46 60 64 63
62 53 51 55 61 52 60 62 69 78 74 85 66 67 45 38 39 38 39 43 45 44 40 35 30 24 23 24 22 22 24 25 25 25 24 26 28 29 30 39 49 53 63 63
70 66 52 54 66 56 59 69 85 74 87 74 72 74 56 43 41 42 39 44 42 46 46 44 38 33 29 24 25 25 23 22 23 23 22 22 24 29 30 29 34 48 52 60
93 93 60 54 60 69 68 66 82 59 80 80 70 84 48 44 34 40 43 42 39 47 55 52 48 44 39 34 27 29 28 25 26 25 24 24 25 26 26 29 37 35 38 47
85 83 58 55 57 56 71 85 64 87 80 94 73 57 29 45 44 43 42 39 42 52 60 64 59 50 48 44 37 37 34 31 29 28 26 25 25 23 23 25 27 32 40 42
63 91 64 60 55 61 60 65 80 91 64 64 50 60 41 36 38 42 48 46 46 57 66 69 65 59 57 60 51 44 47 43 37 32 30 28 28 26 24 25 30 30 31 40
63 75 81 62 67 78 74 88 80 77 75 78 64 38 48 38 40 45 48 49 58 65 73 73 70 72 72 66 62 54 54 44 40 37 33 29 27 25 29 34 38 38 39 43
60 78 80 74 63 61 63 72 72 84 79 93 93 69 42 48 44 43 46 55 72 79 79 78 78 78 71 69 61 60 56 51 47 41 38 33 32 37 41 47 56 58 63 73
60 78 94 80 68 67 77 73 69 74 82 98 91 58 44 52 48 45 53 69 82 78 77 80 82 85 72 66 64 62 59 57 52 48 45 45 44 67 68 74 90 96 99 100
54 72 70 82 67 82 92 82 73 77 90 85 88 71 51 46 54 50 56 84 80 77 79 88 90 81 80 76 70 70 72 72 72 76 72 87 76 98 99 100 99 100 100 100
62 86 90 78 70 75 78 75 86 82 79 85 68 78 57 51 53 51 86 83 78 77 74 81 88 83 82 79 80 79 74 79 83 95 99 100 98 100 100 100 100 100 100 100
67 98 90 92 72 83 93 82 82 84 78 80 70 74 48 47 52 76 89 83 75 74 66 81 75 77 78 80 81 83 87 92 95 96 96 99 100 100 100 100 100 100 100 97
72 90 94 88 78 83 88 84 79 81 78 68 84 60 49 60 73 89 88 87 72 70 70 69 71 74 76 81 86 90 97 95 96 93 91 93 94 97 95 94 94 91 88 86
76 84 89 98 83 96 57 58 64 68 60 67 61 55 51 67 88 89 95 86 70 73 80 74 72 77 79 86 92 98 100 100 99 100 100 99 97 95 94 91 88 75 76 80
61 81 96 90 81 77 60 75 74 73 68 68 65 64 66 82 93 98 97 81 74 74 76 76 75 78 80 82 83 86 92 99 100 100 100 100 100 99 98 99 99 100 100 100
71 74 85 98 82 96 54 53 61 60 78 62 71 69 72 81 95 93 90 83 78 74 74 78 78 76 78 76 72 72 69 81 93 98 93 97 100 99 98 99 99 98 100 99
99 100 87 92 88 83 61 52 62 86 70 63 67 67 77 84 85 90 90 84 82 79 79 77 77 76 72 70 67 66 76 85 95 97 98 99 98 99 99 99 100 100 100 89
84 97 93 92 96 94 52 67 75 62 61 63 64 65 74 84 84 84 90 91 93 86 84 82 76 76 68 69 72 94 98 100 98 99 99 100 99 99 99 98 67 37 36 38
88 72 80 79 75 52 52 56 50 56 58 59 61 62 71 83 82 82 86 90 93 91 88 92 82 72 72 95 100 95 100 100 98 99 99 99 94 54 36 35 36 37 39 35
73 66 83 81 63 64 58 55 56 59 59 58 58 60 72 80 85 84 83 88 94 88 92 92 94 98 99 99 100 99 100 100 100 99 78 44 34 31 32 37 39 32 23 22
78 70 73 81 70 59 58 54 56 56 58 58 58 62 70 84 84 81 86 88 88 88 96 98 98 98 98 99 99 99 99 95 77 45 36 32 31 34 37 34 24 21 20 15
75 76 82 83 66 65 60 59 59 58 59 61 59 64 79 87 86 80 86 88 90 87 94 99 98 98 99 97 84 78 76 71 51 38 31 28 33 38 25 21 21 20 17 17

GFSCGP_850_rhum_057.txt.gz
RH
82 92 90 85 71 62 64 73 73 66 50 51 58 59 50 43 42 42 37 35 32 32 33 33 33 32 32 32 33 31 30 29 34 36 38 43 42 46 57 50 58 62 66 71
97 93 72 71 66 66 68 76 76 63 52 51 56 56 45 41 42 41 41 39 38 34 29 26 24 23 24 26 28 31 32 31 31 31 33 34 36 38 37 45 54 60 59 61
96 82 74 72 76 76 77 78 74 68 56 54 60 54 45 36 35 35 35 35 39 40 33 25 24 24 26 25 24 25 29 31 31 33 32 33 35 37 37 36 38 42 50 59
93 88 84 89 82 75 93 68 60 59 64 71 60 67 52 41 40 45 48 51 52 46 40 36 30 26 26 25 24 24 23 25 30 33 32 34 34 35 32 31 31 31 42 56
96 96 92 95 93 77 90 58 61 63 70 63 63 65 45 38 39 41 44 48 56 55 48 41 36 32 28 26 24 24 25 26 26 28 31 31 31 31 33 36 36 38 38 44
70 72 70 70 85 77 69 61 68 72 70 76 62 65 40 39 40 38 41 44 50 56 55 48 42 36 32 28 26 26 25 26 28 29 31 32 32 31 33 34 35 36 38 39
81 67 56 54 64 54 58 71 86 68 83 70 72 75 51 40 39 41 45 44 46 56 61 59 52 44 39 33 30 26 28 29 28 27 27 27 28 30 30 33 39 50 43 44
91 92 64 55 61 68 68 66 83 55 65 62 69 74 43 43 36 42 43 51 52 60 65 67 64 57 52 47 42 34 30 31 33 32 30 29 29 28 27 27 28 31 38 43
84 91 58 60 58 57 68 80 61 85 81 84 63 55 34 44 44 45 42 47 56 64 71 73 72 68 66 61 57 54 41 38 38 35 32 31 30 29 27 26 26 25 27 31
65 94 67 62 56 61 60 63 78 85 76 55 42 48 31 44 46 38 45 48 56 69 73 74 74 76 72 67 64 60 59 51 46 42 38 35 33 32 30 29 27 26 25 26
64 74 82 63 69 77 74 82 77 71 69 61 47 31 42 39 42 45 48 48 68 79 74 71 74 77 74 70 71 64 59 57 53 45 41 37 34 31 30 31 29 28 32 37
63 78 90 74 64 62 62 73 67 75 76 88 84 49 38 42 44 46 46 53 80 77 72 78 82 83 77 71 67 63 61 59 56 52 48 44 42 39 38 43 47 48 57 55
59 78 94 86 69 66 78 73 66 70 79 97 80 41 44 50 49 44 51 78 81 76 72 79 83 80 81 79 78 76 73 72 70 68 64 57 48 46 46 52 68 84 95 98
52 73 68 80 68 80 92 83 71 76 89 82 84 58 45 41 50 51 61 84 80 76 74 79 82 80 78 78 77 74 74 77 79 82 83 87 80 71 70 88 97 99 99 100
61 84 89 76 69 77 77 80 79 82 77 82 60 72 52 50 53 50 81 82 80 74 71 75 79 78 76 78 78 81 83 83 85 88 96 96 98 99 100 99 100 100 100 100
68 94 93 87 74 84 93 82 83 78 75 75 69 71 47 46 48 70 87 84 76 72 70 73 75 76 77 84 84 84 87 85 87 91 94 98 100 100 100 100 100 100 100 100
74 94 90 87 82 81 93 83 80 82 79 69 86 62 50 56 61 86 87 87 75 71 76 75 73 77 84 87 91 88 89 96 94 95 92 88 91 94 94 98 99 99 96 90
75 80 88 93 82 92 51 61 67 69 63 70 65 60 52 55 78 88 92 85 74 73 78 78 75 79 83 87 90 85 83 89 96 98 99 98 98 96 96 94 95 97 93 90
60 78 95 90 77 70 67 76 73 72 67 63 63 57 57 72 88 97 96 82 76 73 75 77 77 80 82 80 77 77 73 87 92 95 100 99 100 100 99 99 98 97 99 99
70 70 82 96 86 89 55 55 63 60 78 57 66 69 69 81 84 88 91 82 80 78 74 77 79 80 76 74 71 70 77 89 88 94 98 99 100 99 100 99 99 99 100 99
95 96 87 96 91 72 60 52 57 90 73 60 68 68 69 87 85 86 87 83 83 82 82 80 80 77 73 66 71 82 90 91 97 98 98 99 99 99 99 99 100 99 99 77
80 92 83 87 86 87 52 69 78 65 60 61 62 62 69 78 85 81 83 85 88 87 85 81 78 72 68 76 96 98 99 99 99 99 100 99 98 99 99 81 45 35 38 37
91 77 81 73 71 49 52 59 50 48 56 58 60 59 69 78 82 81 83 84 84 88 89 80 76 70 88 96 95 93 99 100 100 100 98 97 72 38 32 33 36 35 27 22
77 67 80 80 64 64 53 58 59 60 62 61 60 60 63 74 82 82 82 83 82 87 83 77 78 98 97 96 96 99 100 100 99 88 51 34 31 31 35 34 26 22 21 18
79 72 68 80 70 61 56 63 60 59 59 59 61 61 62 74 84 83 82 83 83 85 95 88 88 92 95 97 96 95 96 94 58 38 31 29 32 36 29 23 21 18 16 13
81 84 89 86 71 74 64 60 61 63 63 63 64 61 64 74 86 85 83 85 84 86 99 99 98 98 98 98 98 92 80 60 41 31 27 31 37 26 21 20 17 16 14 16

GFSCGP_850_rhum_060.txt.gz
RH
77 94 87 63 46 39 40 47 44 44 43 44 44 45 40 36 36 34 31 28 28 32 34 32 31 31 32 32 32 29 28 26 29 72 43 55 69 61 54 53 48 62 64 66
82 93 68 50 50 49 46 43 45 55 46 44 44 46 37 34 34 36 35 33 32 33 32 29 26 26 26 27 28 30 31 30 29 35 65 37 56 60 59 51 47 47 60 60
71 69 52 56 58 56 50 46 55 50 48 43 45 42 39 31 32 34 35 38 42 42 39 39 34 26 24 24 23 24 27 29 32 32 48 80 85 79 56 40 40 40 42 46
86 79 65 62 59 49 64 54 53 53 54 52 46 33 39 33 39 37 42 47 50 50 47 47 45 33 29 27 25 25 26 26 29 32 33 61 84 84 45 37 35 35 34 37
98 92 81 78 60 54 72 56 53 52 52 50 47 46 36 32 38 39 38 44 52 58 58 54 46 38 34 29 29 26 25 26 26 26 32 42 81 79 73 83 57 39 36 34
96 97 87 86 92 72 49 50 50 50 54 66 44 48 31 32 30 36 36 41 49 58 61 62 53 45 43 38 33 29 30 27 26 28 29 30 37 63 88 75 70 46 50 40
100 97 87 82 89 88 70 58 81 77 80 59 54 50 29 30 29 30 41 46 50 58 64 67 63 54 48 43 40 36 32 31 32 31 31 32 33 38 78 91 95 84 75 45
92 96 90 76 60 67 59 58 69 54 43 41 57 50 31 31 31 36 40 48 55 62 69 72 72 70 65 56 51 48 45 39 35 33 33 33 32 30 29 29 30 35 42 40
78 89 55 55 52 49 62 72 49 65 62 56 36 39 34 34 33 36 36 44 54 67 73 75 75 75 76 70 62 57 53 52 47 43 39 36 34 33 31 30 29 28 28 28
60 90 62 56 51 51 53 48 67 79 66 47 33 30 27 38 37 34 38 45 56 71 72 72 75 84 75 66 64 65 63 59 57 52 47 42 38 36 35 34 33 32 31 30
50 59 80 56 63 61 60 64 59 48 48 44 24 21 25 35 33 37 38 48 67 72 70 73 81 77 74 70 68 68 64 62 60 56 54 49 46 42 40 38 36 33 32 31
54 62 77 67 56 52 52 54 47 55 63 64 62 28 25 27 32 38 41 58 73 71 71 79 79 76 78 78 75 73 71 70 67 64 61 59 56 52 49 44 40 39 43 45
49 70 84 76 66 60 66 58 54 53 63 84 52 29 32 33 35 35 45 64 70 71 68 70 72 77 76 75 74 72 70 69 68 68 70 74 76 70 61 59 60 67 76 81
45 57 57 54 65 66 85 69 57 80 85 56 52 35 33 35 32 38 49 70 70 68 65 70 72 76 76 76 74 77 80 80 80 81 81 82 87 98 99 93 97 99 99 98
48 70 70 62 61 65 68 71 67 82 68 85 47 48 31 31 37 41 59 77 75 67 62 68 73 77 84 88 86 90 89 88 84 79 80 86 89 90 98 100 100 100 99 100
58 93 86 82 66 68 81 65 66 67 61 62 54 55 35 36 40 52 74 80 74 69 64 66 72 76 90 94 88 88 93 93 88 84 83 84 91 96 98 99 99 99 98 98
58 81 81 71 68 69 81 72 65 63 59 56 72 48 38 40 44 65 82 82 72 68 73 71 73 79 86 91 86 90 90 88 90 90 89 88 90 92 95 99 100 99 96 99
60 68 75 74 69 82 50 53 52 56 50 52 50 44 41 43 66 83 85 77 67 70 76 74 73 79 83 82 80 80 77 82 89 93 93 90 94 96 96 99 98 94 96 98
51 61 80 76 66 50 52 62 60 64 64 48 50 44 45 57 83 85 87 78 71 71 74 76 77 80 82 77 73 71 80 86 92 93 89 95 95 95 97 95 96 98 99 98
60 60 63 79 85 61 55 52 58 52 69 55 52 52 55 74 72 69 86 79 80 78 78 77 78 79 76 73 68 78 87 86 92 95 99 100 98 97 98 100 100 99 97 98
80 80 80 71 74 50 38 44 51 84 68 58 66 65 64 65 70 80 79 80 81 81 81 78 80 77 73 69 82 91 91 91 93 96 100 100 99 98 99 99 100 98 80 38
65 74 78 69 78 73 47 66 76 64 59 58 62 65 69 75 78 79 79 82 82 80 80 77 78 74 72 89 96 92 89 95 98 100 100 100 99 99 86 50 33 34 31 26
68 52 60 56 49 40 50 56 53 55 56 61 63 59 63 74 82 82 83 84 80 77 80 76 74 72 95 95 92 93 100 98 97 99 96 84 43 32 34 36 31 24 22 22
61 57 57 60 48 45 45 49 63 62 62 63 62 60 62 76 81 84 84 82 76 72 75 76 72 92 94 93 93 97 99 98 98 83 40 30 30 34 33 24 20 20 16 14
59 61 57 57 53 56 56 62 68 65 66 64 63 63 64 70 81 83 82 81 76 74 73 76 87 88 90 90 92 96 99 89 57 32 28 29 33 28 22 20 17 14 12 11
67 59 62 53 51 56 61 66 71 66 65 65 66 65 62 67 80 86 84 81 77 76 77 83 88 88 90 91 91 90 80 50 36 28 27 33 30 21 20 18 14 11 11 12

GFSCGP_850_rhum_063.txt.gz
RH
76 91 87 55 42 29 26 36 30 26 38 39 34 33 27 26 30 28 25 23 22 22 23 28 33 33 33 34 35 35 35 35 37 47 60 81 52 36 52 60 67 94 95 96
83 91 69 42 38 35 35 36 38 38 35 38 31 35 30 28 29 27 26 26 24 26 28 28 30 31 30 31 33 35 35 36 36 32 42 62 55 34 34 43 50 59 63 77
79 75 76 72 51 47 36 37 35 40 45 38 36 40 34 28 29 30 30 29 30 32 32 33 34 38 37 36 30 29 33 37 40 40 40 45 74 86 92 68 54 59 58 65
68 71 82 77 63 44 45 32 31 49 50 40 35 23 34 31 33 30 33 35 38 39 39 42 42 46 48 33 27 25 25 26 29 35 40 44 55 74 83 85 92 84 68 54
95 78 77 82 67 41 56 43 45 48 51 48 46 43 34 31 38 35 34 40 45 47 47 46 51 54 51 32 30 30 30 28 28 28 29 33 41 54 71 81 81 82 86 91
95 90 86 87 75 53 51 50 50 48 52 70 40 39 36 32 31 33 33 36 42 48 51 54 56 58 60 50 40 34 33 41 31 28 29 30 36 56 68 76 80 86 91 92
100 99 89 87 84 67 56 60 90 92 87 63 38 43 27 23 24 29 32 37 43 48 53 58 60 63 66 69 59 53 51 50 40 34 33 32 34 40 56 71 82 87 87 86
99 98 100 90 90 95 72 68 76 68 54 48 45 46 28 24 23 34 37 42 48 53 58 64 67 69 70 74 72 66 62 62 60 46 40 43 44 37 36 40 51 74 82 82
87 98 89 79 58 75 95 94 47 56 44 42 33 31 32 30 28 32 34 40 48 58 62 63 64 66 76 76 69 60 63 66 66 61 56 57 50 44 45 48 52 58 64 72
52 88 68 56 48 46 51 44 64 80 69 41 34 26 26 35 36 31 34 40 49 61 62 62 65 76 75 73 64 69 70 70 69 62 59 53 48 46 43 40 38 38 37 43
44 54 71 55 62 57 54 58 51 46 41 45 22 21 22 29 28 34 35 43 56 63 62 65 72 72 76 80 76 76 72 72 67 66 67 66 59 54 49 45 44 45 44 45
46 58 73 63 52 48 45 46 42 53 50 50 56 33 22 28 30 33 38 48 62 64 64 69 70 70 74 78 77 73 68 68 69 70 72 71 68 69 66 60 54 49 48 48
42 65 78 67 59 51 60 50 45 44 58 88 51 35 24 26 30 32 38 52 61 64 62 62 64 67 71 76 77 75 73 72 72 74 76 76 77 79 77 80 79 70 65 66
40 48 55 52 64 56 71 56 51 81 86 48 45 32 31 31 32 30 40 55 62 61 59 63 65 67 72 76 78 81 80 77 74 75 79 80 80 82 91 98 97 99 100 97
42 58 53 50 51 55 64 62 59 88 68 87 43 37 28 28 30 34 45 62 69 64 60 62 65 68 76 80 84 88 88 84 80 81 82 87 89 90 91 95 92 95 94 95
46 88 84 82 56 58 73 58 58 62 62 54 48 49 30 29 34 41 48 70 72 66 63 62 65 71 82 89 93 96 98 90 86 87 91 87 90 89 91 97 97 95 94 94
51 74 82 61 59 60 74 62 59 58 53 54 68 43 34 35 38 45 63 73 70 64 64 65 65 71 83 92 95 96 95 87 85 91 90 88 90 90 92 92 91 93 98 98
53 60 69 67 64 82 57 47 46 51 47 46 43 38 35 36 42 70 74 72 63 62 68 68 67 74 82 88 90 91 82 84 88 89 88 86 90 84 93 94 88 91 94 93
44 49 68 72 59 45 37 52 53 58 60 43 42 38 39 42 68 73 74 68 63 63 66 68 74 77 83 87 85 81 90 86 89 87 88 87 87 88 91 92 95 98 95 96
54 51 63 76 78 62 57 50 48 45 69 51 45 44 47 58 74 67 75 70 71 69 71 76 82 78 78 74 81 95 88 88 92 92 89 88 90 91 99 99 99 100 100 97
67 70 78 69 72 52 36 51 46 77 76 54 57 56 54 61 66 79 72 74 78 81 85 88 89 79 78 71 82 90 88 91 96 93 94 92 94 97 99 100 100 74 42 33
60 64 66 61 74 74 38 55 54 65 57 55 56 60 62 66 74 77 78 78 78 80 88 93 90 80 71 85 92 90 89 90 92 100 98 99 100 90 54 36 36 33 26 23
59 45 50 51 50 37 44 51 52 58 62 61 64 63 66 76 76 79 80 79 80 83 93 95 82 70 85 92 90 92 94 90 89 95 96 65 35 32 34 33 25 22 20 18
47 41 49 50 41 40 39 47 57 66 60 60 64 64 64 73 80 80 81 78 72 76 85 86 72 74 87 89 96 95 99 96 94 76 35 30 31 33 26 20 18 18 15 16
53 49 51 48 41 47 54 53 63 68 65 66 65 64 65 72 81 79 82 79 73 71 77 93 75 84 83 86 94 99 97 92 72 34 28 30 32 26 20 18 15 11 10 10
48 51 57 51 41 43 55 71 74 72 70 68 67 68 66 65 79 83 87 82 78 72 72 77 84 83 82 84 90 94 82 65 36 28 26 31 26 20 18 15 12 9 9 10

GFSCGP_850_rhum_066.txt.gz
RH
80 86 88 76 66 51 42 47 47 36 36 44 46 45 36 27 31 32 27 24 22 23 24 24 26 27 29 30 31 33 34 34 36 46 63 79 75 55 55 46 66 75 78 80
86 87 60 52 56 53 45 44 44 33 40 42 42 41 31 29 33 30 29 27 24 23 24 28 28 28 28 27 30 32 33 35 35 35 36 48 59 65 54 49 40 49 64 82
74 68 56 53 52 56 43 44 39 43 44 39 39 42 39 31 28 29 30 30 29 28 29 31 34 37 38 33 30 30 31 32 35 37 38 38 41 53 75 57 41 31 39 60
66 67 69 80 76 52 61 34 34 47 56 58 42 42 38 35 35 31 29 29 33 36 36 39 42 46 44 36 30 27 25 26 29 36 38 40 41 49 76 78 67 65 64 61
98 82 80 88 82 57 47 39 45 52 57 50 50 58 37 38 40 38 34 38 41 40 42 47 51 55 52 40 33 33 34 30 26 26 27 31 39 42 50 65 79 86 88 79
94 87 83 89 86 87 51 54 54 51 60 90 55 53 50 43 39 39 39 43 46 47 51 54 56 58 62 55 48 44 39 48 36 33 31 30 32 33 39 48 66 76 80 85
100 99 91 88 97 81 67 68 94 96 96 88 44 53 44 33 32 37 38 39 43 49 54 58 61 64 68 64 58 54 51 51 51 43 40 42 38 36 38 51 66 73 82 86
96 95 99 85 91 92 72 71 94 76 88 73 44 62 39 30 30 31 36 41 46 52 59 64 66 67 69 71 65 58 58 60 62 56 51 54 59 49 42 40 45 59 83 86
100 100 94 90 79 78 96 94 51 70 45 78 57 39 34 28 42 37 37 43 49 57 62 62 63 65 70 68 63 63 63 67 67 61 60 59 53 49 48 48 48 46 46 54
69 98 96 93 86 77 88 63 74 93 74 62 47 45 43 42 42 38 41 42 51 60 62 62 65 71 67 68 67 70 71 72 69 66 70 68 61 55 51 46 45 44 43 45
48 65 88 72 89 87 94 92 68 56 54 80 48 40 30 38 37 38 39 43 52 61 62 64 70 69 71 73 73 74 73 71 70 72 76 74 69 66 62 56 51 47 46 44
51 66 81 68 52 47 52 52 53 88 61 71 82 50 29 32 36 37 39 46 60 64 64 66 67 68 71 74 74 73 70 68 68 69 68 68 73 74 74 72 69 63 59 55
47 78 90 71 64 52 62 55 50 61 78 90 88 55 34 38 38 33 40 51 61 64 62 62 64 66 70 73 74 75 73 73 74 74 72 73 75 78 79 81 86 89 82 81
46 52 62 81 76 71 77 62 56 83 96 72 77 39 38 40 39 34 43 53 60 63 60 60 65 66 70 73 76 76 77 78 78 78 76 74 76 80 85 91 96 98 97 85
53 64 55 51 50 57 70 65 65 89 76 78 56 38 34 35 36 34 45 54 62 64 60 59 65 67 73 78 82 83 82 83 79 78 77 75 79 83 88 93 93 92 89 88
54 92 88 88 53 57 73 63 64 70 70 70 61 59 39 33 34 41 49 62 70 68 63 60 64 70 78 84 85 87 81 77 78 81 81 84 86 92 93 96 96 92 92 87
58 86 93 78 59 62 82 71 68 65 62 66 76 53 37 42 41 45 58 68 72 68 64 63 64 69 79 83 86 81 76 74 77 86 90 90 95 95 96 96 97 90 89 85
56 72 85 88 71 97 62 48 50 58 55 55 52 47 38 37 42 47 64 70 68 62 64 67 66 70 78 83 83 78 74 76 84 89 92 93 95 92 91 90 85 84 87 90
48 58 84 91 78 57 60 52 54 62 63 48 51 45 40 48 54 66 70 68 63 59 65 66 67 73 80 84 85 82 77 85 89 90 91 93 91 88 88 86 86 89 89 91
54 56 74 85 85 79 65 50 47 44 77 54 46 46 46 60 87 82 72 65 65 66 66 68 73 77 81 80 85 87 90 90 90 92 91 91 88 86 84 86 95 93 86 67
73 73 89 83 80 67 57 54 48 85 84 58 56 55 54 72 76 75 69 67 68 70 73 77 81 81 80 77 74 82 89 93 95 93 89 90 88 86 88 75 50 33 28 23
62 80 82 72 87 84 49 50 60 69 55 57 58 60 60 65 72 72 72 71 70 71 77 82 82 84 80 71 83 88 92 97 100 99 96 94 86 50 36 32 26 22 22 19
65 56 63 60 69 46 43 52 54 58 62 62 63 63 62 65 69 71 73 75 73 72 74 81 79 78 75 87 89 87 89 98 100 97 94 67 32 30 32 25 20 20 19 16
52 42 56 55 47 46 40 48 54 63 61 59 57 60 62 69 73 74 76 78 76 72 74 79 81 75 85 90 84 87 88 90 92 83 43 29 30 31 24 20 18 16 12 12
56 50 55 58 48 44 52 45 46 65 66 66 63 61 62 65 74 75 73 79 79 76 77 77 75 70 86 84 82 88 90 91 82 41 28 28 31 26 19 17 14 10 8 9
54 63 70 68 53 51 76 68 65 70 72 71 69 64 63 65 68 78 76 77 81 78 74 76 75 75 83 82 84 87 89 85 54 29 25 28 29 21 18 16 13 8 8 9

GFSCGP_850_rhum_069.txt.gz
RH
88 88 92 75 76 63 68 71 59 52 44 49 50 50 44 37 31 32 29 28 25 24 23 24 24 25 24 25 28 30 34 38 40 40 46 68 73 56 60 67 66 72 72 67
91 90 74 65 70 71 59 66 63 44 38 47 50 51 46 40 34 30 28 27 27 27 26 29 29 28 26 26 29 32 33 34 34 36 37 38 48 55 56 55 60 67 64 66
94 73 61 68 73 78 65 71 61 47 47 43 45 55 48 40 32 30 30 30 30 29 30 30 30 29 28 26 25 26 27 28 30 34 35 36 36 38 43 48 58 62 61 51
89 67 67 74 69 62 74 51 47 54 60 72 44 66 43 40 40 35 31 30 30 31 34 36 38 35 32 32 32 30 30 31 32 34 36 38 39 40 41 56 84 80 71 65
98 80 86 91 77 80 69 49 44 55 60 56 54 60 47 39 47 41 35 31 35 37 39 40 41 40 39 37 35 37 35 32 29 27 29 34 38 42 43 47 58 74 87 89
93 85 88 89 89 87 83 61 57 61 69 91 66 65 55 52 40 42 41 44 42 45 47 50 52 59 61 58 51 45 42 41 35 31 29 28 27 28 31 35 42 50 68 80
97 98 87 84 88 83 89 88 98 94 95 92 58 66 50 37 38 42 52 47 47 51 55 58 60 64 69 65 58 55 51 51 46 42 40 35 33 32 32 34 36 50 68 79
97 100 97 84 85 95 97 79 88 87 97 85 50 77 52 37 33 39 42 44 48 55 58 61 64 65 66 64 63 60 58 58 54 54 56 53 49 48 48 43 40 42 55 69
98 95 90 86 78 87 98 96 63 71 59 81 65 46 35 45 47 45 46 47 54 60 62 64 63 62 61 61 58 58 60 62 61 63 62 59 57 56 52 50 48 47 47 48
87 96 90 92 88 83 95 72 79 92 76 72 66 54 54 52 51 46 49 50 55 60 63 63 62 63 64 62 62 63 62 62 64 64 62 60 60 58 55 50 48 46 44 43
73 77 99 96 98 98 96 98 80 63 69 81 59 51 37 41 45 44 45 46 57 62 63 62 63 66 66 68 69 69 68 67 68 65 65 66 64 63 61 59 57 56 52 48
54 76 96 78 79 65 71 83 74 85 65 73 87 64 33 39 43 38 44 49 58 62 63 62 65 66 68 70 72 72 69 67 65 64 64 65 66 68 70 70 69 67 66 62
53 80 93 77 68 58 67 61 69 62 76 87 86 62 40 44 44 42 47 53 60 63 63 62 62 64 66 69 73 71 70 70 70 70 70 70 73 76 78 78 78 82 81 79
49 67 72 84 70 75 80 68 62 72 87 71 81 53 49 48 44 39 43 44 57 63 63 61 63 64 66 70 72 72 73 75 75 74 71 71 74 78 82 87 91 96 94 86
58 69 56 54 54 66 72 68 74 79 69 76 58 52 45 46 46 38 38 55 63 64 61 60 63 66 68 72 74 76 79 80 80 77 74 74 77 82 86 91 93 91 86 82
64 90 83 83 59 58 72 70 72 76 68 67 68 68 45 34 35 49 44 57 64 64 63 60 61 67 70 75 81 82 82 85 80 79 78 79 81 87 89 90 87 87 84 84
71 84 90 88 66 66 78 72 69 71 69 62 75 55 43 44 46 52 54 58 61 66 69 66 62 64 70 78 82 84 85 82 80 81 80 82 87 90 88 89 88 89 91 90
76 78 90 92 76 90 48 56 57 60 62 65 61 53 47 43 42 46 51 57 68 70 68 63 64 65 69 76 83 83 82 76 77 79 83 87 87 87 87 87 90 93 91 87
57 67 86 91 92 63 63 56 59 71 69 59 60 53 45 48 54 57 56 65 68 65 61 64 66 67 71 79 81 82 80 74 80 84 86 83 83 85 88 88 89 89 89 85
59 60 79 87 91 91 62 50 47 49 82 59 53 53 50 63 69 72 66 65 62 61 62 65 66 68 73 79 82 81 79 82 87 87 85 83 86 88 90 90 89 84 60 26
81 77 93 91 84 73 50 57 52 86 75 62 50 44 49 68 57 66 71 65 64 64 65 67 71 74 76 80 79 82 80 86 88 89 86 86 91 91 89 70 35 25 20 19
78 72 94 88 93 92 55 52 70 66 59 58 58 59 62 60 66 70 71 64 66 65 68 72 77 80 80 80 76 76 86 91 89 87 92 91 93 79 42 31 23 20 18 15
72 67 67 71 70 48 50 53 59 59 61 60 61 61 60 65 70 71 71 72 72 71 71 75 76 78 80 75 77 84 88 93 91 90 92 92 61 36 32 26 21 17 15 13
54 50 60 56 50 48 43 52 55 58 60 59 58 58 56 61 66 66 71 74 77 76 72 68 73 80 79 75 82 85 85 91 90 91 86 45 29 30 26 22 20 16 13 11
61 57 61 63 54 48 46 44 51 62 63 62 63 61 60 61 65 68 69 73 77 78 75 71 71 79 74 78 80 80 85 86 89 81 42 27 29 28 20 18 16 13 9 9
63 69 72 76 53 54 65 58 49 61 68 70 71 69 66 63 63 63 68 70 72 80 81 74 70 71 70 76 75 79 87 87 84 54 29 27 29 26 19 18 15 10 8 8

GFSCGP_850_rhum_072.txt.gz
RH
92 92 90 82 72 67 77 71 70 60 48 52 58 55 47 38 38 36 30 31 30 28 26 25 25 24 24 24 28 37 39 41 44 47 48 58 76 80 79 84 83 82 84 78
95 90 74 71 69 70 78 79 71 51 43 52 54 55 47 42 41 34 31 31 30 26 26 27 27 26 25 25 25 26 32 35 37 38 41 47 46 47 60 68 73 76 76 77
85 72 66 71 79 79 75 74 65 58 50 47 54 62 58 48 42 37 32 30 28 28 28 29 29 28 27 27 27 27 28 31 34 35 36 38 38 42 40 41 47 52 63 80
84 67 72 77 81 76 83 58 57 52 61 80 46 79 51 53 46 43 36 33 31 31 31 30 30 30 29 28 27 25 24 25 27 30 31 34 37 38 39 41 41 40 43 51
96 81 77 86 78 65 69 74 56 57 65 59 56 68 58 38 54 45 43 34 32 33 33 35 36 37 36 33 30 29 31 33 31 29 30 31 34 37 39 41 44 48 54 66
92 82 88 90 89 89 86 58 66 68 79 93 65 68 65 48 43 42 39 34 33 40 42 44 46 45 46 42 40 38 39 39 37 33 31 30 30 30 31 33 35 38 46 50
97 97 87 79 82 76 81 77 98 98 98 93 64 71 46 42 39 38 45 39 43 43 49 51 51 54 54 53 52 51 50 47 44 42 40 36 34 34 34 32 31 33 40 55
97 100 94 83 83 83 94 88 92 89 96 83 58 82 54 39 34 33 35 44 51 53 55 57 59 60 59 60 59 58 56 53 54 52 49 47 46 46 43 44 44 40 39 43
90 93 84 84 81 75 96 99 75 73 71 88 69 58 40 48 50 54 54 52 56 59 61 61 62 61 61 61 59 56 55 56 57 59 58 57 56 55 55 54 52 50 48 47
85 98 83 81 86 87 91 84 98 92 83 79 68 64 56 58 60 54 55 61 60 63 65 63 62 61 61 61 60 59 60 60 61 62 63 62 62 62 62 61 57 53 51 49
81 78 93 92 96 81 96 100 89 70 72 83 68 59 44 52 53 53 55 59 61 63 62 62 62 62 64 63 64 64 66 65 65 66 68 68 67 64 63 63 62 60 58 57
64 81 92 89 77 76 76 89 76 91 83 77 86 56 39 43 50 47 51 54 58 57 60 62 62 63 63 65 67 69 70 68 66 65 65 66 66 66 67 68 69 68 66 65
60 81 98 96 74 77 100 90 80 73 79 87 80 54 43 48 46 43 45 49 58 62 63 64 63 62 63 64 67 71 71 69 69 68 68 69 69 70 74 76 77 75 74 75
51 73 72 83 69 78 84 78 89 94 97 80 87 52 45 49 48 49 49 50 57 61 63 63 63 62 62 64 67 71 72 72 72 73 74 72 69 70 74 80 83 85 86 82
56 70 61 60 64 70 72 73 77 86 78 82 64 61 45 45 47 46 44 50 59 62 64 63 62 61 64 66 68 72 75 76 76 76 76 73 71 73 78 83 90 90 85 83
68 87 81 80 63 59 74 72 76 74 69 69 64 68 49 37 41 40 38 44 51 61 64 63 62 62 63 66 69 73 78 80 80 79 77 76 77 81 86 90 88 87 84 80
73 85 86 79 68 67 76 69 69 74 72 62 75 51 45 48 40 42 38 41 52 60 63 62 62 63 64 68 71 76 80 83 82 78 79 80 82 86 88 88 88 84 82 80
82 77 89 93 76 92 57 54 56 59 62 67 60 51 45 44 39 34 37 42 52 60 65 68 67 64 65 70 75 79 85 85 82 78 80 81 86 86 86 85 86 85 81 80
67 78 87 93 94 72 57 61 65 70 64 62 60 59 50 46 51 56 52 50 50 60 63 65 63 63 65 69 73 82 84 81 76 79 82 86 85 82 82 86 84 83 84 85
63 61 74 92 94 92 55 52 48 55 86 62 59 61 56 66 74 68 44 46 57 61 59 58 63 66 68 71 77 81 80 78 77 83 87 84 82 83 84 86 86 87 60 27
85 88 89 87 91 75 54 52 52 81 70 63 59 55 52 75 54 42 48 58 62 58 58 61 65 66 69 72 77 80 80 77 86 88 86 85 85 86 88 85 52 27 22 19
89 91 95 92 97 93 54 55 72 64 62 61 55 53 48 50 55 59 66 66 62 60 61 64 67 72 75 77 80 80 81 79 87 90 89 85 83 85 72 37 25 19 17 14
72 66 76 78 76 49 50 50 47 58 60 60 59 58 57 60 64 66 70 69 63 66 65 68 71 76 78 80 81 76 75 86 89 94 95 85 87 63 34 27 20 18 15 12
58 56 63 60 50 50 44 47 59 60 60 59 60 60 57 52 58 63 68 69 70 71 72 69 68 69 74 76 75 78 86 91 92 90 88 90 64 36 30 23 19 16 12 10
61 60 64 66 57 52 47 44 49 57 60 60 59 60 61 63 66 66 65 68 69 72 75 73 67 66 71 77 75 83 91 89 88 91 91 68 36 31 29 23 19 15 11 10
67 71 70 71 50 51 48 48 47 59 61 63 63 65 66 64 63 67 70 69 72 73 77 78 73 72 74 74 73 79 86 84 87 85 75 37 28 30 27 20 18 14 10 8

GFSCGP_850_rhum_075.txt.gz
RH
98 91 85 89 68 70 77 70 71 59 51 57 58 53 47 40 39 38 35 33 31 30 28 27 26 28 30 34 42 47 55 62 73 82 88 88 88 84 84 85 87 87 90 92
94 94 75 73 67 71 75 77 72 55 46 53 57 58 50 44 44 39 35 33 32 31 29 28 27 26 26 26 28 36 40 40 43 48 52 57 59 62 63 72 82 85 85 82
97 77 69 75 77 80 76 78 70 59 51 49 53 59 54 46 45 41 38 35 34 33 29 27 27 28 27 28 28 28 30 34 35 36 37 38 41 45 47 46 46 53 68 80
83 70 76 82 83 77 87 63 60 54 61 74 52 86 58 49 49 49 40 36 33 33 30 28 28 28 29 29 28 28 28 28 28 29 32 36 38 39 39 41 40 40 41 42
98 82 86 86 79 69 75 71 63 60 66 65 59 74 64 43 60 52 44 40 36 33 30 29 30 31 31 30 30 29 28 28 27 28 30 32 33 35 36 38 41 44 44 43
92 84 86 88 87 74 76 62 70 83 80 93 70 73 73 53 45 40 42 40 36 34 33 35 36 36 35 34 33 32 32 34 36 36 36 35 33 32 32 34 36 38 39 41
99 96 87 80 82 73 72 87 98 98 98 94 68 71 54 45 40 40 39 37 37 36 36 42 42 41 42 44 45 44 43 42 42 42 42 40 37 34 33 32 32 33 34 38
98 99 96 86 79 80 86 75 92 89 96 84 72 85 61 45 38 36 33 32 36 43 45 45 46 50 52 56 57 56 53 50 48 47 46 47 48 47 46 44 42 41 41 41
92 97 84 81 85 78 93 99 71 77 75 91 74 62 43 42 46 44 47 44 46 50 53 52 54 56 59 60 58 56 54 53 53 54 54 54 54 54 55 55 54 53 51 49
78 97 81 83 83 86 84 81 94 96 95 87 72 71 53 45 52 63 69 64 60 58 61 60 60 62 60 59 58 57 56 56 56 57 58 60 61 61 61 61 62 61 58 55
76 76 91 83 96 87 98 98 98 95 81 80 74 60 50 45 48 64 65 68 66 63 63 63 63 61 60 59 60 61 61 62 62 64 66 67 66 64 63 62 62 63 64 63
74 81 90 86 76 72 73 78 88 96 87 84 86 66 38 46 50 55 61 64 62 62 62 62 62 61 59 60 60 62 65 66 66 66 66 65 64 65 65 66 69 71 70 68
65 89 98 98 91 86 95 81 85 95 80 88 81 62 42 48 52 53 59 61 61 63 64 64 64 63 62 61 62 64 67 69 69 68 68 68 69 70 70 72 74 76 76 73
56 75 74 79 67 83 99 93 86 96 98 83 83 55 40 44 51 52 53 56 59 60 60 62 64 64 63 62 64 66 69 71 71 72 74 74 72 70 69 73 78 83 85 84
57 74 77 68 64 76 78 79 89 94 85 88 66 71 51 41 48 47 47 48 57 60 61 62 64 63 63 63 64 67 70 72 73 76 78 78 75 72 74 78 82 89 89 85
70 82 81 84 64 74 79 74 81 90 86 89 79 67 48 39 42 44 45 52 56 57 57 59 63 64 63 63 65 68 71 74 77 80 80 78 75 75 80 87 92 91 86 81
75 86 85 82 72 67 79 67 69 74 70 70 84 58 44 50 46 42 43 47 48 45 48 54 59 62 62 64 66 68 72 77 81 82 80 78 77 81 87 90 90 88 84 82
83 77 85 91 77 96 61 48 59 59 53 65 60 56 47 44 38 36 35 37 36 36 43 53 61 62 64 66 69 72 76 81 84 84 81 79 81 86 90 91 87 86 85 81
69 82 93 94 96 74 53 60 69 69 63 57 64 56 48 45 46 48 39 36 34 36 45 56 64 67 66 66 69 74 77 82 85 82 78 82 89 89 88 87 87 84 84 83
72 68 74 96 97 90 50 56 52 56 76 62 59 61 60 60 73 67 44 41 46 48 56 62 60 61 63 66 71 74 79 84 81 80 86 93 90 87 85 85 83 84 79 39
87 88 88 87 88 82 57 50 54 75 63 66 62 60 56 75 55 42 44 44 47 57 60 57 57 60 65 68 70 76 81 81 80 84 97 97 91 86 84 84 86 52 22 18
91 92 96 92 95 91 51 60 69 61 63 63 58 61 55 52 49 45 46 53 56 59 59 58 58 61 65 70 73 76 81 83 81 95 98 92 94 89 88 82 32 20 17 13
80 76 90 82 77 51 49 55 50 51 60 62 62 59 50 48 48 55 58 65 64 60 58 59 60 63 68 73 76 78 80 83 85 100 98 96 92 91 82 33 22 17 14 12
63 58 67 65 53 56 44 45 52 59 61 61 60 61 60 63 65 62 65 69 69 64 64 66 65 64 67 73 77 80 84 84 95 100 100 98 92 84 37 27 21 18 16 12
67 63 67 69 59 54 49 43 41 54 62 61 59 60 62 63 66 70 72 69 67 68 68 71 72 68 68 75 79 81 81 89 97 99 96 87 86 50 30 28 22 19 16 12
66 70 70 73 49 47 44 42 44 47 57 62 61 62 64 64 63 63 64 68 71 75 72 73 77 76 71 73 78 80 84 83 82 82 84 84 68 34 27 26 22 17 15 11

GFSCGP_850_rhum_078.txt.gz
RH
94 91 92 88 69 72 78 76 78 62 56 62 74 59 72 73 85 86 68 56 38 32 29 28 35 40 44 56 71 77 79 81 84 84 84 86 82 84 85 86 86 88 88 87
95 90 75 73 66 74 76 78 75 59 52 62 63 61 51 50 63 62 58 46 33 29 33 30 27 28 31 34 40 55 68 70 72 72 76 78 82 83 81 81 80 80 80 82
99 79 74 72 71 78 78 81 74 63 53 58 59 63 60 49 43 44 43 38 36 33 33 33 28 27 26 27 28 34 42 45 45 48 60 68 62 62 58 56 58 61 67 73
92 73 79 81 82 74 82 66 65 60 64 80 53 84 62 48 50 50 44 41 37 36 33 33 29 28 27 28 28 28 28 29 32 34 35 35 35 36 38 44 51 54 51 46
98 83 86 87 79 66 72 68 65 62 72 67 64 77 61 48 54 45 38 41 37 36 35 33 30 32 31 30 30 29 29 29 28 28 28 28 28 30 34 37 38 38 38 39
92 85 82 84 86 67 72 70 77 84 78 90 75 77 74 57 46 40 39 37 33 31 35 33 34 35 34 33 32 31 31 31 31 31 32 32 32 32 33 34 35 36 38 40
98 95 85 79 85 75 71 78 98 97 97 90 70 82 57 48 41 39 36 30 29 36 37 33 34 36 36 35 35 35 36 37 38 39 40 40 40 39 38 36 35 34 34 34
95 99 96 83 78 84 81 80 92 88 96 89 72 89 60 45 40 35 32 31 32 32 39 36 37 39 40 42 44 44 44 46 47 48 48 48 49 48 48 47 46 45 45 44
94 98 84 81 84 81 97 96 63 85 80 91 76 67 47 44 44 40 40 38 36 34 39 44 47 46 49 51 53 54 52 51 52 53 54 54 55 55 56 55 54 53 52 52
72 96 82 87 79 85 83 80 92 96 97 91 74 70 60 40 38 44 55 54 46 44 50 55 56 59 60 60 57 54 52 52 53 54 55 56 57 58 59 59 60 59 59 58
73 74 91 86 96 93 97 97 92 83 82 87 78 62 51 45 40 43 54 57 57 52 56 62 65 65 64 61 58 56 56 56 56 57 58 59 60 60 60 59 58 59 59 60
71 81 97 82 81 71 73 76 85 94 86 87 88 60 37 42 48 46 57 63 61 54 59 62 65 65 62 60 60 59 58 59 61 63 63 63 62 61 62 62 63 65 66 66
73 89 100 99 86 87 97 85 76 87 84 93 89 72 39 47 49 54 62 64 62 59 64 66 66 64 63 62 61 60 60 61 64 66 67 66 66 67 68 67 68 71 74 75
63 81 78 81 68 83 96 88 82 91 94 77 81 67 45 40 45 52 60 60 61 62 64 66 66 64 64 64 62 61 62 64 67 69 69 70 71 72 70 69 71 77 81 85
65 85 78 70 62 83 88 86 86 96 86 96 73 70 52 45 42 40 41 55 65 68 67 64 62 62 65 65 63 62 63 65 68 71 73 75 74 74 72 72 78 86 91 89
69 86 81 88 64 79 87 81 86 87 87 84 77 77 58 48 44 42 40 53 64 63 61 59 59 64 64 64 63 64 66 68 72 74 77 78 78 76 75 80 92 98 95 88
79 84 88 87 74 70 84 73 72 76 83 78 90 69 52 54 51 42 42 49 54 53 50 52 54 57 61 63 64 65 68 71 76 80 82 83 81 78 80 92 98 98 94 86
83 79 83 88 78 94 60 46 56 65 58 72 71 63 54 49 42 38 37 39 42 43 44 46 50 56 62 66 66 68 72 74 80 86 87 85 82 83 92 97 98 96 92 87
67 78 90 95 93 75 56 55 70 72 63 59 61 55 52 50 46 44 38 36 35 39 39 40 45 57 63 64 66 69 73 76 82 85 88 87 84 89 95 96 94 93 89 86
76 70 74 97 96 94 52 57 54 57 82 53 65 63 64 60 69 59 39 37 37 38 37 44 52 61 64 65 67 70 74 78 80 86 86 88 96 98 95 93 92 90 89 73
92 99 96 96 92 76 60 50 57 76 62 67 68 63 65 74 56 44 41 45 45 44 46 47 58 58 58 61 65 70 74 76 83 85 85 97 100 100 98 92 88 90 63 24
86 96 97 97 97 91 53 65 70 59 61 64 66 60 65 58 51 48 47 54 51 47 49 59 57 56 58 62 67 70 73 80 83 84 86 100 100 99 94 91 90 57 26 19
83 78 91 82 76 51 52 56 51 53 58 63 64 57 56 57 56 52 53 55 57 58 62 58 58 59 60 64 69 73 76 80 84 86 98 100 100 98 94 90 59 24 20 14
68 64 70 69 55 62 49 45 44 51 60 64 62 63 59 56 61 63 66 67 69 66 61 61 63 64 63 66 70 75 80 83 84 85 100 100 99 96 93 76 28 22 17 13
72 65 70 70 60 55 50 46 40 43 59 64 62 62 63 64 69 68 69 68 67 66 66 66 68 70 70 67 69 76 80 83 86 94 100 100 98 90 86 38 27 21 19 15
69 70 71 70 49 46 42 39 42 46 49 59 62 61 62 63 62 62 63 67 72 74 78 74 70 72 76 72 69 74 78 80 84 97 98 95 88 85 70 35 31 23 20 16

GFSCGP_850_rhum_081.txt.gz
RH
96 91 86 86 69 70 70 70 65 66 63 81 85 76 68 81 72 66 65 59 59 50 40 34 47 64 68 64 66 73 77 79 84 84 81 84 82 84 83 83 86 88 89 90
91 89 75 74 67 73 72 77 76 62 60 70 74 82 62 76 76 69 63 55 54 52 43 33 31 37 62 66 59 62 69 75 78 79 78 79 78 75 73 79 85 86 84 80
100 88 72 72 75 78 79 79 74 70 57 57 66 72 65 57 70 67 57 55 52 52 44 35 31 29 32 41 44 46 54 67 71 68 64 64 66 63 65 68 68 66 68 73
92 77 75 79 77 71 82 68 65 62 69 85 56 84 65 57 68 58 59 43 46 44 41 36 32 32 28 28 31 33 38 48 50 49 52 53 52 53 47 43 44 52 58 64
97 85 85 86 78 60 71 68 66 63 70 69 67 74 62 52 59 51 48 47 40 43 39 38 35 32 30 29 30 32 35 35 35 34 34 33 32 32 31 32 35 40 43 45
92 86 78 80 83 68 70 72 75 79 74 90 74 70 68 56 44 40 41 42 40 37 36 35 34 34 32 32 32 32 31 30 30 30 29 29 29 29 28 29 32 35 37 38
97 94 84 78 84 75 66 76 92 94 95 90 73 80 57 45 45 39 36 34 34 35 34 34 32 33 32 33 32 33 32 32 32 32 32 32 32 33 33 33 33 34 35 35
99 99 89 81 78 84 81 77 87 93 92 83 72 79 57 46 42 39 35 33 33 33 35 39 37 33 31 32 35 35 35 36 36 36 37 38 40 40 41 42 41 41 41 40
90 94 82 81 83 79 87 89 65 83 80 84 67 62 44 41 38 38 37 36 34 34 34 40 38 37 40 40 41 43 44 44 45 47 47 47 47 48 49 50 51 51 52 52
76 96 82 84 80 82 80 74 86 95 97 92 71 64 49 38 33 35 36 36 38 37 36 42 45 55 56 57 56 54 53 52 50 50 51 52 52 53 54 55 56 56 56 56
71 73 93 90 97 95 95 93 89 78 78 82 75 53 46 44 37 37 38 36 44 45 43 48 62 66 62 59 58 57 54 53 52 53 53 55 56 58 58 59 58 56 56 56
69 77 89 87 80 74 73 81 78 86 84 86 76 61 37 39 42 46 44 48 54 57 49 60 66 65 64 64 60 57 56 56 56 57 59 59 59 60 59 60 60 60 60 60
75 93 96 97 87 81 89 79 76 81 81 96 89 65 39 44 45 44 53 56 63 57 64 64 66 63 63 62 60 58 57 58 60 61 63 64 64 63 64 65 65 64 64 66
66 89 77 77 68 82 98 92 82 86 96 74 76 64 50 45 46 42 41 53 62 56 58 61 65 65 65 64 62 61 61 60 61 64 67 68 69 69 68 68 67 67 70 74
86 100 90 79 63 82 84 85 88 96 81 86 67 64 51 47 43 43 41 42 62 61 65 64 63 63 64 63 64 63 61 63 64 67 69 73 74 75 73 71 70 69 75 83
70 98 81 86 68 73 85 83 89 84 78 79 72 75 51 48 48 54 56 53 53 59 64 62 61 63 61 60 63 64 63 64 68 69 72 74 78 78 78 75 76 84 93 91
82 94 97 94 74 71 90 80 76 73 81 77 90 67 55 60 60 57 55 57 49 42 55 62 59 57 57 60 63 64 65 67 70 72 76 79 81 82 79 78 89 97 98 94
88 81 86 94 78 95 58 47 63 69 60 69 72 62 58 58 55 54 47 39 36 43 49 56 57 54 57 61 65 67 68 69 71 73 78 82 84 84 81 85 99 99 99 95
66 80 96 95 90 74 55 53 64 67 57 60 61 58 57 58 55 52 46 42 39 35 40 48 47 50 54 59 63 67 68 71 73 75 80 85 86 85 86 97 100 99 97 93
72 74 98 97 97 90 55 55 58 57 80 52 60 63 64 62 76 59 45 44 40 36 38 43 47 44 53 60 65 67 69 72 74 78 83 90 89 91 98 100 100 99 98 92
94 99 95 95 94 83 55 56 57 78 57 59 68 69 68 76 59 51 47 44 42 42 39 41 40 50 58 62 63 66 70 71 76 82 87 88 91 99 100 100 98 98 94 71
85 94 97 97 97 90 55 65 67 58 60 63 67 67 63 64 59 56 54 56 52 46 48 50 52 60 58 57 59 63 68 74 78 83 87 86 97 100 100 99 96 95 92 40
90 79 89 81 74 53 54 50 46 54 55 62 65 64 55 56 57 56 57 58 59 58 56 59 62 57 56 57 60 66 71 76 80 85 87 90 100 100 100 99 94 92 45 26
93 68 79 72 57 64 48 45 45 48 50 58 64 64 56 54 57 59 64 64 65 64 64 63 59 60 61 61 62 68 75 79 83 87 90 98 100 100 100 97 92 64 27 21
79 76 73 74 59 52 51 45 40 41 44 59 64 63 68 70 71 69 68 66 67 68 66 64 63 66 71 67 65 67 74 79 83 85 89 100 100 100 98 91 81 29 23 20
76 75 74 74 52 51 42 39 41 44 45 55 63 62 62 63 64 64 66 70 73 73 74 74 73 68 70 73 73 69 72 78 83 85 91 100 100 100 95 90 60 28 23 21

GFSCGP_850_rhum_084.txt.gz
RH
92 89 64 50 52 47 47 51 51 47 51 56 51 49 42 42 51 46 43 36 36 44 45 41 37 70 73 66 63 66 72 80 83 86 87 86 83 83 83 81 83 84 84 85
94 87 49 56 53 50 49 46 48 51 49 59 49 53 43 40 46 46 44 44 36 40 45 44 39 33 66 66 64 60 60 70 71 78 84 84 80 79 81 78 75 80 83 84
99 83 56 54 59 55 50 44 49 48 48 53 54 50 47 42 46 48 48 54 44 40 45 49 44 34 31 63 61 57 54 54 58 61 68 74 75 70 72 69 67 72 76 75
77 70 64 56 56 50 61 52 50 54 54 59 50 50 43 37 41 43 43 46 48 48 50 51 44 33 31 30 47 49 53 53 55 61 78 79 79 78 72 63 62 60 54 55
92 80 67 63 56 48 51 54 53 54 54 55 56 63 36 37 40 39 39 42 45 49 47 48 45 36 34 32 29 34 39 45 58 68 66 62 55 47 42 38 35 34 35 38
89 78 58 48 64 56 57 57 55 53 51 66 41 53 37 35 31 31 34 37 43 45 45 44 42 39 36 33 32 31 34 37 41 42 38 33 31 30 29 29 30 30 31 34
94 89 74 72 65 61 56 57 78 77 82 59 51 53 34 26 30 28 28 29 34 42 46 40 45 40 36 34 32 32 33 33 32 31 31 30 30 30 30 30 30 32 33 34
100 97 85 67 61 68 55 50 56 67 56 44 58 53 30 27 29 32 32 32 34 35 36 38 39 39 35 35 32 33 35 35 34 33 33 34 34 33 34 35 35 36 38 38
76 90 78 74 68 62 70 86 52 70 61 63 42 42 33 25 28 29 31 35 36 36 32 29 33 36 44 37 38 38 38 39 39 38 37 37 38 39 40 41 42 42 43 44
59 90 80 86 73 73 65 49 76 86 81 66 48 45 29 26 25 23 22 26 29 39 37 33 33 39 48 47 45 47 46 45 44 44 43 44 44 46 47 47 48 49 49 50
55 60 91 92 96 97 83 74 70 55 55 60 47 34 26 30 26 27 26 34 43 46 51 40 50 56 57 55 56 54 52 51 50 48 47 48 50 51 51 52 54 54 53 52
54 59 85 77 66 61 60 57 57 67 67 59 59 41 28 26 28 32 33 46 59 52 57 68 65 58 57 58 56 56 56 54 52 53 54 54 55 56 57 58 57 57 57 57
62 88 92 90 79 76 86 66 62 55 64 87 64 43 29 32 32 37 39 41 56 65 67 75 77 64 60 59 58 57 56 55 56 56 58 59 60 61 63 63 64 64 63 64
57 78 64 57 56 56 80 64 61 77 96 63 65 46 31 31 34 34 33 35 44 49 68 76 79 73 66 62 62 59 56 57 57 57 59 61 64 66 68 69 68 68 67 69
83 100 79 63 59 66 68 65 65 88 77 79 55 48 40 32 28 28 35 40 46 60 66 70 74 67 62 63 62 59 60 60 60 61 62 65 68 71 73 74 74 71 70 72
92 100 100 100 84 69 76 63 61 61 64 60 56 55 36 34 35 39 41 42 47 48 63 70 74 71 62 62 62 61 62 62 61 63 65 66 68 72 74 75 74 73 75 87
79 92 93 87 86 95 92 66 61 60 56 58 73 52 38 40 42 44 42 43 47 49 50 59 68 58 63 61 61 60 63 64 64 66 67 69 70 74 77 78 77 77 96 100
98 86 83 78 70 87 43 46 50 51 47 46 52 46 41 40 42 48 48 48 47 46 48 56 64 61 59 60 60 62 66 66 66 67 69 71 76 79 80 81 83 92 99 100
87 88 97 84 72 50 45 47 53 54 45 41 45 42 43 44 52 54 52 53 52 47 45 50 56 53 58 58 60 62 66 68 69 70 72 74 79 84 86 86 93 100 100 100
78 76 81 94 78 68 38 50 48 47 54 48 49 48 51 59 60 46 50 50 50 46 42 40 50 54 56 57 59 64 67 70 71 72 74 77 83 87 89 92 100 100 100 100
97 100 95 85 80 59 39 48 54 53 44 54 65 65 66 61 51 58 52 52 49 47 44 40 49 49 49 51 56 62 66 68 70 74 78 82 85 89 90 100 100 100 100 99
83 91 84 74 86 72 50 59 52 39 58 59 66 68 66 65 63 59 57 58 54 47 44 42 48 46 45 55 61 61 62 66 72 76 80 82 88 88 97 100 100 100 100 98
87 69 63 58 50 47 51 40 44 49 54 59 67 66 54 54 57 58 60 61 62 57 53 51 52 53 59 60 57 58 62 66 72 76 79 84 88 94 99 99 100 100 100 94
99 98 77 63 41 49 50 47 48 48 54 54 60 63 58 55 56 57 64 62 59 59 59 60 62 63 58 58 58 61 63 68 72 76 80 84 88 98 100 100 100 100 97 87
58 71 93 62 50 46 46 49 47 42 44 46 58 64 68 72 69 69 68 68 69 67 65 63 62 61 63 64 65 64 64 69 74 78 81 86 89 99 100 100 99 95 90 44
42 49 69 65 61 56 46 51 47 44 45 46 63 64 65 65 66 67 69 73 72 70 70 77 82 79 74 79 79 70 67 69 74 77 79 84 92 99 99 100 99 95 68 31

GFSCGP_850_rhum_087.txt.gz
RH
93 85 63 44 38 36 30 34 29 27 35 48 46 40 35 31 38 41 35 30 27 29 37 47 45 49 66 93 95 98 96 85 95 93 95 94 94 96 95 98 100 99 100 99
86 70 46 36 35 43 42 35 37 38 38 42 36 37 31 29 30 33 35 32 29 27 32 46 44 37 51 70 74 87 78 82 84 96 97 95 92 97 92 93 91 89 93 94
98 59 50 47 49 45 41 38 47 42 41 41 40 44 36 29 30 32 35 35 36 36 28 37 42 36 35 50 73 65 65 69 76 84 98 86 78 80 90 93 90 88 81 84
79 62 58 50 46 39 47 34 33 40 48 50 39 38 23 24 29 30 33 34 34 41 36 33 44 42 35 36 55 64 67 64 64 65 58 55 59 72 79 88 86 54 57 63
74 67 60 52 41 39 42 42 43 45 47 47 47 53 31 24 30 28 28 31 32 37 43 38 46 42 39 34 32 43 59 60 53 57 58 50 51 66 68 54 64 47 36 34
75 69 48 42 42 46 47 47 44 47 52 87 44 46 35 26 28 24 22 26 29 33 40 44 46 44 44 36 35 31 31 40 47 52 56 64 71 63 52 40 33 31 30 29
92 76 56 63 60 50 47 47 73 77 85 64 33 34 33 21 20 21 22 23 27 30 35 42 44 45 46 41 36 33 32 30 34 41 48 51 43 35 31 30 31 31 31 30
95 100 69 49 51 52 48 46 54 59 47 39 42 44 30 19 20 18 24 27 29 30 34 41 44 43 45 40 37 35 34 31 33 36 36 34 32 34 33 32 32 32 34 34
97 97 65 62 52 59 56 67 39 58 47 49 35 32 23 20 23 26 26 28 30 30 32 39 42 43 51 51 40 36 34 36 36 39 39 37 35 35 34 34 36 38 40 41
78 98 75 73 64 61 75 46 71 75 69 53 28 34 27 21 21 20 20 22 24 27 32 35 36 48 54 56 50 46 47 44 39 40 41 41 41 40 40 43 45 45 44 46
43 69 86 92 91 59 68 70 61 52 40 49 35 31 22 22 21 25 24 32 37 38 37 38 46 55 59 60 58 44 49 42 45 46 44 43 43 44 47 48 49 51 52 52
47 65 99 84 68 58 54 53 50 65 59 51 49 44 21 23 23 26 31 40 47 52 51 52 53 67 61 59 55 58 53 52 52 50 47 47 48 49 50 51 52 54 55 54
52 85 86 94 86 73 88 76 64 50 49 97 64 43 26 26 27 30 32 32 34 51 56 59 64 70 75 73 67 63 57 55 51 49 49 49 51 53 54 55 56 57 58 58
71 72 66 67 67 52 76 61 56 68 100 64 62 43 30 27 31 29 31 28 30 35 53 57 64 70 71 75 73 63 59 56 52 52 53 53 54 56 58 60 61 63 63 63
96 100 82 59 53 52 63 59 55 80 73 80 54 46 35 30 28 25 25 27 32 37 46 57 63 66 68 73 71 67 63 57 54 55 56 58 60 62 64 65 66 66 67 65
94 100 99 100 94 59 66 55 54 54 55 62 58 54 34 32 31 30 29 30 34 38 40 51 62 64 68 70 69 64 60 56 57 58 59 60 63 65 67 69 70 70 70 70
100 100 100 95 96 100 98 72 59 54 48 49 64 48 35 35 33 34 34 36 36 37 41 43 56 63 65 68 68 65 63 59 60 60 61 62 65 67 69 72 73 76 74 75
100 99 97 93 92 92 41 42 44 47 43 40 41 39 36 34 33 34 36 38 40 39 39 45 45 56 64 68 71 69 63 60 61 62 63 65 68 72 73 76 80 79 81 95
96 98 99 86 70 41 37 44 46 48 41 34 37 32 30 32 38 44 45 46 46 43 42 41 44 49 62 69 72 67 63 62 65 67 68 70 72 75 75 79 82 84 92 100
93 100 100 96 91 59 39 41 38 37 46 37 38 40 45 51 60 44 57 53 49 49 47 45 52 55 62 71 69 62 60 61 64 67 69 71 74 76 76 81 86 92 100 99
98 98 97 78 69 50 34 44 45 49 46 51 54 56 58 57 48 55 60 62 54 49 50 53 50 65 70 74 65 62 58 60 66 69 72 73 76 78 81 87 92 100 100 100
79 86 94 85 86 67 39 50 48 40 48 47 54 61 60 56 57 59 65 67 63 54 52 48 46 66 69 62 56 53 53 60 65 68 70 74 77 79 83 90 96 100 100 99
72 73 90 56 51 45 45 37 43 39 40 46 59 64 65 58 57 62 65 65 70 65 56 52 56 56 55 52 51 55 62 62 62 66 71 75 79 82 89 91 100 99 100 100
69 93 86 62 40 39 42 44 43 48 47 51 56 63 67 61 64 65 68 66 67 66 67 63 60 58 58 62 64 63 59 60 64 69 74 77 79 84 89 94 100 99 100 100
41 59 84 76 55 48 40 47 52 49 45 51 54 64 71 74 73 72 71 69 70 67 66 67 68 67 64 61 61 61 62 64 66 71 76 77 79 84 88 99 100 99 100 100
40 40 43 47 64 67 51 57 60 60 55 53 56 69 66 70 75 71 72 71 72 70 70 70 69 67 67 67 73 79 83 75 69 71 76 77 78 83 88 99 99 100 100 100

GFSCGP_850_rhum_090.txt.gz
RH
86 95 83 57 50 35 38 42 40 41 52 63 50 48 45 34 42 42 39 37 33 30 36 44 44 53 67 79 88 80 86 89 94 92 91 93 90 87 83 85 90 95 92 94
89 84 50 40 39 39 47 40 40 50 51 61 47 48 39 34 34 41 40 37 34 30 30 43 43 46 54 62 82 88 80 78 83 86 80 80 78 85 81 83 88 88 88 97
83 78 53 48 44 49 50 50 49 52 44 41 44 51 40 32 28 29 33 34 34 32 30 44 41 42 46 51 63 74 79 75 70 80 84 78 76 78 79 76 80 83 89 90
69 58 58 55 54 45 56 37 54 56 52 66 45 70 41 36 35 32 30 31 34 34 32 40 43 41 42 48 50 63 67 69 69 72 73 72 67 64 67 69 72 65 57 66
75 71 64 62 46 40 49 40 51 56 52 55 54 68 48 29 39 34 32 30 32 34 34 36 44 40 38 38 47 56 63 69 68 70 65 67 60 68 60 58 54 53 59 50
69 69 67 54 47 39 45 50 44 47 56 96 66 61 54 37 29 28 28 29 30 32 33 38 44 45 39 36 36 41 63 67 68 65 63 58 56 63 52 57 64 54 46 35
76 74 55 61 68 57 56 63 90 93 91 91 40 54 47 30 23 23 26 25 26 28 30 37 46 48 40 39 36 35 34 37 46 61 65 52 65 68 74 64 49 35 32 29
93 93 77 58 69 66 63 63 82 73 75 60 39 59 40 22 22 23 22 24 27 28 31 36 44 46 44 43 40 39 35 34 38 40 41 49 57 56 47 36 31 31 31 30
83 76 60 57 50 52 65 75 51 90 61 70 56 40 29 24 25 26 26 27 29 29 28 38 39 45 45 43 41 40 38 36 37 40 39 35 35 35 33 32 33 34 33 36
80 96 76 67 63 62 78 60 76 92 90 62 38 34 39 25 27 30 27 28 28 30 31 32 41 46 47 45 47 45 42 36 41 45 41 38 35 34 34 35 37 35 35 38
75 92 95 86 88 78 87 97 90 64 62 74 60 46 29 28 33 33 38 38 40 38 32 34 37 39 53 54 55 52 51 44 39 42 46 36 36 41 45 41 37 38 42 45
52 95 92 88 77 61 56 69 81 97 74 67 79 63 23 30 30 28 39 44 47 44 46 44 41 42 50 58 64 59 61 66 56 49 47 46 50 45 41 40 44 47 48 49
63 99 98 99 95 78 92 73 61 68 80 87 85 60 30 28 28 29 34 31 33 43 45 53 55 53 47 58 64 63 68 68 64 57 51 48 46 44 46 49 50 52 54 56
85 89 70 68 75 75 95 77 64 78 98 78 77 55 38 35 34 31 34 32 31 33 44 51 61 66 67 62 65 71 76 71 62 57 52 51 51 53 54 54 55 57 59 60
93 99 98 66 55 74 88 71 71 91 89 82 62 58 44 36 34 31 29 31 31 33 37 46 55 65 70 73 73 75 73 64 60 56 54 54 56 56 56 59 60 61 63 65
99 99 100 98 89 97 92 70 61 64 68 75 66 62 42 40 39 37 34 32 34 35 37 37 50 62 67 72 75 74 67 62 60 57 56 57 58 58 60 62 63 63 66 68
95 98 98 98 98 100 99 92 66 59 55 59 79 57 43 45 40 36 34 34 35 36 36 37 40 50 64 68 68 67 64 61 59 57 59 58 59 61 63 64 66 68 71 72
89 85 93 99 98 97 56 48 55 55 51 50 49 47 43 41 37 36 35 37 37 38 39 39 42 45 49 65 68 66 64 61 60 59 61 62 63 66 66 68 68 69 74 76
77 82 97 98 95 56 45 50 55 64 62 48 48 43 37 33 38 37 44 46 46 47 46 42 41 44 48 58 67 70 67 61 60 59 61 62 65 66 68 70 71 73 79 81
84 81 99 98 97 89 50 42 36 38 63 46 39 44 51 51 75 66 55 54 52 49 47 46 45 43 46 60 67 69 66 61 56 58 60 65 68 71 72 73 74 81 84 93
98 98 94 95 95 65 48 44 42 56 70 54 53 57 59 66 61 57 52 54 57 55 49 50 48 48 54 63 68 70 68 64 61 65 67 69 71 73 74 75 78 83 89 100
83 93 93 89 96 90 48 50 49 53 47 47 53 61 62 60 56 56 62 62 64 62 54 55 52 59 64 67 70 72 70 71 68 68 71 74 75 76 77 78 83 88 94 100
76 87 93 97 78 50 46 46 43 43 42 47 58 65 66 60 58 59 63 64 65 66 60 60 65 69 72 73 74 73 74 71 71 73 71 71 74 74 76 80 86 91 100 100
74 84 86 82 55 61 56 46 53 50 48 48 54 57 65 63 66 69 69 69 69 68 69 65 65 69 70 71 70 70 72 71 70 66 65 69 72 75 77 84 89 94 100 100
57 51 63 77 61 57 55 61 62 63 56 48 48 52 66 72 73 72 71 70 70 68 69 72 72 70 69 70 70 68 65 64 63 64 67 69 70 72 76 83 89 98 100 100
48 47 55 61 48 66 68 58 70 75 74 63 56 59 67 72 75 74 73 74 74 72 72 71 68 68 66 66 66 68 70 75 78 76 72 71 75 79 78 84 91 99 99 100

GFSCGP_850_rhum_093.txt.gz
RH
87 84 83 73 63 53 51 51 54 61 68 71 78 70 55 42 42 42 40 39 37 40 42 41 36 49 81 80 80 83 83 76 95 94 99 94 83 83 83 84 87 85 87 80
84 82 67 60 54 52 48 48 53 68 64 71 73 71 53 46 45 42 40 39 38 34 38 47 41 41 59 80 85 82 84 78 80 82 78 96 83 84 80 84 83 83 87 85
80 80 68 61 60 52 51 56 53 71 63 68 73 76 52 42 38 39 38 32 34 36 34 44 46 42 42 50 69 76 76 75 78 80 84 88 90 91 85 83 82 82 82 84
75 64 67 69 61 52 63 49 55 61 71 84 52 81 55 42 43 38 40 40 36 34 35 38 43 44 42 36 45 61 64 64 72 76 79 78 74 74 75 76 78 77 72 73
74 77 73 70 58 45 54 52 59 68 59 64 58 76 66 41 45 39 38 33 37 33 32 39 42 42 42 42 46 61 73 75 67 74 70 73 76 75 73 68 69 65 53 47
72 67 71 64 58 51 48 54 56 56 67 91 72 76 73 48 37 40 36 30 29 31 31 32 36 37 43 42 44 59 73 77 83 69 67 70 68 72 72 64 65 64 55 52
82 75 71 60 66 62 55 69 95 94 95 88 60 75 60 43 35 30 36 33 31 30 31 33 35 36 46 41 39 47 55 71 75 76 73 71 71 67 65 59 62 62 67 68
93 74 81 66 72 72 73 75 88 81 95 73 51 68 48 35 28 26 26 26 28 31 32 34 34 44 45 42 37 37 37 42 56 70 73 67 73 64 64 74 71 68 47 32
95 83 68 62 59 60 68 81 57 86 78 84 64 49 36 31 28 29 28 29 28 28 28 34 38 43 47 45 39 36 36 36 36 38 51 71 74 65 68 68 53 42 34 34
72 93 77 68 61 69 72 65 76 97 94 78 54 48 46 28 31 34 40 36 32 32 31 38 46 48 46 45 44 44 44 39 38 39 41 46 50 50 44 37 35 35 36 38
75 92 94 80 90 86 91 93 84 76 74 74 60 49 33 35 40 47 49 43 37 32 30 31 34 43 48 48 46 46 43 41 40 46 45 50 48 44 40 40 41 42 42 39
79 98 99 98 79 64 65 83 80 92 84 78 80 62 33 37 42 46 47 39 35 34 37 37 37 38 39 50 51 51 49 49 55 50 54 61 60 47 43 44 46 40 39 42
85 99 99 99 98 87 98 84 86 88 91 91 80 66 34 35 34 40 44 40 39 37 35 33 34 37 44 48 57 58 60 60 58 57 58 61 66 68 69 59 57 59 53 54
81 100 99 93 95 84 99 79 76 95 99 85 86 57 39 37 36 34 35 33 36 43 41 40 38 36 44 54 66 71 72 72 75 76 66 70 76 67 56 51 48 53 57 58
92 99 100 96 81 94 96 83 86 99 86 81 61 62 47 44 40 34 34 33 35 37 44 39 37 38 43 53 66 79 75 71 68 62 56 58 59 58 55 52 55 60 61 61
98 96 99 98 87 97 85 80 81 81 85 84 79 73 43 38 41 43 40 38 38 35 35 36 37 38 43 49 58 65 72 68 64 60 60 60 59 57 56 57 59 62 63 65
90 98 94 93 99 99 99 94 82 66 68 76 91 65 47 51 48 44 40 37 37 37 37 38 38 41 42 45 56 60 62 67 66 65 62 60 59 58 59 60 63 64 66 68
91 92 97 95 99 96 60 53 62 66 54 57 59 56 51 48 44 42 40 39 37 36 37 38 38 40 44 49 59 62 62 65 67 64 61 59 60 62 63 66 68 69 71 73
79 87 97 100 97 77 47 44 68 74 68 55 58 53 47 42 40 43 48 49 50 50 47 46 46 42 45 49 56 63 66 65 67 66 62 62 64 64 65 67 69 71 72 73
85 84 88 95 96 85 54 42 38 40 60 56 49 52 48 53 59 63 55 54 50 48 47 46 47 45 43 50 54 62 65 65 66 67 65 67 68 68 70 72 74 76 76 79
98 97 89 88 96 80 50 42 41 51 53 57 59 61 61 70 66 58 52 52 55 56 54 50 51 51 46 46 57 65 66 67 65 69 70 71 71 72 77 76 77 78 80 85
84 96 96 88 99 94 51 47 50 56 50 50 55 63 64 62 57 53 56 57 60 61 56 54 54 52 48 49 62 66 68 70 72 72 72 72 73 75 75 75 77 78 83 89
79 89 91 99 90 80 79 68 64 56 51 50 61 67 66 61 60 60 63 65 63 65 60 62 66 65 63 67 70 69 72 74 74 73 72 73 73 73 73 75 77 80 87 95
82 80 93 76 65 65 93 69 74 71 66 55 54 56 62 64 69 70 69 69 71 68 69 63 66 72 76 77 76 78 77 76 74 72 74 71 68 70 70 72 76 83 88 99
66 58 70 78 58 55 74 66 76 76 72 67 55 51 51 72 74 73 74 72 70 70 70 70 70 68 68 70 72 72 72 73 74 72 70 68 70 71 72 76 79 82 88 98
58 59 65 70 61 62 58 52 57 78 74 79 76 62 65 72 76 75 72 73 73 73 74 72 71 69 67 67 67 67 67 68 69 70 72 74 77 77 80 86 86 86 94 99

GFSCGP_850_rhum_096.txt.gz
RH
76 74 76 69 64 58 57 76 75 67 70 76 76 81 75 74 68 49 46 47 47 49 42 42 55 69 73 81 82 84 82 83 90 93 94 92 82 79 83 85 81 76 76 80
75 70 78 72 64 58 56 59 63 67 64 71 66 66 60 70 62 48 44 45 43 41 43 43 44 62 60 68 77 80 80 78 82 90 95 98 92 82 78 81 78 82 83 84
79 74 69 65 64 58 56 57 67 71 76 72 72 74 67 56 50 46 42 41 39 38 38 38 42 44 58 53 53 64 70 74 77 78 75 87 91 94 83 80 87 85 83 81
76 65 69 71 63 55 64 52 51 69 80 94 72 90 58 56 47 46 41 39 40 37 33 34 37 39 42 57 61 57 55 59 66 72 73 72 72 71 82 83 83 82 83 83
71 77 82 72 62 54 57 52 62 70 68 63 71 72 68 52 52 43 42 37 34 35 32 31 35 36 41 43 57 76 78 76 74 77 74 70 69 71 79 84 83 82 83 81
72 66 73 71 63 57 48 61 64 80 89 94 68 71 70 61 45 37 36 34 31 32 34 34 34 33 42 46 48 72 72 80 82 83 80 74 69 70 71 76 81 81 78 71
78 73 71 64 65 60 59 89 99 98 98 92 67 81 62 47 43 34 34 30 30 29 30 35 34 34 36 39 42 44 55 75 69 67 65 69 71 73 73 71 73 70 67 68
97 72 82 70 67 71 73 91 92 83 92 78 65 84 56 40 34 32 27 30 29 29 29 33 34 32 34 35 36 43 43 51 68 70 66 69 67 69 71 72 73 76 72 69
97 84 68 69 65 62 74 87 60 83 80 87 63 52 39 35 30 33 33 32 32 32 32 30 31 34 36 35 42 44 41 42 46 62 73 70 72 68 69 71 71 72 68 66
69 98 74 68 66 74 68 64 89 98 97 85 63 62 48 32 38 36 41 38 34 31 30 31 32 33 38 43 45 42 38 38 39 42 49 61 70 84 87 83 73 70 65 55
66 90 88 86 89 88 86 92 81 71 68 82 61 54 36 36 35 44 47 40 35 32 33 40 48 47 48 47 46 44 41 40 41 39 40 45 54 58 60 59 53 44 41 41
74 96 98 84 85 84 80 77 70 83 83 78 77 56 37 41 47 50 52 42 38 35 32 31 35 39 44 50 50 50 49 48 46 42 42 43 45 46 44 43 45 47 46 45
81 100 97 97 93 91 98 83 80 88 88 88 79 58 38 38 52 48 44 39 36 35 33 31 31 29 31 35 44 53 54 51 47 48 52 56 55 50 47 48 55 63 70 65
76 96 98 96 98 98 100 98 84 87 98 87 86 54 41 42 42 46 45 41 40 37 36 34 33 30 28 34 38 49 58 60 59 60 61 61 61 58 58 63 70 77 78 64
86 93 94 90 87 99 100 97 98 99 88 85 68 70 51 42 42 35 37 38 37 37 40 38 34 33 32 29 34 43 55 66 68 71 71 70 76 79 72 70 73 66 61 59
92 94 97 84 80 86 88 96 97 98 92 80 86 81 46 38 40 44 43 40 37 38 35 34 34 35 35 36 35 41 50 62 71 74 77 76 70 63 59 58 59 61 63 60
91 98 90 83 76 91 92 84 90 88 86 89 97 70 50 60 53 50 46 44 41 37 36 37 38 38 39 40 40 41 47 59 69 73 75 71 66 62 59 59 60 63 65 68
88 93 96 92 96 97 70 57 69 76 66 64 70 64 58 52 49 46 46 44 40 38 37 37 38 39 40 42 46 48 57 62 73 74 73 72 66 62 60 61 63 67 69 69
80 88 97 97 96 85 52 46 73 78 68 62 64 59 56 51 47 46 47 49 48 50 51 50 48 44 43 41 44 52 60 65 73 72 70 68 65 62 63 65 67 70 72 72
86 81 78 90 96 84 57 50 43 49 64 64 60 60 56 50 63 57 57 57 52 50 47 44 46 46 46 44 45 52 60 68 67 66 65 66 66 67 69 71 73 75 76 76
92 92 96 91 99 81 76 65 47 55 54 60 63 64 63 71 60 59 54 53 54 54 53 52 50 48 49 46 43 49 60 63 64 66 69 70 68 71 74 75 76 77 78 78
85 96 96 92 99 94 92 72 78 77 67 54 59 66 66 63 59 54 56 57 59 59 57 56 55 55 54 50 47 49 58 62 68 71 71 71 71 73 75 78 80 80 78 79
91 90 89 92 81 86 88 87 77 84 82 81 65 69 66 61 59 60 63 65 66 63 64 62 66 65 57 52 52 58 63 69 72 74 74 74 74 78 80 79 77 76 77 79
71 80 93 84 69 58 84 90 94 88 77 83 72 62 64 60 65 68 68 69 69 67 68 64 69 78 78 74 72 74 74 74 75 76 77 77 77 78 77 76 74 75 76 80
70 63 69 80 59 71 68 58 58 74 83 78 75 71 57 65 73 73 73 72 69 69 68 69 70 71 77 80 79 79 79 79 80 80 80 79 78 74 74 76 79 78 81 84
67 66 71 73 65 64 57 54 47 63 67 87 90 81 73 74 79 78 77 74 72 71 74 75 72 70 71 73 74 74 76 78 78 76 73 71 73 76 81 84 85 87 92 92

GFSCGP_850_rhum_099.txt.gz
RH
68 80 82 83 77 67 70 78 79 78 79 86 86 86 80 74 66 62 54 49 47 54 44 58 71 83 82 82 82 79 77 79 85 91 90 87 85 86 86 84 78 79 78 75
68 73 80 76 64 61 60 74 70 68 75 75 86 85 79 81 73 60 55 52 44 46 45 44 50 60 67 77 82 84 81 79 78 78 84 89 87 85 86 83 78 76 78 78
66 70 71 66 62 60 60 63 67 71 79 74 78 81 76 69 66 59 59 53 47 43 42 42 44 44 47 58 69 73 78 80 79 79 85 84 91 92 91 86 81 78 74 78
74 68 70 67 65 57 64 54 54 84 86 94 69 77 62 64 68 62 59 52 44 43 43 40 38 38 40 40 41 49 63 63 68 78 82 84 78 80 74 79 79 80 84 82
63 76 77 71 64 59 59 57 62 82 72 73 90 81 66 54 68 57 53 49 43 38 41 40 39 37 34 36 39 48 51 50 61 65 72 69 81 76 72 71 74 77 84 84
69 68 76 70 63 61 51 69 83 90 84 95 77 80 72 67 51 46 44 40 37 33 33 35 37 32 34 34 40 48 60 66 64 65 66 69 69 72 74 73 75 78 78 80
78 72 69 70 71 59 69 83 98 98 98 92 70 82 71 49 46 41 38 32 28 29 31 31 33 34 32 35 38 47 54 63 73 70 74 75 73 72 74 74 72 72 72 72
96 74 79 71 69 70 82 92 93 89 95 94 72 86 66 40 36 37 31 28 28 27 28 28 29 30 33 34 35 43 45 45 53 58 64 64 65 68 73 74 72 72 74 74
97 83 63 71 68 64 80 93 81 98 81 90 81 57 41 36 36 33 35 35 34 32 32 30 29 29 34 34 35 36 36 39 44 48 58 67 69 66 67 72 71 71 76 82
70 96 72 69 73 80 73 72 91 98 96 92 72 63 51 33 35 36 42 37 33 32 34 32 30 29 30 34 35 37 41 45 46 48 50 52 64 74 75 76 76 76 78 82
66 89 79 94 94 87 90 89 78 78 86 91 72 56 46 41 31 39 42 38 36 34 32 32 34 33 34 37 37 40 46 45 42 41 40 40 41 49 67 81 86 87 82 78
67 85 90 87 88 91 86 78 75 87 90 80 80 65 40 49 47 39 45 44 38 34 32 34 39 47 48 48 46 47 46 43 42 42 43 43 44 48 55 60 64 58 47 41
70 96 97 88 95 90 99 87 76 77 82 89 84 64 39 42 54 51 48 44 39 37 36 33 31 31 36 46 48 50 50 49 49 49 50 49 49 51 52 50 46 43 42 44
75 91 92 92 91 98 100 100 82 83 98 84 74 52 38 36 45 51 49 46 42 40 37 35 33 31 29 30 31 34 45 55 55 53 52 51 53 53 52 52 50 59 63 62
82 79 83 87 87 90 96 98 100 99 82 83 68 64 47 40 39 38 42 39 38 37 37 35 34 33 32 32 31 31 39 52 58 58 58 61 64 66 63 61 63 76 74 71
89 90 96 96 70 86 92 80 91 99 98 92 88 88 57 41 36 39 42 44 42 38 36 34 33 34 34 34 36 38 38 46 58 64 67 70 72 68 68 79 84 80 66 53
93 97 93 84 73 92 89 82 74 77 87 94 99 70 54 64 65 58 46 46 46 43 40 38 36 35 36 37 38 40 41 50 58 72 78 81 82 83 81 74 66 60 58 59
87 93 95 97 93 88 58 57 68 72 75 81 82 72 61 55 49 44 52 49 47 43 39 37 36 36 38 39 40 42 47 53 60 69 79 82 80 74 68 63 62 62 63 66
81 90 96 96 93 76 54 60 70 86 73 64 74 66 61 56 56 54 48 47 46 45 44 45 46 44 41 41 40 40 47 55 63 67 73 75 73 70 65 64 64 66 69 71
86 80 84 89 98 95 75 81 68 57 69 69 74 74 66 60 73 64 50 55 55 52 49 47 46 44 44 46 47 45 44 56 60 64 68 73 74 71 67 67 69 71 73 74
82 85 94 96 98 82 92 89 67 63 67 83 74 72 64 65 58 58 58 55 54 54 55 54 51 50 48 49 48 46 47 55 57 68 72 73 74 72 70 72 73 74 77 78
93 91 86 90 100 93 89 74 74 87 87 89 94 83 82 68 62 57 59 61 61 61 58 54 55 56 55 56 53 47 46 54 64 71 73 74 74 74 75 75 75 76 78 79
90 81 86 85 76 83 87 79 85 93 87 87 90 83 77 70 62 63 64 68 69 68 64 57 60 63 61 55 53 53 56 65 70 73 74 75 77 77 78 80 79 78 76 76
67 81 93 85 70 64 69 89 72 69 93 91 91 89 82 68 70 70 70 70 70 70 68 66 64 73 77 73 66 66 68 72 74 74 76 78 79 79 78 80 79 76 75 77
71 66 73 80 65 84 80 59 54 51 60 74 91 93 92 84 76 78 74 75 72 72 71 69 71 72 79 81 78 76 70 74 77 79 79 80 80 80 80 80 78 80 82 82
73 72 75 71 63 68 62 55 63 69 64 73 78 75 94 91 87 81 80 78 74 74 77 78 74 73 75 77 79 81 81 81 82 82 82 82 82 83 80 80 82 84 87 88

GFSCGP_850_rhum_102.txt.gz
RH
65 83 86 84 79 69 76 84 88 86 85 81 84 77 71 72 70 74 62 53 48 62 68 62 71 80 79 76 69 70 72 60 70 86 80 76 63 84 88 86 82 83 81 79
68 85 76 79 74 62 72 82 83 85 85 80 86 74 67 70 75 68 65 57 48 44 49 58 64 70 81 78 80 81 85 81 80 83 66 74 71 76 83 81 81 79 83 81
67 68 70 65 61 61 61 70 70 83 88 78 88 87 83 75 69 62 58 55 50 44 42 46 51 61 68 73 73 76 84 87 86 84 82 78 84 86 87 87 83 82 82 83
75 70 70 66 66 60 65 56 58 88 86 91 73 72 83 74 74 69 62 52 46 42 40 40 44 46 52 54 60 69 72 77 84 80 78 76 75 71 71 78 76 80 84 85
65 81 78 73 63 59 63 63 68 85 81 85 88 85 65 69 75 64 56 54 45 45 40 39 40 40 38 39 43 54 68 68 71 76 73 72 71 74 79 75 75 85 89 87
70 69 78 70 65 63 60 76 84 90 83 98 82 84 74 70 59 52 48 48 43 43 42 37 39 41 39 38 36 38 47 61 66 62 64 69 69 75 72 73 74 74 77 84
78 69 67 73 75 61 70 74 96 98 99 93 75 92 69 53 49 45 44 38 37 38 38 37 34 36 40 37 32 33 36 43 60 67 70 70 68 66 68 74 76 76 75 74
96 73 70 68 72 71 82 77 89 88 97 94 80 95 74 48 40 37 39 32 31 33 28 26 27 33 34 35 33 34 35 41 46 51 58 64 62 68 70 72 71 71 73 74
96 82 60 68 70 68 85 97 74 90 80 92 86 71 44 37 38 34 35 35 31 30 32 29 26 27 31 32 32 33 35 44 46 46 48 51 54 59 63 64 67 69 75 74
69 94 69 76 75 81 77 75 96 99 97 95 76 68 56 34 34 34 41 40 36 36 40 37 31 31 29 29 33 36 37 41 43 43 47 50 51 57 64 67 69 71 77 83
70 86 74 84 93 89 95 100 91 87 84 92 77 58 47 42 39 35 40 39 39 37 36 38 36 33 30 30 35 38 39 40 43 46 47 48 47 44 43 46 60 73 86 94
67 85 88 72 76 91 80 97 96 92 97 83 83 68 40 46 58 50 40 42 40 36 36 36 38 41 43 39 37 41 42 45 47 45 43 42 41 41 43 54 74 88 96 95
79 96 96 75 82 87 100 98 93 100 86 92 87 72 39 49 64 55 52 48 43 38 34 31 30 32 45 50 50 48 49 48 46 46 46 46 46 46 48 56 68 73 67 56
74 89 82 89 79 90 98 88 93 100 98 94 77 57 40 40 50 53 50 47 43 39 36 34 32 30 30 31 35 40 46 50 52 53 52 53 52 51 52 53 52 49 48 49
86 86 84 73 80 89 92 87 85 99 97 96 71 65 48 40 38 39 46 42 42 40 38 35 35 34 32 32 31 31 31 33 43 54 57 57 56 56 56 55 54 52 57 74
85 91 92 88 80 84 85 82 83 88 94 98 99 92 63 46 39 41 42 46 46 45 41 36 35 35 35 36 36 36 36 37 39 47 59 63 64 66 68 66 63 60 69 81
95 92 96 92 71 84 92 84 80 76 86 84 94 77 70 76 68 61 47 45 49 49 45 40 40 37 36 37 40 40 41 42 42 48 62 71 74 75 75 73 70 78 84 68
92 92 90 97 92 87 63 61 66 75 72 71 86 80 73 80 66 50 53 51 50 49 46 40 39 37 37 38 39 40 41 44 46 51 62 73 78 80 79 81 86 80 66 63
81 92 95 92 91 75 63 78 68 92 100 78 84 76 75 68 62 59 53 52 51 48 44 42 42 40 39 40 41 41 41 42 49 52 58 69 82 85 84 82 75 68 66 66
88 89 91 92 96 95 82 85 82 75 95 85 90 89 88 66 83 70 57 54 54 53 52 50 49 47 44 44 46 48 46 44 43 53 59 72 81 80 76 74 69 68 69 69
82 90 92 98 100 77 72 86 74 79 71 90 97 99 100 93 70 62 58 58 55 54 53 53 53 51 49 49 47 45 46 46 44 58 68 75 79 78 76 72 70 72 73 72
88 88 80 90 94 90 84 74 68 83 86 90 94 99 99 86 72 64 63 63 64 64 63 60 57 58 56 54 55 55 50 49 54 68 73 76 81 81 78 76 75 76 76 76
94 82 88 85 80 70 82 79 84 95 99 96 96 93 95 93 79 76 69 70 70 70 67 66 61 69 68 61 56 55 56 56 66 73 77 79 81 80 79 78 78 78 78 78
68 84 96 83 72 70 64 92 67 53 60 69 75 85 91 92 90 86 78 74 74 71 69 70 69 76 80 78 67 59 62 67 71 75 76 77 78 78 80 80 81 82 81 76
72 76 82 81 65 75 87 58 62 64 65 63 69 76 81 93 93 94 86 79 76 72 74 72 75 78 83 83 81 79 76 76 78 76 76 78 80 81 82 83 84 84 82 80
76 75 77 72 63 66 64 64 68 78 77 73 70 68 70 87 91 96 91 86 80 72 77 81 77 76 79 82 83 82 81 80 82 83 83 83 83 84 85 86 85 81 81 83

GFSCGP_850_rhum_105.txt.gz
RH
59 79 87 82 81 73 76 81 88 86 81 91 90 76 60 61 60 62 63 62 64 92 70 78 71 70 74 52 53 50 51 51 57 76 81 78 82 81 77 72 66 76 79 79
70 86 74 77 79 66 77 84 88 84 83 80 84 76 56 65 62 57 55 56 58 58 84 74 72 79 67 58 56 61 58 62 63 68 80 86 80 82 84 79 77 68 71 80
67 65 71 64 62 64 69 77 84 77 83 83 83 79 68 63 68 55 46 48 51 53 48 64 75 69 72 78 68 60 70 67 65 71 66 74 63 75 97 78 86 73 79 80
72 70 72 68 67 61 66 57 60 86 90 93 80 75 67 63 59 55 42 44 47 46 45 45 51 71 72 71 76 78 80 81 78 75 81 76 73 69 74 82 72 90 87 79
67 79 77 76 63 60 62 65 77 83 79 85 87 88 74 66 69 56 52 48 44 44 42 41 40 45 55 64 63 69 74 78 77 64 83 90 93 81 88 70 85 88 82 85
70 70 78 71 70 64 69 77 82 86 81 94 77 82 67 72 67 55 49 49 49 44 40 37 37 39 42 46 53 63 70 73 77 75 74 78 82 79 84 75 77 82 77 82
72 68 68 74 78 64 69 77 95 97 97 89 75 91 66 54 48 44 44 43 44 41 38 36 36 37 39 42 41 41 41 48 61 68 70 68 71 75 72 71 72 72 74 74
94 67 64 75 73 74 86 82 86 91 94 87 83 92 65 53 45 44 41 38 38 35 36 35 41 36 37 39 40 39 33 34 41 49 60 66 67 67 68 69 70 71 72 73
92 80 60 68 73 74 84 99 74 86 82 82 77 68 44 37 44 40 35 33 35 35 35 34 31 33 34 36 39 35 33 34 37 44 52 57 57 60 56 58 59 64 65 64
70 96 75 79 75 88 85 83 99 98 96 94 74 69 52 39 35 34 36 39 39 39 46 38 28 26 25 31 34 35 34 34 40 48 50 50 51 55 55 54 58 60 65 65
71 87 74 69 86 91 95 98 94 95 82 83 72 53 44 43 42 45 37 41 40 39 49 50 42 33 33 33 34 34 35 36 39 44 42 43 49 53 55 54 54 57 71 86
71 80 89 75 87 90 83 100 100 95 97 77 73 57 40 46 57 62 45 45 41 41 43 50 51 46 38 34 34 36 39 38 39 40 46 48 48 45 44 45 51 59 77 99
80 92 92 71 75 69 86 88 93 99 96 92 82 64 39 53 61 58 52 52 47 44 39 37 38 49 52 49 43 41 43 44 44 48 47 44 43 41 42 45 55 73 90 99
72 89 80 82 67 90 91 82 81 96 99 96 79 59 43 44 54 56 54 50 46 43 40 37 35 35 34 42 51 52 52 51 50 48 48 49 49 49 50 52 61 76 85 82
80 91 93 83 78 80 76 87 90 95 89 99 85 69 56 51 42 42 46 46 43 41 39 37 35 35 35 35 35 34 34 37 46 52 55 55 56 55 54 56 60 60 56 54
89 84 97 90 69 81 89 78 76 86 77 84 90 86 70 65 56 46 47 44 45 46 45 42 38 36 36 36 37 37 37 37 36 40 56 63 61 59 58 58 56 56 56 59
92 94 96 90 77 85 86 73 80 79 81 83 94 75 69 74 70 70 68 54 51 50 44 42 38 38 38 37 37 38 40 41 40 41 52 63 67 67 65 66 64 62 61 72
92 95 82 93 87 85 87 68 72 87 95 91 85 77 77 77 74 71 68 64 58 52 50 46 42 40 39 39 39 39 40 42 42 43 46 56 69 75 76 77 76 73 72 83
82 91 94 91 87 74 74 82 81 88 98 97 98 88 94 83 71 69 64 58 55 51 48 46 45 44 44 43 42 43 40 41 44 46 48 52 63 78 82 81 79 81 88 79
88 89 89 92 99 88 68 76 84 82 95 96 98 97 97 78 90 74 70 65 62 59 56 54 52 50 47 46 45 45 45 48 43 41 49 59 66 77 84 86 89 88 78 70
82 82 94 97 98 73 60 79 78 87 78 91 96 100 100 97 95 81 66 64 61 61 57 55 55 53 51 49 47 44 44 41 47 51 56 66 72 80 89 90 84 77 73 71
86 93 93 85 92 81 78 71 71 74 86 87 94 96 99 94 82 82 73 70 68 66 66 66 61 56 57 60 56 53 55 57 52 53 60 71 78 86 85 82 80 77 76 76
92 78 85 80 74 57 84 75 80 93 90 87 91 83 90 96 91 89 88 77 75 73 70 67 64 63 67 68 65 59 60 59 57 59 70 78 82 84 83 81 79 78 78 79
74 84 97 87 73 78 69 86 87 61 69 68 67 72 82 81 93 93 93 85 78 76 74 73 71 73 80 82 79 70 67 67 69 75 77 79 80 82 84 84 83 82 82 82
74 85 88 87 71 66 86 82 62 66 70 70 67 64 67 78 74 98 95 91 85 78 76 76 76 77 82 85 84 83 80 79 80 82 81 80 79 81 82 84 84 85 88 89
77 80 81 69 59 57 63 66 73 78 79 75 76 73 67 66 78 92 99 97 86 79 78 82 81 77 76 81 85 83 83 84 86 85 85 84 83 84 86 87 87 91 94 89

GFSCGP_850_rhum_108.txt.gz
RH
58 73 74 65 59 59 56 53 34 64 64 79 84 84 66 47 57 58 72 81 69 75 76 77 91 95 97 81 83 82 78 74 86 87 91 90 80 74 64 53 53 60 62 73
58 63 57 64 59 59 58 57 64 64 66 82 73 77 60 46 49 52 62 68 80 84 74 74 89 91 94 87 82 74 72 63 60 69 75 86 89 93 83 79 66 64 67 78
62 55 60 60 53 55 61 56 63 60 70 76 71 64 57 50 47 50 53 61 64 82 86 78 97 84 82 97 79 73 76 68 58 59 71 81 89 87 87 85 88 87 82 82
54 56 61 57 54 50 53 49 55 67 72 82 60 51 64 50 49 44 45 53 59 62 74 80 90 89 63 61 84 75 68 77 71 58 62 75 70 64 74 78 82 79 72 77
58 64 61 60 54 54 53 58 53 61 64 63 71 63 43 44 49 44 41 42 49 56 56 61 72 83 79 73 63 74 77 76 70 57 47 64 71 72 84 84 79 70 72 64
60 60 66 59 61 59 60 60 63 62 65 73 46 61 30 44 40 38 38 41 44 48 50 49 53 60 72 74 76 76 81 79 83 95 84 66 69 75 92 78 83 62 71 65
58 54 55 68 65 56 62 61 77 78 87 61 59 72 36 35 37 34 34 36 38 47 51 51 47 44 44 53 70 71 69 74 81 84 88 81 79 89 81 83 73 74 78 74
70 62 55 57 65 68 58 67 61 61 59 55 68 68 36 39 37 35 38 36 38 39 46 42 39 38 38 41 45 50 59 66 72 75 79 80 84 86 84 86 84 80 76 75
60 58 52 57 60 64 96 92 62 71 60 63 50 47 34 26 31 32 33 32 35 36 41 43 35 34 36 38 42 41 42 41 45 61 69 72 73 72 73 75 75 74 72 71
57 78 62 63 64 63 71 77 98 94 88 62 48 48 36 33 32 29 29 32 38 40 39 37 40 36 39 37 37 40 42 36 36 41 50 63 68 70 70 68 68 68 67 69
58 72 56 58 61 57 64 76 86 99 90 58 45 37 30 36 40 41 33 38 39 49 48 46 38 32 33 33 32 36 40 36 37 40 46 53 57 59 63 60 59 62 67 70
65 65 75 53 57 60 63 87 100 94 86 91 60 39 33 41 46 45 38 44 47 54 60 54 49 39 39 36 34 37 40 38 38 42 49 48 46 48 52 53 56 60 64 70
61 77 67 47 69 58 65 64 74 88 99 85 62 46 34 35 42 47 46 48 49 50 48 51 58 51 45 48 45 40 38 40 42 46 45 46 50 53 50 48 46 49 52 64
61 90 76 58 66 69 71 60 62 78 89 90 66 49 38 42 40 42 47 48 48 48 48 44 40 47 55 52 50 50 47 47 49 49 52 51 47 45 44 45 47 52 68 96
59 70 70 56 53 56 63 62 56 82 70 90 80 92 55 48 48 38 44 46 47 48 47 44 41 37 36 36 42 52 54 54 54 52 49 48 48 48 48 49 50 61 84 100
68 82 90 78 59 68 65 52 58 61 61 66 64 72 48 45 53 51 48 50 50 52 50 48 42 40 39 37 36 34 33 36 44 50 53 54 54 55 55 56 58 66 76 79
69 81 82 70 65 87 82 69 66 69 68 74 83 61 60 62 58 59 57 59 58 58 54 48 46 41 40 40 39 39 38 36 36 38 42 52 59 60 60 61 61 62 62 57
69 81 76 75 73 74 70 59 68 76 87 90 88 90 82 74 72 69 66 67 60 59 57 53 47 44 42 42 41 42 44 43 41 40 41 44 53 63 65 64 63 61 59 59
70 69 77 72 60 57 65 69 68 70 90 97 97 89 87 82 71 69 77 72 65 61 55 53 50 48 46 46 46 45 43 42 43 45 45 48 57 65 71 70 68 69 67 67
73 67 71 76 67 51 63 64 75 71 70 86 97 88 87 78 74 71 90 75 71 67 63 57 52 51 49 48 47 46 46 46 46 43 46 54 59 67 74 78 80 83 82 82
77 73 71 63 62 41 40 60 75 80 66 79 87 95 97 91 95 96 89 76 80 79 74 67 61 56 53 51 49 47 47 45 47 48 52 56 68 74 82 88 89 86 87 94
57 65 68 68 77 54 50 67 63 64 79 81 87 90 90 94 96 98 97 91 79 80 80 76 71 65 61 57 55 53 50 52 51 52 51 53 63 73 85 91 92 97 98 84
64 48 53 52 41 49 76 69 76 86 84 78 77 79 85 86 81 85 98 93 85 79 76 75 73 71 71 73 72 70 58 59 61 61 56 58 71 81 88 93 95 91 84 81
65 64 63 70 54 56 64 82 85 79 72 78 76 74 74 78 82 79 84 95 90 81 76 74 73 71 73 80 81 80 71 66 68 68 68 76 82 87 92 90 88 84 80 81
51 68 63 66 60 65 66 75 78 75 70 72 69 75 72 76 80 82 80 97 93 87 79 79 79 77 79 84 84 84 83 79 80 82 84 85 84 86 86 87 87 85 85 84
58 56 54 38 48 44 62 71 68 75 79 74 79 78 84 89 79 75 85 97 95 84 79 78 84 84 80 82 87 85 85 88 89 89 90 90 91 93 92 89 88 91 94 94

GFSCGP_850_rhum_111.txt.gz
RH
62 78 74 52 50 50 49 43 38 30 52 59 53 62 65 54 52 47 53 69 66 69 95 86 94 95 96 96 100 100 91 98 99 90 82 76 72 78 98 93 92 96 98 91
52 66 49 54 49 51 47 41 39 47 50 60 51 55 57 50 44 47 54 69 70 93 97 88 90 94 80 84 93 100 98 93 98 95 83 72 85 78 78 83 86 94 97 94
57 56 48 50 50 48 44 46 43 47 53 54 65 59 63 49 42 45 52 66 75 81 84 91 88 85 84 84 84 95 89 98 97 94 97 99 96 97 95 94 82 64 66 65
44 39 50 50 49 43 50 42 46 50 54 52 46 75 62 54 49 46 48 63 71 81 80 61 71 92 80 77 77 82 73 89 78 90 81 75 80 86 82 87 90 90 88 85
53 53 55 51 43 49 51 48 47 45 48 46 43 51 50 49 52 47 43 51 62 82 94 83 75 93 95 78 64 62 80 93 90 86 83 78 72 71 70 67 75 78 89 83
45 46 52 54 52 49 48 51 45 45 53 66 39 45 46 48 49 42 37 42 53 66 77 87 82 89 95 73 64 92 78 86 91 87 78 77 69 56 52 58 62 76 75 73
49 42 41 55 56 43 50 57 76 75 78 56 48 49 34 29 32 39 38 38 42 55 65 66 71 83 80 75 63 78 71 65 79 70 72 74 71 56 50 62 62 64 54 70
56 59 46 42 53 64 59 57 73 81 60 41 50 51 45 30 30 31 33 34 36 42 50 56 59 58 65 71 65 75 86 72 76 81 74 68 68 62 53 68 61 56 80 91
48 45 39 45 50 54 75 77 55 70 44 46 37 36 26 25 28 30 30 31 32 33 36 47 49 52 50 45 61 77 69 74 80 81 85 84 80 77 84 94 87 76 79 76
45 62 47 43 46 52 57 65 81 76 78 54 37 36 40 36 35 28 28 28 33 40 42 45 48 47 50 52 53 51 62 74 72 71 76 74 78 85 88 83 86 89 87 80
44 51 50 38 52 53 54 74 73 97 88 90 58 50 35 42 40 38 29 34 39 49 54 56 57 48 40 40 44 55 54 54 53 58 51 66 66 72 75 74 75 76 69 71
50 51 65 40 44 48 50 60 76 76 95 69 71 71 33 37 35 33 36 40 44 51 55 64 58 40 36 36 38 44 47 46 53 57 47 51 63 70 75 75 73 75 73 72
48 66 68 49 60 54 56 51 49 81 94 84 75 76 34 33 37 41 40 40 41 42 43 52 62 65 49 40 46 51 51 50 54 43 47 57 62 62 63 62 64 65 70 72
53 89 74 57 62 59 64 50 42 68 85 71 62 73 45 46 43 38 40 40 40 41 42 45 48 63 72 73 54 56 58 51 58 60 56 56 54 56 56 54 52 51 53 64
45 71 57 49 47 50 52 54 46 72 67 81 57 62 55 46 42 44 39 43 44 46 45 44 46 48 53 68 70 70 62 56 55 54 58 60 60 54 48 45 46 50 59 67
55 82 82 76 52 56 53 41 41 49 53 56 56 56 41 49 50 50 46 46 49 50 50 49 47 46 50 52 46 52 60 62 64 63 60 55 51 50 50 51 53 56 64 95
59 77 81 63 55 81 82 57 59 60 58 71 74 56 59 58 54 57 59 56 55 54 54 54 51 48 44 42 43 46 42 40 45 51 54 55 56 56 57 58 63 69 80 98
54 75 72 67 73 73 61 54 60 60 70 76 76 82 85 68 65 64 64 63 57 59 58 59 61 53 45 43 41 41 43 44 42 42 42 45 50 56 60 62 63 67 76 83
58 59 67 68 43 46 52 56 59 61 70 93 94 76 70 70 63 74 84 81 72 70 70 70 72 58 50 47 45 44 42 41 41 44 45 45 48 55 61 65 65 65 65 63
57 53 68 66 60 41 47 56 61 59 68 75 94 80 78 69 67 80 91 92 85 85 81 76 66 74 75 59 50 47 45 44 42 42 42 46 50 52 56 66 69 69 67 66
72 69 67 49 54 32 42 50 62 72 72 71 75 81 83 79 88 95 94 93 84 83 84 79 73 71 71 62 58 56 54 49 47 45 44 46 48 57 63 66 73 74 74 75
49 56 56 47 60 51 46 60 61 58 63 64 72 79 81 77 77 86 88 93 93 79 78 78 77 70 66 63 60 61 62 58 55 54 50 47 51 57 65 70 78 83 86 88
50 35 42 41 38 44 47 53 62 66 62 68 68 68 65 65 67 67 69 90 94 89 82 80 76 73 71 69 73 76 75 69 64 64 67 64 59 63 72 81 83 90 92 90
48 43 49 55 38 42 55 66 67 74 65 68 68 67 67 64 63 65 66 74 95 96 85 80 82 81 80 80 83 82 82 77 76 76 76 81 78 74 83 85 88 93 94 98
37 51 48 46 40 54 54 56 67 72 75 74 71 71 72 74 71 66 67 70 85 97 84 79 82 84 81 79 83 84 85 87 86 92 92 93 99 95 94 93 95 99 97 92
38 37 46 29 33 38 49 59 69 70 70 72 75 73 72 78 80 78 70 72 84 94 84 80 80 85 85 83 78 83 85 88 93 96 96 95 96 96 96 94 93 93 94 92

GFSCGP_850_rhum_114.txt.gz
RH
70 82 92 88 61 50 57 55 54 38 58 60 63 56 53 57 53 56 52 45 62 68 84 82 66 70 65 67 55 53 73 98 81 87 91 81 85 85 85 86 82 54 46 46
61 74 51 55 48 51 50 56 53 48 56 63 60 59 49 54 56 50 49 50 72 82 88 85 81 84 89 96 99 78 82 94 74 77 95 91 92 90 85 77 79 76 77 65
54 49 41 47 48 50 52 68 52 52 49 56 63 68 59 56 52 46 49 55 59 69 92 87 89 92 98 99 99 100 99 97 81 68 67 79 99 100 100 100 100 93 92 91
53 40 44 51 52 49 66 57 50 44 51 85 56 79 60 58 58 58 52 66 76 71 77 79 71 89 95 97 90 100 81 100 97 86 77 74 73 75 76 65 66 66 68 68
63 58 64 64 53 51 59 50 53 51 50 57 48 63 91 57 61 56 57 66 87 78 78 89 66 62 67 70 81 87 86 93 99 95 79 74 72 71 92 94 91 88 85 87
48 33 47 57 52 50 46 55 54 51 55 84 50 52 97 61 58 57 54 58 70 85 79 72 60 55 70 70 69 74 71 73 91 98 90 81 75 77 78 70 70 78 86 83
52 42 39 47 62 50 55 68 93 94 95 86 45 50 53 39 37 58 64 57 62 74 86 77 71 84 77 72 72 68 71 75 81 87 82 87 75 69 74 65 62 66 60 57
69 74 48 40 52 62 67 80 97 95 94 91 47 79 48 35 34 51 61 47 56 63 66 73 90 91 66 74 80 74 72 73 64 70 73 75 75 81 85 75 70 61 62 66
73 52 36 40 40 54 68 85 66 97 59 70 50 42 38 36 37 33 42 43 40 34 58 55 57 63 67 70 79 81 86 83 75 66 72 78 80 79 80 79 75 64 62 74
50 74 48 38 40 50 64 63 85 88 94 69 57 58 63 54 48 39 40 42 42 50 46 52 57 55 51 50 72 73 78 66 67 66 77 76 78 81 74 74 75 70 52 51
50 55 62 44 61 64 74 79 71 94 92 97 96 97 47 52 45 44 47 47 53 58 61 58 51 49 54 55 51 53 66 75 73 72 80 77 70 74 83 80 73 54 74 79
53 60 85 61 52 45 53 58 88 94 89 88 99 98 42 48 48 44 44 44 44 50 61 65 61 52 46 50 52 54 61 63 75 74 68 70 70 74 76 71 74 74 76 73
62 79 92 75 71 54 56 50 50 90 94 90 92 98 55 49 47 42 42 42 43 44 47 59 68 68 65 55 48 54 57 54 63 73 62 51 58 59 69 67 75 74 74 71
53 92 84 89 72 57 72 58 48 80 91 90 83 78 94 55 55 48 45 45 48 48 46 47 53 65 71 69 70 69 63 62 51 53 58 63 76 64 62 63 65 65 67 68
57 82 72 58 48 51 56 55 50 82 70 86 72 65 58 58 58 53 48 48 51 51 52 48 48 54 62 72 74 76 75 71 72 68 58 62 64 66 59 62 65 66 67 64
66 90 90 88 53 64 54 41 40 47 54 60 64 64 66 57 54 56 59 59 56 56 55 53 52 51 53 57 62 70 74 73 73 69 61 60 64 72 69 63 55 51 54 60
67 90 92 73 58 86 86 58 55 58 53 66 71 76 81 74 61 63 67 62 63 62 62 63 62 61 55 52 52 52 51 63 67 70 73 75 75 65 57 54 55 54 56 65
62 85 88 92 86 87 66 54 57 62 62 69 77 80 73 64 74 80 82 75 72 70 70 71 69 60 56 52 48 48 47 48 49 50 55 59 60 61 61 61 62 64 66 71
60 81 87 90 83 46 53 54 65 65 70 80 85 80 74 74 76 87 89 87 84 83 74 69 65 71 72 58 51 48 47 47 46 46 47 48 48 49 52 56 59 62 66 73
60 58 88 89 78 56 64 62 58 59 88 82 88 77 81 78 84 87 84 90 84 80 83 79 71 66 58 56 55 53 50 48 48 48 48 46 46 48 49 55 62 65 68 71
88 88 85 85 76 51 58 59 61 81 75 77 82 76 79 81 78 85 80 89 92 80 78 84 83 76 66 61 57 53 51 52 52 52 51 50 50 52 56 60 61 68 73 72
66 83 85 63 72 74 52 64 74 66 63 67 72 73 77 78 73 68 68 78 91 92 80 75 74 74 70 65 62 62 60 56 55 57 56 58 56 57 59 64 70 75 79 78
64 47 63 54 62 44 52 55 64 62 61 67 70 70 70 64 62 63 68 67 77 92 90 81 77 76 74 72 74 71 72 71 66 61 63 69 76 76 76 81 82 84 84 84
50 41 59 55 44 51 46 56 63 68 69 65 66 66 67 67 67 66 65 66 69 77 94 85 82 82 82 79 76 80 78 77 76 73 76 78 85 92 82 85 93 97 93 94
45 54 60 57 46 50 46 50 57 69 67 68 71 70 71 73 74 76 72 68 68 73 89 79 76 80 86 86 84 81 86 84 84 86 88 94 99 100 100 91 94 100 100 100
47 59 64 61 39 47 50 49 59 68 68 70 72 71 72 76 80 77 80 74 71 75 95 87 79 76 80 84 86 92 87 91 93 96 97 100 100 100 100 100 99 98 100 100

GFSCGP_850_rhum_117.txt.gz
RH
74 94 92 82 74 84 84 68 78 66 65 74 78 77 65 51 60 61 68 63 66 77 99 83 99 93 91 82 85 82 73 65 84 89 82 83 91 85 87 80 84 78 70 62
77 93 70 60 67 76 56 63 85 81 63 68 69 69 58 56 61 58 54 56 66 90 82 83 96 93 97 95 88 86 80 74 88 93 81 78 74 78 83 85 83 74 60 54
73 58 44 51 60 61 57 68 74 66 49 63 71 70 69 55 54 52 50 55 64 77 74 86 81 90 99 88 86 87 91 96 83 98 91 83 79 75 75 77 76 63 51 51
63 54 58 64 66 63 77 57 57 62 69 79 63 84 64 71 60 52 58 65 71 65 68 64 83 87 93 99 99 96 87 87 84 96 99 90 85 87 88 79 78 74 77 80
65 57 61 66 66 58 72 58 60 65 71 64 58 83 94 75 76 71 73 83 79 69 68 82 83 83 82 87 94 91 100 98 83 66 90 88 77 74 84 74 89 98 98 95
57 41 49 57 54 60 57 64 65 64 69 87 64 74 70 55 74 80 69 71 80 67 84 75 74 74 75 94 79 100 94 100 96 81 74 86 73 67 68 98 99 99 99 93
62 48 41 44 62 58 59 80 94 91 94 89 58 66 62 46 72 82 78 73 78 98 94 84 82 80 73 73 78 87 92 95 97 86 73 78 58 61 65 67 76 76 78 82
82 74 50 45 52 68 74 80 98 96 91 93 69 68 64 44 45 87 82 76 62 79 92 98 85 72 73 70 80 79 87 93 90 98 89 80 80 74 71 71 68 67 67 65
82 66 45 43 45 62 73 90 67 97 93 90 77 67 51 46 45 53 81 78 72 59 66 77 82 78 83 74 87 83 80 78 82 77 98 95 89 88 86 81 77 80 77 76
60 77 53 48 48 52 67 66 79 90 94 95 88 97 82 66 60 55 58 66 63 65 59 61 70 68 72 78 79 87 84 82 82 80 82 75 71 69 78 78 73 79 76 77
59 66 66 58 69 76 74 83 84 87 96 97 96 98 59 64 62 62 58 52 58 64 65 59 54 54 58 58 58 66 82 78 82 88 84 86 91 85 83 79 68 81 78 77
61 72 89 74 57 50 58 67 84 93 91 97 98 99 70 77 58 53 55 49 48 59 67 69 65 55 51 56 64 63 72 78 79 79 86 90 91 96 91 95 89 85 73 79
64 87 89 74 60 54 64 58 66 89 92 90 96 98 68 69 59 54 56 54 51 48 56 64 71 70 58 50 58 66 66 70 73 79 86 95 90 86 81 72 72 72 73 76
62 90 78 89 77 65 74 62 58 79 95 91 81 70 77 71 68 66 63 60 57 52 52 59 66 74 77 73 66 59 65 70 72 67 63 72 66 69 68 69 66 61 64 63
66 84 80 62 57 53 64 57 55 75 71 88 73 89 85 76 71 68 62 62 61 62 62 59 57 62 69 71 75 75 71 73 77 86 64 62 60 61 64 67 61 61 66 68
70 95 92 94 63 74 57 48 48 47 55 63 66 84 81 71 64 79 76 71 70 69 69 67 62 56 56 62 60 65 76 75 72 71 74 71 65 59 62 57 67 73 70 64
77 92 95 83 66 84 76 58 57 63 56 67 82 85 83 69 76 90 84 80 80 76 73 70 68 64 57 51 52 53 57 62 69 76 78 75 66 57 60 68 69 62 58 56
70 91 92 98 85 66 54 57 61 64 65 70 77 82 72 74 83 81 88 85 83 84 79 75 69 67 62 59 52 48 46 49 52 52 56 60 62 64 62 58 59 61 60 60
70 84 90 87 92 56 64 64 72 74 67 77 84 84 76 76 82 88 84 87 88 83 84 84 81 76 69 60 55 52 49 47 46 45 46 49 48 50 54 56 62 65 63 66
71 68 90 91 83 65 50 65 59 60 76 87 81 86 83 80 98 86 76 83 86 88 81 83 83 79 72 66 63 57 53 51 51 50 50 49 50 51 55 59 60 63 70 74
92 93 86 93 86 62 56 65 61 64 43 83 82 81 81 85 77 81 75 73 77 91 89 81 77 76 75 69 65 62 60 58 58 56 52 50 50 51 55 59 60 63 68 74
68 86 87 79 80 59 60 70 65 57 69 67 73 74 73 75 78 70 68 66 65 86 90 84 79 76 74 72 70 69 68 66 64 61 58 56 56 58 58 64 70 73 77 80
58 56 62 62 58 40 56 53 55 59 59 67 73 74 74 74 65 62 64 67 68 67 82 88 80 80 79 76 72 70 73 75 75 76 68 63 63 64 68 70 72 77 83 85
53 49 57 51 37 52 43 55 58 60 59 65 68 67 66 65 67 68 66 65 66 68 68 84 79 77 78 81 81 82 75 75 76 79 80 83 88 91 94 98 92 96 100 96
50 54 59 68 56 47 46 47 58 61 64 65 65 66 66 69 70 72 75 71 67 70 68 82 77 74 74 77 78 82 84 82 84 86 87 94 100 99 96 97 99 100 100 100
51 62 60 52 42 40 42 41 50 59 63 63 62 67 67 70 74 74 75 79 76 72 80 82 88 77 72 74 72 76 83 86 86 93 93 99 98 99 99 99 98 99 99 99